     2.11           OBSERVATION DATA    G (GPS)             RINEX VERSION / TYPE
teqc 2010Oct21 OPUS Account 20111027 18:49:39UTC            PGM / RUN BY / DATE
V 1525                                                      MARKER NAME
3030                                                        MARKER NUMBER
CSMIDDLETON NGS                                             OBSERVER / AGENCY
0220320152 TRIMBLE 5700 2.01                                REC # / TYPE / VERS
12214372 TRM41249.00 NONE                                   ANT # / TYPE
  -759363.3667 -5556634.1898  3027662.0066                  APPROX POSITION XYZ
        2.0000        0.0000        0.0000                  ANTENNA: DELTA H/E/N
     1     1                                                WAVELENGTH FACT L1/2
     5    L1    L2    C1    P1    P2                        # / TYPES OF OBSERV
    15                                                      LEAP SECONDS
  2011     8    18     0     0   30.0000000     GPS         TIME OF FIRST OBS
                                                            END OF HEADER
 11  8 18  0  0 30.0000000  0  8G17G10G09G12G05G02G04G28
 -30888912.45757 -24061919.44555  22654366.2504                   22654364.1484
 -25668345.60558 -19977482.44556  21081249.1414                   21081246.7974
 -15888343.80157 -12373301.72354  22885988.8444                   22885988.4804
 -16886549.19157 -13151590.07856  22197379.7974                   22197377.4024
 -11185824.13757  -8708902.50055  23021259.3444                   23021258.7584
 -29928266.68058 -23313474.44556  20709724.4144                   20709719.8834
 -33015300.03958 -25718445.81256  20930412.4534                   20930410.1334
 -23784163.63356 -18545550.26253  24257110.7814                   24257111.7584
 11  8 18  0  1  0.0000000  0  8G17G10G09G12G05G02G04G28
 -30871487.12947 -24048341.30945  22657682.5234                   22657680.5704
 -25729957.98048 -20025492.05546  21069524.6174                   21069522.5594
 -15852115.71547 -12345072.08644  22892882.6804                   22892882.2814
 -16994050.24247 -13235357.08646  22176923.1884                   22176920.7934
 -11315386.02047  -8809859.70745  22996604.3284                   22996603.6994
 -29973595.69548 -23348795.73846  20701098.9304                   20701094.4064
 -32976975.27048 -25688582.37146  20937705.2274                   20937703.2234
 -23709796.84446 -18487602.28943  24271262.5554                   24271264.7704
 11  8 18  0  1 30.0000000  0  8G17G10G09G12G05G02G04G28
 -30853929.49647 -24034660.06245  22661023.1804                   22661021.5594
 -25790988.37148 -20073048.16846  21057910.7424                   21057908.6214
 -15815521.42647 -12316557.10545  22899846.9454                   22899846.5704
 -17101252.52747 -13318891.27746  22156523.0554                   22156521.0904
 -11444798.71947  -8910700.65645  22971977.8754                   22971976.8594
 -30018569.98048 -23383840.62546  20692540.2814                   20692536.1134
 -32938378.66848 -25658507.12546  20945050.0864                   20945048.0394
 -23635223.68746 -18429493.56243  24285452.7974                   24285455.3244
 11  8 18  0  2  0.0000000  0  8G17G10G09G12G05G02G04G28
 -30836239.95747 -24020876.04745  22664389.2274                   22664388.2624
 -25851435.74648 -20120149.98046  21046408.1644                   21046406.1644
 -15778564.98847 -12287759.90645  22906879.0474                   22906878.5394
 -17208154.33647 -13402191.32846  22136180.2194                   22136178.1844
 -11574060.15247  -9011423.75045  22947380.4064                   22947379.4774
 -30063191.05548 -23418610.28147  20684049.1484                   20684044.9844
 -32899513.35248 -25628222.47346  20952445.7664                   20952443.7974
 -23560446.72346 -18371225.96943  24299683.4454                   24299684.4344
 11  8 18  0  2 30.0000000  0  7G17G10G09G12G05G02G04
 -30818416.10247 -24006987.37945  22667781.3914                   22667779.9534
 -25911296.93748 -20166795.03146  21035016.7814                   21035014.9064
 -15741248.36747 -12258682.09044  22913980.3834                   22913979.8834
 -17314751.54748 -13485254.04346  22115895.8284                   22115893.0984
 -11703166.21947  -9112025.77045  22922812.1024                   22922811.1134
 -30107458.53148 -23453104.39846  20675625.4924                   20675620.8244
 -32860380.43048 -25597729.30946  20959892.4694                   20959890.4774
 11  8 18  0  3  0.0000000  0  7G17G10G09G12G05G02G04
 -30800455.76647 -23992992.34845  22671198.7734                   22671197.4224
 -25970568.60548 -20212980.72346  21023737.7664                   21023735.3324
 -15703572.84047 -12229324.55944  22921150.1024                   22921149.0864
 -17421039.97347 -13568076.12946  22095669.8834                   22095667.1214
 -11832112.18047  -9212503.03545  22898274.1024                   22898273.6844
 -30151371.34448 -23487322.15646  20667269.2034                   20667264.7504
 -32820980.57048 -25567028.14846  20967389.9774                   20967387.9614
 11  8 18  0  3 30.0000000  0  7G17G10G09G12G05G02G04
 -30782349.57047 -23978883.68745  22674644.4064                   22674643.0904
 -26029240.28148 -20258698.87946  21012572.8834                   21012571.0234
 -15665533.35947 -12199683.46144  22928388.6414                   22928387.4064
 -17527008.42648 -13650648.90246  22075504.3364                   22075501.7344
 -11960886.06647  -9312846.21945  22873769.2194                   22873768.5004
 -30194921.59048 -23521257.39847  20658981.8674                   20658977.3364
 -32781307.49648 -25536114.07846  20974939.5784                   20974937.8554
 11  8 18  0  4  0.0000000  0  7G17G10G09G12G05G02G04
 -30764092.77747 -23964657.64145  22678119.1954                   22678117.3794
 -26087305.71948 -20303944.64846  21001523.2664                   21001521.1844
 -15627128.60946 -12169757.74245  22935697.0004                   22935696.2664
 -17632649.89548 -13732966.88746  22055401.4304                   22055398.8874
 -12089480.73847  -9413049.73845  22849298.6334                   22849297.5314
 -30238105.81248 -23554907.42247  20650764.0084                   20650759.2544
 -32741358.95748 -25504985.36746  20982541.4534                   20982539.8754
 11  8 18  0  4 30.0000000  0  7G17G10G09G12G05G02G04
 -30745686.19147 -23950314.89145  22681621.8134                   22681619.7194
 -26144764.91048 -20348718.02046  20990589.0944                   20990587.7034
 -15588363.43047 -12139551.18045  22943073.9924                   22943073.4804
 -17737963.35948 -13815029.28546  22035361.2274                   22035358.9224
 -12217894.78547  -9513112.53945  22824862.4454                   22824861.3834
 -30280926.45748 -23588274.15246  20642615.4614                   20642611.0274
 -32701139.02048 -25473645.16846  20990194.9694                   20990193.5434
 11  8 18  0  5  0.0000000  0  7G17G10G09G12G05G02G04
 -30727131.67247 -23935856.85945  22685152.6644                   22685150.8204
 -26201618.83648 -20393019.75446  20979770.1804                   20979768.3914
 -15549243.57046 -12109068.23044  22950517.6884                   22950517.7464
 -17842948.43447 -13896835.79746  22015382.8914                   22015380.2934
 -12346127.51647  -9613034.04345  22800460.5314                   22800459.9064
 -30323386.63348 -23621359.98046  20634535.7274                   20634530.9924
 -32660652.27048 -25442097.07046  20997899.6254                   20997897.9024
 11  8 18  0  5 30.0000000  0  7G17G10G09G12G05G02G04
 -30708434.64547 -23921287.79345  22688710.4384                   22688708.9224
 -26257872.10548 -20436853.44146  20969065.5864                   20969063.7304
 -15509778.65647 -12078316.40645  22958028.1254                   22958027.6484
 -17947608.94548 -13978389.41446  21995466.7734                   21995464.2504
 -12474181.91047  -9712816.57045  22776092.0634                   22776091.5664
 -30365493.18048 -23654170.25846  20626523.1954                   20626518.5744
 -32619907.44548 -25410347.88346  21005652.9144                   21005650.9304
 11  8 18  0  6  0.0000000  0  7G17G10G09G12G05G02G04
 -30689596.14547 -23906608.47745  22692294.9454                   22692293.6994
 -26313524.54748 -20480218.95746  20958475.3364                   20958473.1294
 -15469973.57847 -12047299.53944  22965602.5944                   22965602.6954
 -18051944.00848 -14059689.43446  21975612.3364                   21975609.5554
 -12602057.25447  -9812459.59445  22751758.2504                   22751757.4804
 -30407248.69548 -23686707.01647  20618577.0004                   20618572.4774
 -32578908.42248 -25378400.60546  21013455.0164                   21013453.1564
 11  8 18  0  6 30.0000000  0  7G17G10G09G12G05G02G04
 -30670616.97747 -23891819.56245  22695907.4614                   22695905.6134
 -26368575.76248 -20523115.98046  20947999.4144                   20947997.3324
 -15429833.02746 -12016021.26644  22973241.1254                   22973240.8094
 -18155952.30948 -14140734.83646  21955820.1334                   21955817.2304
 -12729751.72347  -9911961.66445  22727458.6334                   22727458.1804
 -30448655.33648 -23718971.91846  20610697.7584                   20610692.9304
 -32537658.74248 -25346258.00846  21021304.7424                   21021302.5984
 11  8 18  0  7  0.0000000  0  7G17G10G09G12G05G02G04
 -30651498.57047 -23876922.11345  22699545.5234                   22699543.8754
 -26423026.36748 -20565545.00046  20937637.9144                   20937636.1294
 -15389362.09847 -11984485.52744  22980942.9614                   22980942.1804
 -18259633.10248 -14221525.05546  21936090.4064                   21936087.8014
 -12857263.99647 -10011321.76245  22703193.9924                   22703193.1054
 -30489715.87148 -23750967.11346  20602884.2664                   20602879.4924
 -32496162.61748 -25313923.38346  21029201.0234                   21029198.5594
 11  8 18  0  7 30.0000000  0  7G17G10G09G12G05G02G04
 -30632239.58647 -23861915.12545  22703209.7734                   22703208.1524
 -26476874.27048 -20607504.37946  20927390.9304                   20927389.0004
 -15348563.69547 -11952694.61345  22988707.0314                   22988706.2664
 -18362983.51248 -14302057.83646  21916423.6564                   21916420.9414
 -12984590.78147 -10110537.32845  22678964.6724                   22678963.3834
 -30530430.70748 -23782692.94547  20595135.9844                   20595131.8014
 -32454422.13748 -25281398.35246  21037144.2424                   21037142.0514
 11  8 18  0  8  0.0000000  0  7G17G10G09G12G05G02G04
 -30612839.76247 -23846798.41045  22706902.1414                   22706900.1844
 -26530118.47748 -20648993.34846  20917258.6174                   20917256.8794
 -15307441.50847 -11920651.38745  22996531.9064                   22996531.5864
 -18466001.44948 -14382331.54346  21896819.8524                   21896816.8204
 -13111729.74247 -10209606.52345  22654770.1804                   22654770.0634
 -30570801.36748 -23814150.58247  20587454.0554                   20587449.4184
 -32412439.98048 -25248684.98846  21045132.9924                   21045131.0944
 11  8 18  0  8 30.0000000  0  8G17G10G09G12G05G02G04G30
 -30593298.81247 -23831571.73445  22710620.4694                   22710619.0354
 -26582757.31248 -20690010.59446  20907241.9924                   20907239.7274
 -15265998.83647 -11888358.44944  23004417.5554                   23004417.8484
 -18568684.12947 -14462344.02746  21877280.0004                   21877277.4454
 -13238677.53547 -10308526.78545  22630612.8834                   22630612.1414
 -30610828.41048 -23845340.46946  20579837.3204                   20579832.4024
 -32370218.40648 -25215785.07846  21053167.2424                   21053165.5204
   -194905.77056   -140008.88353  24269644.5164                   24269643.9024
 11  8 18  0  9  0.0000000  0  8G17G10G09G12G05G02G04G30
 -30573625.03547 -23816241.56245  22714364.7504                   22714362.5164
 -26634798.75848 -20730562.32446  20897338.7034                   20897336.6604
 -15224248.28147 -11855825.57445  23012362.9304                   23012362.9144
 -18671037.99247 -14542100.27046  21857802.4144                   21857800.4064
 -13365440.50047 -10407302.99645  22606490.5234                   22606490.0664
 -30650522.03948 -23876270.55946  20572283.7274                   20572279.3364
 -32327768.54348 -25182707.26646  21061245.4384                   21061243.6024
   -327689.77046   -243476.90643  24244376.6094                   24244375.4024
 11  8 18  0  9 30.0000000  0  8G17G10G09G12G05G02G04G30
 -30553824.57447 -23800812.66445  22718132.2344                   22718130.8874
 -26686247.97348 -20770652.59846  20887548.1804                   20887546.0594
 -15182200.05547 -11823060.77745  23020364.7664                   23020364.2114
 -18773067.49247 -14621603.76246  21838386.6484                   21838384.2894
 -13492022.37147 -10505938.11745  22582402.5784                   22582402.2624
 -30689889.93048 -23906946.81646  20564792.0944                   20564787.7304
 -32285099.76248 -25149458.87946  21069364.7114                   21069362.8594
   -460314.30946   -346820.66043  24219139.1094                   24219138.1644
 11  8 18  0 10  0.0000000  0  8G17G10G09G12G05G02G04G30
 -30533891.30147 -23785280.28545  22721925.2194                   22721923.5394
 -26737098.35548 -20810276.24246  20877871.9064                   20877869.5664
 -15139852.12547 -11790062.44545  23028423.1884                   23028422.6484
 -18874764.71547 -14700848.34846  21819034.3834                   21819032.2384
 -13618414.84047 -10604425.64145  22558351.0084                   22558350.1174
 -30728927.42248 -23937365.61746  20557363.7194                   20557358.7894
 -32242209.15648 -25116037.63746  21077527.1254                   21077524.9494
   -592771.45746   -450033.94143  24193933.8834                   24193933.1994
 11  8 18  0 10 30.0000000  0  8G17G10G09G12G05G02G04G30
 -30513821.36747 -23769641.42245  22725743.8524                   22725742.4574
 -26787344.66848 -20849429.18746  20868309.8444                   20868308.1484
 -15097204.00847 -11756830.15644  23036538.9144                   23036538.4494
 -18976123.23048 -14779829.00046  21799746.9064                   21799744.1764
 -13744610.85547 -10702760.08245  22534336.5944                   22534336.0124
 -30767631.95748 -23967524.97746  20549998.3284                   20549994.0124
 -32199094.84848 -25082442.07446  21085731.5234                   21085729.4064
   -725054.73046   -553111.79743  24168761.2814                   24168759.0944
 11  8 18  0 11  0.0000000  0  8G17G10G09G12G05G02G04G30
 -30493608.94547 -23753891.53145  22729590.6174                   22729588.7424
 -26836981.09448 -20888106.89146  20858864.7114                   20858862.6024
 -15054254.75047 -11723363.25444  23044711.3524                   23044711.0864
 -19077135.91447 -14858540.16046  21780524.7974                   21780522.0554
 -13870603.21547 -10800935.84445  22510360.8754                   22510360.0984
 -30805999.52748 -23997421.76646  20542697.5164                   20542692.5594
 -32155754.98448 -25048670.75846  21093978.9224                   21093976.3134
   -857156.74646   -656048.40643  24143622.7664                   24143620.8594
 11  8 18  0 11 30.0000000  0  8G17G10G09G12G05G02G04G30
 -30473251.22346 -23738028.43045  22733464.2424                   22733462.8594
 -26886004.08648 -20926306.59846  20849535.9064                   20849533.4884
 -15011005.44547 -11689662.55544  23052941.7894                   23052941.5984
 -19177797.68047 -14936977.87546  21761369.6954                   21761367.1024
 -13996386.75847 -10898948.89545  22486425.1644                   22486423.8164
 -30844028.96548 -24027055.07046  20535460.4064                   20535455.7504
 -32112189.23048 -25014723.41446  21102268.8674                   21102267.1684
   -989072.50446   -758839.89143  24118520.5944                   24118519.4024
 11  8 18  0 12  0.0000000  0  8G17G10G09G12G05G02G04G30
 -30452747.26647 -23722051.38745  22737366.3054                   22737364.9184
 -26934411.92648 -20964026.97346  20840324.0944                   20840321.7544
 -14967458.86747 -11655730.19144  23061228.4144                   23061228.3874
 -19278106.04348 -15015140.20746  21742281.5314                   21742279.2424
 -14121957.97347 -10996796.50045  22462530.0234                   22462528.5904
 -30881720.77748 -24056425.28946  20528287.7034                   20528283.2544
 -32068399.43048 -24980601.50046  21110601.7344                   21110599.7934
  -1120798.76246   -861483.60942  24093453.1024                   24093452.0984
 11  8 18  0 12 30.0000000  0  8G17G10G09G12G05G02G04G30
 -30432094.44947 -23705958.32845  22741296.9694                   22741294.4574
 -26982200.70747 -21001264.96946  20831229.9844                   20831227.7344
 -14923615.71147 -11621566.74244  23069571.7194                   23069571.7704
 -19378055.77347 -15093023.07046  21723261.2344                   21723259.1884
 -14247311.20347 -11094474.24645  22438675.9304                   22438674.8834
 -30919073.34848 -24085531.17246  20521180.2344                   20521175.3754
 -32024385.43748 -24946304.87946  21118977.1254                   21118975.4344
  -1252330.35246   -963975.71142  24068423.0864                   24068421.7774
 11  8 18  0 13  0.0000000  0  8G17G10G09G12G05G02G04G30
 -30411295.53947 -23689751.44145  22745254.1094                   22745252.9734
 -27029373.19147 -21038022.73046  20822253.3834                   20822251.3554
 -14879483.44147 -11587178.00044  23077969.9694                   23077969.6374
 -19477648.01248 -15170627.36746  21704309.7344                   21704306.8754
 -14372447.28947 -11191982.78945  22414863.2584                   22414861.8054
 -30956091.53148 -24114376.49246  20514135.7894                   20514130.9734
 -31980153.14148 -24911838.15646  21127394.6024                   21127392.8754
  -1383668.25246  -1066316.81643  24043430.5784                   24043429.2664
 11  8 18  0 13 30.0000000  0  8G17G10G09G12G05G02G04G30
 -30390347.12947 -23673428.05945  22749241.1414                   22749239.7704
 -27075925.68747 -21074297.37946  20813394.6094                   20813392.6954
 -14835062.63747 -11552564.45744  23086422.7274                   23086422.3714
 -19576877.68748 -15247949.15246  21685426.7584                   21685424.3554
 -14497360.98047 -11289318.04745  22391092.6254                   22391091.6254
 -30992773.47748 -24142959.81246  20507155.4384                   20507150.9144
 -31935702.29348 -24877201.13746  21135852.7974                   21135851.2074
  -1514806.99646  -1168502.81643  24018476.3284                   24018475.0744
 11  8 18  0 14  0.0000000  0  8G17G10G09G12G05G02G04G30
 -30369246.15647 -23656985.78545  22753257.2664                   22753254.2704
 -27121854.55148 -21110086.08646  20804654.5554                   20804652.6484
 -14790354.44547 -11517726.93044  23094930.1254                   23094929.9344
 -19675739.94548 -15324984.62546  21666613.9304                   21666611.1884
 -14622046.70347 -11386475.66845  22367366.1804                   22367364.7504
 -31029117.73048 -24171279.98846  20500239.2504                   20500234.4534
 -31891032.97748 -24842393.89146  21144353.5394                   21144351.6024
  -1645741.66846  -1270529.72743  23993560.0314                   23993558.6884
 11  8 18  0 14 30.0000000  0  8G17G10G09G12G05G02G04G30
 -30347994.05147 -23640425.75045  22757300.8364                   22757299.3984
 -27167159.85548 -21145388.91046  20796033.9454                   20796031.3484
 -14745363.66847 -11482669.24244  23103491.4384                   23103491.6684
 -19774233.56648 -15401732.84846  21647871.3594                   21647868.6844
 -14746502.97347 -11483454.48845  22343682.2504                   22343680.5634
 -31065126.91048 -24199339.07446  20493386.8984                   20493382.2304
 -31846148.65648 -24807419.10246  21152894.3754                   21152892.7774
  -1776470.82046  -1372396.57043  23968683.0314                   23968682.0394
 11  8 18  0 15  0.0000000  0  8G17G10G09G12G05G02G04G30
 -28751172.10247 -22396148.91445  23061166.1884                   23061163.9844
 -25636420.85948 -19952605.25846  21087323.4224                   21087321.3404
 -13124676.89146 -10219796.48844  23411898.2424                   23411898.1024
 -18296934.11748 -14250590.36346  21928991.6484                   21928989.4024
 -13295304.02347 -10352650.02345  22619836.4144                   22619835.1174
 -29525382.38748 -22999538.14146  20786390.5314                   20786385.6684
 -30225634.71948 -23544680.96146  21461268.0634                   21461266.5354
   -331568.93447   -246498.91444  24243638.7504                   24243638.1764
 11  8 18  0 15 30.0000000  0  9G17G10G09G12G05G02G04G30G25
 -28729620.34447 -22379355.37545  23065267.1254                   23065266.0164
 -25680481.31247 -19986938.05946  21078939.0004                   21078936.7704
 -13079136.38746 -10184310.44544  23420564.5164                   23420564.2424
 -18394688.02348 -14326762.18746  21910390.0864                   21910386.9614
 -13419297.23447 -10449268.01245  22596240.8134                   22596239.7774
 -29560729.37148 -23027081.22746  20779664.2424                   20779659.7074
 -30180332.10247 -23509380.21946  21469889.2194                   21469887.0784
   -461883.95347   -348043.01244  24218841.0394                   24218840.1334
   1384835.93457   1091010.10254  24794670.0704                   24794671.2304
 11  8 18  0 16  0.0000000  0  9G17G10G09G12G05G02G04G30G25
 -28707925.25447 -22362450.16045  23069395.5944                   23069394.5354
 -25723925.37947 -20020790.57046  21070672.1094                   21070670.0704
 -13033333.83646 -10148620.19944  23429281.0004                   23429280.6804
 -18492076.21548 -14402649.03546  21891857.5084                   21891855.0124
 -13543062.30147 -10545708.22746  22572689.7034                   22572688.1764
 -29595754.45748 -23054373.49646  20772999.3984                   20772994.3874
 -30134831.41447 -23473925.14846  21478547.8204                   21478545.6134
   -591995.36747   -449428.50044  24194081.3284                   24194079.7584
   1254667.61347    989580.29344  24769899.8054                   24769901.7304
 11  8 18  0 16 30.0000000  0  9G17G10G09G12G05G02G04G30G25
 -28686094.03147 -22345438.83645  23073550.0394                   23073548.5664
 -25766759.68048 -20054167.92246  21062520.6644                   21062518.6214
 -12987280.21947 -10112734.32444  23438045.3914                   23438043.9964
 -18589103.37148 -14478254.55946  21873393.8444                   21873390.9264
 -13666603.67247 -10641974.14845  22549180.3444                   22549178.7974
 -29630466.26248 -23081421.64847  20766393.9694                   20766388.9304
 -30089142.66448 -23438323.52346  21487241.7814                   21487239.6564
   -721908.10247   -550659.13344  24169359.6564                   24169358.6094
   1124601.08647    888229.82044  24745149.6094                   24745151.0514
 11  8 18  0 17  0.0000000  0  9G17G10G09G12G05G02G04G30G25
 -28664119.82447 -22328316.12545  23077731.7194                   23077730.5314
 -25808977.08648 -20087064.58246  21054487.1804                   21054485.1024
 -12940972.71547 -10076650.62144  23446856.1564                   23446855.6684
 -18685761.25447 -14553572.34846  21855000.3444                   21854997.5704
 -13789912.66047 -10738058.98046  22525715.3284                   22525713.5554
 -29664859.73448 -23108221.75446  20759849.0004                   20759844.0864
 -30043261.87948 -23402572.27046  21495972.8364                   21495970.9104
   -851613.21547   -651727.97344  24144676.9534                   24144676.1174
    994644.91047    786965.30544  24720419.2584                   24720420.8834
 11  8 18  0 17 30.0000000  0  9G17G10G09G12G05G02G04G30G25
 -28641998.80147 -22311078.98845  23081940.7504                   23081938.8094
 -25850573.09448 -20119477.03946  21046571.2274                   21046569.7034
 -12894411.27747 -10040369.02044  23455716.3594                   23455716.1254
 -18782043.81248 -14628597.67646  21836678.5864                   21836675.6334
 -13912982.59847 -10833957.55145  22502295.7274                   22502294.1134
 -29698932.12948 -23134771.66047  20753364.7584                   20753360.2544
 -29997187.39848 -23366670.07046  21504739.9694                   21504738.3444
   -981104.27746   -752630.02744  24120035.8134                   24120034.9344
    864805.16446    685791.55943  24695711.5634                   24695712.6214
 11  8 18  0 18  0.0000000  0  9G17G10G09G12G05G02G04G30G25
 -28619726.93447 -22293724.30145  23086179.1644                   23086177.5664
 -25891543.82048 -20151402.26246  21038775.0474                   21038773.1174
 -12847596.60246 -10003890.11744  23464624.5944                   23464624.9184
 -18877945.18447 -14703325.97346  21818428.9694                   21818426.3834
 -14035807.64547 -10929665.28545  22478922.9224                   22478921.5314
 -29732681.76648 -23161070.06646  20746942.8134                   20746937.8674
 -29950918.74648 -23330616.58646  21513544.8594                   21513543.3484
  -1110375.94546   -853361.14843  24095436.8914                   24095434.3014
    735087.07846    584712.56643  24671027.2424                   24671027.0634
 11  8 18  0 18 30.0000000  0  9G17G10G09G12G05G02G04G30G25
 -28597303.38347 -22276251.42244  23090445.5164                   23090444.2154
 -25931887.50048 -20182838.86346  21031098.0634                   21031096.0004
 -12800530.79747  -9967215.54744  23473582.0864                   23473581.6914
 -18973462.61348 -14777755.10546  21800252.8134                   21800250.0004
 -14158383.73047 -11025179.03545  22455597.1334                   22455595.4104
 -29766108.54348 -23187116.90246  20740581.8054                   20740577.1414
 -29904457.24248 -23294412.82446  21522386.2274                   21522384.3364
  -1239424.19546   -953918.13743  24070878.7894                   24070877.7504
    605494.14846    483731.07843  24646366.5784                   24646366.0124
 11  8 18  0 19  0.0000000  0  9G17G10G09G12G05G02G04G30G25
 -28574725.73446 -22258658.50444  23094741.8984                   23094740.5984
 -25971601.62548 -20213784.90646  21023540.6884                   21023538.5824
 -12753215.75447  -9930346.74244  23482585.9614                   23482585.7074
 -19068591.53948 -14851881.51246  21782150.1414                   21782147.3914
 -14280705.98847 -11120495.00045  22432319.7194                   22432318.5204
 -29799212.02348 -23212911.81246  20734282.6954                   20734277.8524
 -29857803.22348 -23258059.05946  21531264.1024                   21531262.3594
  -1368244.63346  -1054297.69943  24046366.3204                   24046362.9144
    476030.44946    382850.28943  24621730.1644                   24621730.3874
 11  8 18  0 19 30.0000000  0  9G17G10G09G12G05G02G04G30G25
 -28551993.81247 -22240945.37945  23099068.1724                   23099066.6414
 -26010686.12148 -20244240.34446  21016103.0234                   21016100.7974
 -12705655.93047  -9893287.19544  23491635.8674                   23491635.8834
 -19163330.46147 -14925704.02046  21764122.0394                   21764119.4494
 -14402773.07847 -11215612.14145  22409091.2894                   22409090.1604
 -29831994.16448 -23238456.32446  20728043.9694                   20728039.4964
 -29810959.88348 -23221557.77746  21540178.3914                   21540176.3284
  -1496835.26246  -1154498.18042  24021895.3674                   24021892.4384
    346697.62946    282071.56343  24597118.3054                   24597118.6454
 11  8 18  0 20  0.0000000  0  9G17G10G09G12G05G02G04G30G25
 -28529105.78946 -22223110.60545  23103423.4694                   23103422.2114
 -26049139.16048 -20274203.71946  21008785.5394                   21008783.6054
 -12657853.45347  -9856038.56244  23500732.7664                   23500732.3594
 -19257675.63348 -14999219.71546  21746168.6884                   21746165.6684
 -14524580.43047 -11310526.88345  22385912.1724                   22385910.9804
 -29864454.34048 -23263749.95746  20721867.3364                   20721862.7624
 -29763928.00848 -23184909.56646  21549128.1484                   21549126.1134
  -1625192.22346  -1254516.57443  23997469.4924                   23997467.7114
    217499.40646    181397.71143  24572532.6954                   24572534.3714
 11  8 18  0 20 30.0000000  0  9G17G10G09G12G05G02G04G30G25
 -28506061.30547 -22205153.91045  23107809.7504                   23107807.6214
 -26086959.27048 -20303673.90646  21001588.9304                   21001586.4304
 -12609811.28947  -9818603.17644  23509874.5394                   23509874.7584
 -19351624.28947 -15072426.43446  21728290.5164                   21728287.4774
 -14646124.67647 -11405236.60545  22362782.4224                   22362781.0634
 -29896593.30148 -23288793.28946  20715751.5864                   20715746.8914
 -29716709.52748 -23148115.97746  21558113.2584                   21558111.9534
  -1753312.16846  -1354350.26643  23973089.2114                   23973087.2584
     88438.72346     80831.06343  24547973.5004                   24547974.8484
 11  8 18  0 21  0.0000000  0  9G17G10G09G12G05G02G04G30G25
 -28482859.13347 -22187074.34045  23112224.4614                   23112222.9654
 -26124145.64848 -20332650.28146  20994512.3834                   20994510.1604
 -12561532.53546  -9780983.43044  23519061.6414                   23519062.0984
 -19445173.71548 -15145322.08246  21710488.7894                   21710486.0984
 -14767402.76247 -11499738.93045  22339704.6024                   22339703.1254
 -29928412.45348 -23313587.41446  20709696.3444                   20709691.7734
 -29669306.24248 -23111178.36746  21567134.1724                   21567131.9184
  -1881192.09446  -1453996.94143  23948755.1174                   23948752.6294
    -40481.75846    -19626.39144  24523440.9694                   24523441.7894
 11  8 18  0 21 30.0000000  0  9G17G10G09G12G05G02G04G30G25
 -28459499.34447 -22168871.94945  23116669.6564                   23116667.9224
 -26160698.43448 -20361132.95346  20987556.1884                   20987554.5664
 -12513021.57846  -9743182.76244  23528293.3444                   23528293.2624
 -19538322.21147 -15217905.30546  21692763.5784                   21692760.4964
 -14888412.13747 -11594031.89145  22316677.3364                   22316675.5394
 -29959913.08647 -23338133.35246  20703701.9614                   20703697.3714
 -29621721.12548 -23074099.07046  21576189.2974                   21576187.0784
  -2008829.88746  -1553454.94143  23924465.8054                   23924463.7034
   -169260.17247   -119973.13744  24498935.1094                   24498936.3364
 11  8 18  0 22  0.0000000  0  9G17G10G09G12G05G02G04G30G25
 -28435979.95347 -22150545.20745  23121145.4844                   23121143.7974
 -26196614.93448 -20389119.80946  20980721.8284                   20980719.3794
 -12464280.33647  -9705202.63744  23537568.3754                   23537568.0234
 -19631065.62548 -15290172.89146  21675114.9534                   21675111.7344
 -15009148.71547 -11688112.27045  22293701.8054                   22293700.0824
 -29991094.60948 -23362430.62946  20697768.3914                   20697763.9064
 -29573954.68748 -23036878.49646  21585278.7194                   21585276.8834
  -2136221.16047  -1652720.86743  23900224.2274                   23900221.3554
   -297892.45347   -220206.03144  24474456.9774                   24474458.5664
 11  8 18  0 22 30.0000000  0  9G17G10G09G12G05G02G04G30G25
 -28412301.45347 -22132094.46145  23125651.2734                   23125649.8404
 -26231895.73448 -20416611.32046  20974008.2974                   20974006.2034
 -12415313.19147  -9667046.50444  23546886.7664                   23546886.5594
 -19723402.75847 -15362123.89546  21657543.3984                   21657540.4534
 -15129610.67647 -11781978.65645  22270778.6334                   22270776.9144
 -30021959.56648 -23386481.22746  20691894.9224                   20691890.2854
 -29526010.42248 -22999519.35246  21594402.5944                   21594400.3874
  -2263364.31246  -1751793.45744  23876028.8674                   23876027.2854
   -426377.33647   -320324.05144  24450007.2194                   24450008.4454
 11  8 18  0 23  0.0000000  0  9G17G10G09G12G05G02G04G30G25
 -28388463.35547 -22113519.38745  23130188.0864                   23130185.9574
 -26266540.41448 -20443607.14146  20967415.2734                   20967413.0234
 -12366123.62546  -9628717.03544  23556247.2034                   23556246.8164
 -19815331.30147 -15433756.52746  21640050.1804                   21640046.8984
 -15249795.05947 -11875628.75846  22247908.5164                   22247906.3794
 -30052509.15248 -23410286.09446  20686081.4844                   20686076.6054
 -29477890.17647 -22962023.07845  21603559.6484                   21603557.7464
  -2390256.64547  -1850670.57844  23851882.6884                   23851881.4534
   -554712.41447   -420325.37145  24425585.6174                   24425587.5474
 11  8 18  0 23 30.0000000  0  9G17G10G09G12G05G02G04G30G25
 -28364463.32047 -22094818.09445  23134754.7504                   23134753.0124
 -26300546.73048 -20470105.55146  20960944.4304                   20960942.3524
 -12316713.40647  -9590215.64144  23565649.9844                   23565649.2504
 -19906846.90647 -15505067.39146  21622635.6414                   21622633.0664
 -15369697.25047 -11969058.96546  22225091.4614                   22225089.9104
 -30082742.60547 -23433844.61346  20680328.4144                   20680323.6954
 -29429594.57048 -22924390.16445  21612749.6884                   21612748.0594
  -2516893.54347  -1949348.61344  23827785.3054                   23827782.8834
   -682893.31247   -520206.54745  24401194.1644                   24401195.1564
 11  8 18  0 24  0.0000000  0  9G17G10G09G12G05G02G04G30G25
 -28340302.21547 -22075991.30145  23139352.2814                   23139350.3984
 -26333915.68448 -20496107.31646  20954594.2504                   20954592.0004
 -12267087.17646  -9551545.94144  23575092.7734                   23575092.7544
 -19997948.65647 -15576055.76246  21605299.2664                   21605296.6724
 -15489315.68747 -12062268.06646  22202328.9454                   22202327.0744
 -30112662.31248 -23457158.65646  20674634.7034                   20674629.8834
 -29381126.81648 -22886623.12145  21621972.7034                   21621971.0274
  -2643273.51647  -2047826.47744  23803735.2034                   23803733.4574
   -810918.83247   -619966.65645  24376831.5234                   24376833.0634
 11  8 18  0 24 30.0000000  0  9G17G10G09G12G05G02G04G30G25
 -28315976.72347 -22057036.42645  23143980.8444                   23143979.4804
 -26366643.92248 -20521609.81246  20948366.3674                   20948364.1054
 -12217245.98847  -9512708.71544  23584577.8444                   23584578.2114
 -20088631.86347 -15646717.99246  21588042.8524                   21588040.1914
 -15608644.77347 -12155251.69545  22179621.2034                   22179620.0744
 -30142266.80947 -23480227.07847  20669001.0394                   20668996.6374
 -29332486.65248 -22848721.70745  21631228.8524                   21631227.0514
  -2769391.25847  -2146099.93744  23779735.6884                   23779733.9694
   -938783.98847   -719601.82445  24352499.0704                   24352500.5784
 11  8 18  0 25  0.0000000  0  9G17G10G09G12G05G02G04G30G25
 -28291487.83647 -22037954.25044  23148641.2424                   23148639.5984
 -26398732.13747 -20546613.59446  20942260.1484                   20942258.3484
 -12167194.66447  -9473707.77744  23594102.5554                   23594102.6804
 -20178895.21147 -15717053.06646  21570866.3204                   21570863.3674
 -15727682.97347 -12248008.66046  22156969.4224                   22156967.4924
 -30171558.58247 -23503051.82047  20663427.1174                   20663422.8364
 -29283677.52348 -22810688.64545  21640516.8524                   21640515.3874
  -2895245.25046  -2244167.91043  23755785.6024                   23755784.8594
  -1066487.62947   -819111.12544  24328197.8054                   24328199.6214
 11  8 18  0 25 30.0000000  0  9G17G10G09G12G05G02G04G30G25
 -28266834.44947 -22018743.83244  23153332.6414                   23153330.7464
 -26430179.16848 -20571117.75846  20936276.0944                   20936273.7344
 -12116935.91847  -9434545.19944  23603666.1254                   23603665.9494
 -20268735.83247 -15787058.75046  21553770.5004                   21553767.6954
 -15846426.52347 -12340536.03546  22134372.6484                   22134371.3594
 -30200538.32048 -23525633.42646  20657912.6414                   20657907.7234
 -29234701.07048 -22772525.19145  21649836.8834                   21649834.8094
  -3020832.28546  -2342027.83243  23731888.3204                   23731886.6884
  -1194026.61746   -918492.13743  24303927.9694                   24303929.1484
 11  8 18  0 26  0.0000000  0  9G17G10G09G12G05G02G04G30G25
 -28242018.89847 -21999407.10944  23158055.0474                   23158053.4454
 -26460987.81248 -20595124.46546  20930413.1334                   20930411.1334
 -12066476.36747  -9395226.16844  23613268.4924                   23613268.6884
 -20358154.40647 -15856735.56246  21536754.5634                   21536751.5944
 -15964876.36347 -12432834.54746  22111832.3834                   22111830.6024
 -30229209.98047 -23547974.96546  20652456.1174                   20652451.6334
 -29185562.24648 -22734235.21546  21659188.0394                   21659185.9184
  -3146152.54346  -2439679.86743  23708039.4694                   23708038.7504
  -1321401.44146  -1017745.23843  24279688.6254                   24279689.6644
 11  8 18  0 26 30.0000000  0  9G17G10G09G12G05G02G04G30G25
 -28217037.41047 -21979941.03544  23162809.6804                   23162808.1174
 -26491154.60247 -20618631.03946  20924672.6174                   20924670.5594
 -12015816.33647  -9355750.89844  23622909.0084                   23622909.0704
 -20447145.27747 -15926079.08646  21519820.1334                   21519817.0354
 -16083026.08647 -12524899.20346  22089349.0554                   22089346.9964
 -30257571.47347 -23570074.81646  20647059.2504                   20647054.4844
 -29136260.07048 -22695817.96545  21668569.6644                   21668567.6524
  -3271199.85246  -2537119.21144  23684244.5784                   23684243.4804
  -1448606.23446  -1116865.86743  24255483.1094                   24255483.5664
 11  8 18  0 27  0.0000000  0  9G17G10G09G12G05G02G04G30G25
 -28191892.01247 -21960347.26245  23167594.1954                   23167592.9414
 -26520681.77747 -20641639.20346  20919053.9844                   20919051.8404
 -11964961.71147  -9316123.99644  23632586.4534                   23632586.0594
 -20535708.77047 -15995089.59846  21502967.0394                   21502964.1764
 -16200875.55547 -12616729.89146  22066923.0864                   22066921.5004
 -30285626.77748 -23591936.08646  20641720.7114                   20641715.8754
 -29086799.32448 -22657277.15246  21677981.8364                   21677979.8594
  -3395974.20747  -2634345.87543  23660500.9384                   23660499.5274
  -1575641.19546  -1215854.16843  24231309.7114                   24231309.5704
 11  8 18  0 27 30.0000000  0  9G17G10G09G12G05G02G04G30G25
 -28166579.62147 -21940623.34844  23172410.7734                   23172409.3554
 -26549565.94547 -20664146.31646  20913557.3754                   20913555.4104
 -11913913.12947  -9276345.95744  23642300.5234                   23642300.5124
 -20623839.88747 -16063763.18046  21486196.1804                   21486193.5234
 -16318419.23847 -12708322.29746  22044555.0554                   22044554.0944
 -30313374.25848 -23613557.50047  20636440.5474                   20636435.7774
 -29037179.13748 -22618612.09846  21687424.3524                   21687422.4774
  -3520469.95346  -2731355.47743  23636809.3984                   23636808.4844
  -1702501.00846  -1314705.91843  24207168.4224                   24207168.8834
 11  8 18  0 28  0.0000000  0  9G17G10G09G12G05G02G04G30G25
 -28141098.43047 -21920767.92244  23177259.2504                   23177258.3204
 -26577805.80947 -20686151.38346  20908183.6724                   20908181.2034
 -11862672.98447  -9236418.65244  23652051.2894                   23652051.3054
 -20711535.07047 -16132097.06646  21469508.2664                   21469505.7814
 -16435652.77347 -12799673.03546  22022246.3984                   22022244.9304
 -30340814.07048 -23634939.16046  20631218.8284                   20631214.2974
 -28987400.53548 -22579823.61346  21696896.6024                   21696894.9384
  -3644683.24247  -2828144.98044  23613173.4774                   23613171.5864
  -1829182.03947  -1413418.33244  24183061.8204                   24183063.1564
 11  8 18  0 28 30.0000000  0  9G17G10G09G12G05G02G04G30G25
 -28115447.40647 -21900780.15645  23182141.1334                   23182139.5824
 -26605400.45748 -20707653.69546  20902932.3204                   20902930.3014
 -11811243.98846  -9196344.18044  23661838.4534                   23661838.1374
 -20798791.43747 -16200089.00846  21452903.9694                   21452901.1334
 -16552572.41847 -12890779.19546  21999997.1564                   21999995.1724
 -30367946.34848 -23656081.18746  20626055.7114                   20626050.9884
 -28937464.85948 -22540912.71546  21706399.3054                   21706397.0204
  -3768610.51647  -2924711.62543  23589589.9224                   23589588.5234
  -1955680.86747  -1511988.82044  24158989.9454                   24158990.4884
 11  8 18  0 29  0.0000000  0  9G17G10G09G12G05G02G04G30G25
 -28089629.13747 -21880662.05545  23187053.8834                   23187052.7584
 -26632353.01648 -20728655.66446  20897803.2734                   20897801.1804
 -11759633.08647  -9156127.94944  23671659.6724                   23671659.0514
 -20885609.96948 -16267739.78546  21436382.9454                   21436379.7234
 -16669179.13747 -12981641.50445  21977807.6174                   21977806.0594
 -30394775.80148 -23676987.23846  20620950.6414                   20620945.7584
 -28887377.45748 -22501883.60245  21715930.2274                   21715928.5124
  -3892252.37947  -3021055.88344  23566061.8914                   23566060.5704
  -2081998.37547  -1610418.00044  24134952.7194                   24134953.7934
 11  8 18  0 29 30.0000000  0  9G17G10G09G12G05G02G04G30G25
 -28063640.96147 -21860411.56245  23191999.2504                   23191998.2584
 -26658660.67648 -20749155.11346  20892797.1804                   20892795.2114
 -11707841.28147  -9115770.75044  23681514.8444                   23681514.5784
 -20971985.88748 -16335045.65646  21419945.8984                   21419943.1954
 -16785467.60247 -13072255.83246  21955679.0784                   21955676.8134
 -30421301.10948 -23697656.30946  20615902.8914                   20615898.0824
 -28837138.09848 -22462736.07445  21725490.9454                   21725488.9064
  -4015603.66047  -3117173.71144  23542589.0864                   23542587.1254
  -2208129.66847  -1708702.05944  24110951.1094                   24110951.8594
 11  8 18  0 30  0.0000000  0  9G17G10G09G12G05G02G04G30G25
 -28037482.10947 -21840028.07845  23196977.1334                   23196976.7774
 -26684323.39148 -20769152.01646  20887914.1414                   20887911.4694
 -11655871.96947  -9075275.23844  23691404.3524                   23691404.6954
 -21057916.80947 -16402004.78146  21403593.9064                   21403590.8834
 -16901434.93447 -13162619.92246  21933610.6884                   21933609.1994
 -30447523.34448 -23718089.21146  20610912.6174                   20610907.8204
 -28786748.78548 -22423471.69145  21735079.5164                   21735077.5234
  -4138661.50047  -3213062.85944  23519172.0084                   23519170.5944
  -2334072.10247  -1806838.92244  24086984.8364                   24086985.4574
 11  8 18  0 30 30.0000000  0  9G17G10G09G12G05G02G04G30G25
 -28011149.78547 -21819509.43045  23201988.6334                   23201987.4804
 -26709338.69948 -20788644.44146  20883153.6254                   20883151.6174
 -11603726.23047  -9034642.23444  23701327.7584                   23701327.9344
 -21143398.12947 -16468613.55946  21387327.1884                   21387324.3054
 -17017076.01647 -13252729.78146  21911604.7194                   21911603.1914
 -30473441.30548 -23738285.02746  20605980.8914                   20605975.5594
 -28736209.11748 -22384090.15645  21744697.0554                   21744694.7624
  -4261420.69147  -3308719.34044  23495811.3054                   23495809.5864
  -2459820.82047  -1904824.82445  24063055.3444                   24063056.7584
 11  8 18  0 31  0.0000000  0  9G17G10G09G12G05G02G04G30G25
 -27984646.50047 -21798857.58245  23207031.6564                   23207030.6804
 -26733709.57447 -20807634.71146  20878515.8204                   20878513.4224
 -11551410.60547  -8993876.87144  23711283.1644                   23711282.8284
 -21228431.22747 -16534873.06646  21371146.1254                   21371142.9344
 -17132391.08647 -13342585.62146  21889661.2894                   21889659.8554
 -30499059.63348 -23758247.35946  20601105.8364                   20601100.6954
 -28685524.08648 -22344595.35945  21754342.4384                   21754340.2814
  -4383881.62547  -3404143.38744  23472507.5784                   23472506.0044
  -2585376.27347  -2002660.11745  24039162.5394                   24039164.1954
 11  8 18  0 31 30.0000000  0  9G17G10G09G12G05G02G04G30G25
 -27957970.76247 -21778071.34845  23212108.0394                   23212107.1054
 -26757434.84447 -20826121.91446  20874001.0784                   20873998.9144
 -11498927.57447  -8952981.07044  23721270.1414                   23721270.2894
 -21313012.49247 -16600780.50446  21355050.9774                   21355048.0984
 -17247376.35247 -13432184.46146  21867780.3364                   21867778.4964
 -30524378.28548 -23777976.18446  20596287.5394                   20596283.0514
 -28634694.98448 -22304988.28545  21764014.3984                   21764012.7274
  -4506040.44947  -3499332.01244  23449262.0864                   23449260.4064
  -2710734.93047  -2100342.07444  24015307.8674                   24015309.3014
 11  8 18  0 32  0.0000000  0  9G17G10G09G12G05G02G04G30G25
 -27931122.71947 -21757150.86345  23217217.1024                   23217216.3874
 -26780514.84447 -20844106.30546  20869608.9774                   20869606.9964
 -11446280.94546  -8911957.77044  23731288.6644                   23731288.8364
 -21397140.41847 -16666334.68746  21339041.8134                   21339039.0744
 -17362029.55547 -13521524.56246  21845962.1884                   21845960.1954
 -30549399.04747 -23797472.87547  20591526.5634                   20591521.6374
 -28583724.32047 -22265270.91445  21773713.8444                   21773711.6914
  -4627895.04346  -3594283.55944  23426072.5474                   23426071.3014
  -2835894.82447  -2197869.14544  23991490.0704                   23991491.5234
 11  8 18  0 32 30.0000000  0  9G17G10G09G12G05G02G04G30G25
 -27904101.97347 -21736095.79345  23222359.1884                   23222358.2464
 -26802949.66047 -20861587.96546  20865340.0944                   20865337.6604
 -11393474.22347  -8870809.71544  23741337.6644                   23741337.4224
 -21480812.74247 -16731533.86746  21323119.4304                   21323116.3524
 -17476347.98447 -13610603.79746  21824208.2974                   21824206.4574
 -30574123.09847 -23816738.35947  20586821.2584                   20586816.6804
 -28532614.05148 -22225444.75845  21783439.6954                   21783438.1684
  -4749442.64146  -3688995.92644  23402943.3364                   23402942.0984
  -2960853.43447  -2295239.37544  23967711.4774                   23967711.9614
 11  8 18  0 33  0.0000000  0  9G17G10G09G12G05G02G04G30G25
 -27876906.12947 -21714904.30145  23227534.6094                   23227533.0044
 -26824737.51647 -20878565.50046  20861193.6254                   20861191.4774
 -11340509.22347  -8829538.31244  23751416.5634                   23751416.3284
 -21564025.30147 -16796374.78946  21307284.5864                   21307281.4924
 -17590326.80147 -13699418.40246  21802518.9454                   21802517.0204
 -30598549.86748 -23835772.21546  20582173.1564                   20582168.6414
 -28481364.33248 -22185509.91845  21793192.2664                   21793190.6564
  -4870678.51647  -3783465.37544  23379872.7344                   23379871.2894
  -3085606.31646  -2392449.31244  23943970.8914                   23943972.6334
 11  8 18  0 33 30.0000000  0  9G17G10G09G12G05G02G04G30G25
 -27849535.56647 -21693576.61344  23232742.3754                   23232741.2304
 -26845879.50048 -20895039.75846  20857170.3284                   20857168.1524
 -11287390.36747  -8788147.06244  23761524.5554                   23761524.3794
 -21646776.84047 -16860856.46146  21291537.1254                   21291534.4024
 -17703964.53947 -13787967.23046  21780893.8984                   21780892.4224
 -30622681.71547 -23854576.24646  20577581.2504                   20577576.6254
 -28429978.38748 -22145468.95345  21802970.7584                   21802969.2814
  -4991601.01247  -3877690.65244  23356862.2664                   23356860.8444
  -3210152.00046  -2489497.76644  23920271.0234                   23920271.5124
 11  8 18  0 34  0.0000000  0  9G17G10G09G12G05G02G04G30G25
 -27821988.28547 -21672111.26644  23237984.8984                   23237983.5474
 -26866373.93048 -20911009.42246  20853270.6724                   20853268.5784
 -11234119.44947  -8746637.29744  23771661.4774                   23771661.5044
 -21729063.71547 -16924976.08246  21275878.6174                   21275875.9414
 -17817256.68047 -13876246.76246  21759335.2344                   21759333.2274
 -30646517.98448 -23873149.95346  20573045.4144                   20573040.6454
 -28378456.22348 -22105321.82845  21812775.2114                   21812773.5594
  -5112205.50047  -3971668.12544  23333911.9144                   23333910.1564
  -3334486.01246  -2586381.32844  23896611.3914                   23896612.5044
 11  8 18  0 34 30.0000000  0  9G17G10G09G12G05G02G04G30G25
 -27794262.55147 -21650506.84844  23243260.2734                   23243259.7624
 -26886219.80948 -20926473.73846  20849494.0474                   20849491.7194
 -11180698.37146  -8705010.50044  23781827.5394                   23781827.3324
 -21810882.60247 -16988731.03146  21260309.1644                   21260305.8714
 -17930199.28947 -13964253.93746  21737842.9614                   21737841.3284
 -30670058.91048 -23891493.53146  20568565.7274                   20568560.6024
 -28326798.80948 -22065069.32045  21822605.2814                   21822603.6054
  -5232488.28947  -4065394.93444  23311023.2894                   23311021.1604
  -3458604.90247  -2683097.26644  23872992.3674                   23872992.9924
 11  8 18  0 35  0.0000000  0  9G17G10G09G12G05G02G04G30G25
 -27766356.98047 -21628762.30544  23248571.4534                   23248570.0474
 -26905416.14548 -20941431.92246  20845840.9844                   20845838.8674
 -11127129.52047  -8663268.59844  23792021.2034                   23792021.4654
 -21892230.02047 -17052118.59846  21244829.2274                   21244826.0004
 -18042788.55947 -14051985.78146  21716418.4064                   21716416.5044
 -30693304.28947 -23909606.80146  20564142.0004                   20564137.3404
 -28275006.93448 -22024712.03145  21832461.0704                   21832459.2464
  -5352445.23047  -4158867.83644  23288195.3444                   23288194.3484
  -3582504.70347  -2779642.48444  23849415.1644                   23849415.8134
 11  8 18  0 35 30.0000000  0  9G17G10G09G12G05G02G04G30G25
 -27738271.18747 -21606877.32844  23253916.4064                   23253914.7774
 -26923963.30148 -20955884.23046  20842311.6334                   20842309.1724
 -11073416.95346  -8621414.71944  23802242.4454                   23802242.6644
 -21973104.37948 -17115137.55946  21229439.3524                   21229436.1684
 -18155021.60547 -14139440.05146  21695060.5004                   21695058.8284
 -30716255.75448 -23927491.05146  20559774.5164                   20559769.9964
 -28223082.79748 -21984251.69145  21842342.2274                   21842340.2584
  -5472073.93047  -4252084.93744  23265431.4224                   23265429.2734
  -3706183.21547  -2876015.30144  23825879.5944                   23825880.1914
 11  8 18  0 36  0.0000000  0  9G17G10G09G12G05G02G04G30G25
 -27710005.41447 -21584852.07445  23259295.3284                   23259293.0274
 -26941862.40648 -20969831.57046  20838905.7274                   20838903.5164
 -11019564.82046  -8579452.08244  23812490.8524                   23812489.8634
 -22053504.30548 -17177786.82446  21214139.7974                   21214136.5314
 -18266897.23447 -14226615.80146  21673771.5084                   21673769.4804
 -30738915.36747 -23945147.88346  20555462.6414                   20555457.7664
 -28171029.41047 -21943690.62545  21852247.1024                   21852245.2734
  -5591372.54347  -4345044.86344  23242729.6254                   23242727.4224
  -3829638.78147  -2972214.41444  23802387.2504                   23802387.6414
 11  8 18  0 36 30.0000000  0  9G17G10G09G12G05G02G04G30G25
 -27681559.37947 -21562686.36745  23264707.8914                   23264706.3284
 -26959113.31648 -20983273.82446  20835622.7814                   20835620.5824
 -10965576.32447  -8537383.14844  23822763.9454                   23822764.6024
 -22133427.11348 -17240064.32846  21198931.0474                   21198927.9104
 -18378412.20747 -14313510.52746  21652550.9774                   21652548.8134
 -30761284.21147 -23962578.14546  20551206.0394                   20551200.9774
 -28118848.23848 -21903029.98845  21862177.2114                   21862175.4024
  -5710337.93047  -4437745.10944  23220090.8914                   23220088.9774
  -3952868.43047  -3068237.45744  23778936.7424                   23778937.4774
 11  8 18  0 37  0.0000000  0  9G17G10G09G12G05G02G04G30G25
 -27652929.78547 -21540377.64844  23270155.7584                   23270154.9224
 -26975713.58648 -20996209.07846  20832463.6334                   20832461.2934
 -10911452.23447  -8495208.59444  23833063.7424                   23833063.5864
 -22212868.49648 -17301966.68446  21183813.5784                   21183810.3204
 -18489560.89147 -14400119.82446  21631400.0554                   21631397.9574
 -30783361.00048 -23979780.82446  20547004.7194                   20546999.9534
 -28066538.60247 -21862269.25045  21872131.0004                   21872129.3094
  -5828964.81647  -4530181.58244  23197516.6094                   23197514.5164
  -4075867.03947  -3164080.50444  23755531.0784                   23755531.7344
 11  8 18  0 37 30.0000000  0  9G17G10G09G12G05G02G04G30G25
 -27624113.19947 -21517923.19144  23275639.5944                   23275637.4734
 -26991660.77048 -21008635.44546  20829429.2274                   20829426.9924
 -10857192.79747  -8452928.57844  23843388.9304                   23843388.8404
 -22291823.43048 -17363489.99246  21168788.8754                   21168785.9064
 -18600337.91447 -14486439.52746  21610319.5704                   21610317.9454
 -30805144.03948 -23996754.61346  20542859.5084                   20542854.6334
 -28014099.64148 -21821407.73445  21882110.0704                   21882108.1214
  -5947247.43047  -4622349.77344  23175008.0704                   23175006.2464
  -4198629.07447  -3259739.20344  23732170.5944                   23732170.6994
 11  8 18  0 38  0.0000000  0  9G17G10G09G12G05G02G04G30G25
 -27595116.01647 -21495327.98044  23281157.2114                   23281155.3674
 -27006961.60548 -21020558.16446  20826517.5634                   20826514.8674
 -10802808.43446  -8410551.21944  23853737.2664                   23853738.5044
 -22370296.50848 -17424637.83646  21153856.3364                   21153852.8164
 -18710747.36347 -14572472.79746  21589309.6724                   21589307.9734
 -30826641.02348 -24013505.49246  20538768.7424                   20538763.8794
 -27961539.76647 -21780452.01245  21892111.6804                   21892110.4884
  -6065189.73447  -4714252.81644  23152564.7274                   23152562.4924
  -4321158.55147  -3355216.73045  23708853.9384                   23708853.9494
 11  8 18  0 38 30.0000000  0  9G17G10G09G12G05G02G04G30G25
 -27565935.33647 -21472589.85944  23286710.6174                   23286709.1174
 -27021614.12948 -21031975.70346  20823729.1414                   20823727.0274
 -10748299.82447  -8368077.06244  23864110.5004                   23864110.6764
 -22448283.24648 -17485406.72346  21139015.5864                   21139012.6134
 -18820784.12147 -14658215.66446  21568370.4144                   21568367.8674
 -30847851.26648 -24030032.93046  20534732.5864                   20534727.7624
 -27908858.64148 -21739401.80145  21902136.7194                   21902135.4804
  -6182786.65646  -4805886.71144  23130186.3134                   23130184.7274
  -4443450.60947  -3450509.21944  23685582.3134                   23685583.1684
 11  8 18  0 39  0.0000000  0  9G17G10G09G12G05G02G04G30G25
 -27536570.52347 -21449708.19144  23292299.1804                   23292296.9614
 -27035618.46947 -21042888.16046  20821064.5164                   20821062.2974
 -10693670.63346  -8325508.93744  23874506.3054                   23874506.3954
 -22525781.25848 -17545794.77046  21124268.3834                   21124265.4304
 -18930445.00447 -14743665.64146  21547501.9694                   21547500.2034
 -30868775.34847 -24046337.39146  20530751.0004                   20530746.1454
 -27856058.02047 -21698258.48845  21912184.1024                   21912182.6764
  -6300035.34846  -4897249.26244  23107874.9774                   23107873.2234
  -4565502.49647  -3545614.55545  23662356.5234                   23662356.9384
 11  8 18  0 39 30.0000000  0  9G17G10G09G12G05G02G04G30G25
 -27507021.83647 -21426683.29345  23297921.2504                   23297920.0984
 -27048975.91048 -21053296.55546  20818522.8914                   20818520.2114
 -10638924.64547  -8282849.79744  23884924.3754                   23884924.1564
 -22602789.44948 -17605801.15246  21109614.3444                   21109611.1724
 -19039728.50847 -14828821.56646  21526706.3364                   21526704.5594
 -30889415.20348 -24062420.39146  20526823.8524                   20526818.4774
 -27803140.52748 -21657024.09445  21922254.6884                   21922252.8164
  -6416933.60947  -4988338.73844  23085629.3284                   23085627.8594
  -4687312.23847  -3640531.18444  23639176.7664                   23639178.0704
 11  8 18  0 40  0.0000000  0  9G17G10G09G12G05G02G04G30G25
 -27477287.38747 -21403513.62145  23303579.6954                   23303578.8754
 -27061685.12148 -21063199.82046  20816103.7114                   20816101.6174
 -10584063.56647  -8240101.01244  23895363.5634                   23895364.2384
 -22679303.91448 -17665422.81646  21095054.0234                   21095050.7154
 -19148630.16847 -14913679.94146  21505982.9144                   21505980.9264
 -30909770.91448 -24078281.96546  20522950.0314                   20522944.8674
 -27750106.26247 -21615698.71545  21932346.5314                   21932344.6454
  -6533477.07047  -5079151.77044  23063452.4144                   23063450.4844
  -4808875.50047  -3735255.73044  23616044.2974                   23616045.0864
 11  8 18  0 40 30.0000000  0  9G17G10G09G12G05G02G04G30G25
 -27447367.93746 -21380199.82844  23309272.1884                   23309271.9534
 -27073748.13748 -21072599.55546  20813808.4924                   20813806.6174
 -10529092.57846  -8197266.55144  23905823.4924                   23905825.1454
 -22755324.41048 -17724659.56246  21080587.4614                   21080584.4534
 -19257149.16848 -14998240.14846  21485332.3674                   21485330.5314
 -30929845.08648 -24093924.15646  20519130.1094                   20519124.9344
 -27696958.70348 -21574285.04345  21942460.0084                   21942458.7664
  -6649664.67247  -5169687.50444  23041342.6564                   23041341.0204
  -4930191.40247  -3829787.53544  23592958.1804                   23592959.2154
 11  8 18  0 41  0.0000000  0  9G17G10G09G12G05G02G04G30G25
 -27417259.26247 -21356738.59844  23315002.6334                   23315002.0474
 -27085161.23048 -21081492.87146  20811636.6254                   20811634.4924
 -10474010.69946  -8154345.68444  23916305.2584                   23916306.8094
 -22830844.32048 -17783506.24646  21066216.7894                   21066213.5394
 -19365278.05547 -15082496.36746  21464755.8674                   21464754.0274
 -30949634.48448 -24109344.43746  20515363.9064                   20515359.0864
 -27643695.29347 -21532781.11345  21952595.4534                   21952594.5124
  -6765489.26247  -5259940.35944  23019301.8444                   23019299.7234
  -5051252.90247  -3924121.12945  23569921.3594                   23569921.8954
 11  8 18  0 41 30.0000000  0  9G17G10G09G12G05G02G04G30G25
 -27386964.12546 -21333132.04744  23320767.7424                   23320767.2234
 -27095927.99248 -21089882.54746  20809587.6884                   20809585.6174
 -10418824.42246  -8111343.53943  23926807.6094                   23926808.4964
 -22905865.48448 -17841964.29346  21051940.6334                   21051937.5274
 -19473017.36748 -15166449.02346  21444254.0004                   21444251.9064
 -30969143.96148 -24124546.60546  20511651.3914                   20511646.8714
 -27590321.30148 -21491191.00845  21962752.7114                   21962751.0274
  -6880951.44546  -5349910.85544  22997330.2034                   22997327.8594
  -5172060.77347  -4018257.07444  23546932.1484                   23546932.4224
 11  8 18  0 42  0.0000000  0  9G17G10G09G12G05G02G04G30G25
 -27356482.16447 -21309379.91045  23326569.1024                   23326567.2114
 -27106049.23048 -21097769.21546  20807661.5004                   20807659.4454
 -10363537.58247  -8068262.96144  23937328.5944                   23937328.8134
 -22980386.10248 -17900032.30946  21037759.9064                   21037756.5314
 -19580365.53948 -15250096.89546  21423826.2034                   21423824.2304
 -30988374.75048 -24139531.61346  20507991.9454                   20507987.0704
 -27536838.77747 -21449516.33645  21972929.6484                   21972928.2154
  -6996048.69546  -5439596.96544  22975428.0004                   22975426.4224
  -5292612.57447  -4112193.48845  23523991.8524                   23523992.6024
 11  8 18  0 42 30.0000000  0  9G17G10G09G12G05G02G04G30G25
 -27325812.07447 -21285481.16844  23332404.6334                   23332403.9264
 -27115524.60548 -21105152.61346  20805858.6334                   20805856.2894
 -10308152.24247  -8025105.66044  23947868.3134                   23947869.0274
 -23054403.02048 -17957707.82846  21023674.8754                   21023671.7234
 -19687318.43448 -15333436.76246  21403473.6484                   21403471.6524
 -31007327.27048 -24154299.79346  20504385.5784                   20504380.4884
 -27483248.67247 -21407757.85245  21983127.2894                   21983125.7304
  -7110777.29746  -5528995.86744  22953595.6724                   22953593.8634
  -5412904.73447  -4205927.57444  23501100.6484                   23501101.1684
 11  8 18  0 43  0.0000000  0  9G17G10G09G12G05G02G04G30G25
 -27294949.41047 -21261432.39145  23338278.0474                   23338277.0864
 -27124350.73048 -21112030.10946  20804179.1954                   20804176.7974
 -10252668.02347  -7981871.28944  23958426.2894                   23958426.8594
 -23127910.28148 -18014986.20746  21009686.7424                   21009683.7734
 -19793869.48048 -15416463.49246  21383197.6254                   21383195.6214
 -31025998.68748 -24168848.92246  20500832.3524                   20500827.3714
 -27429548.59047 -21365913.65245  21993346.2814                   21993344.6604
  -7225130.51647  -5618102.22744  22931835.1954                   22931833.2384
  -5532930.60547  -4299454.14844  23478260.4694                   23478260.9414
 11  8 18  0 43 30.0000000  0  9G17G10G09G12G05G02G04G30G25
 -27263899.60247 -21237237.78544  23344186.1724                   23344185.6294
 -27132534.22748 -21118406.85246  20802621.8674                   20802619.6844
 -10197094.08646  -7938567.00044  23969001.5314                   23969002.4224
 -23200911.62548 -18071870.36746  20995795.5234                   20995792.0434
 -19900022.08648 -15499179.75046  21362997.8834                   21362995.5904
 -31044396.16448 -24183184.60246  20497331.2734                   20497326.2624
 -27375746.34847 -21323989.84845  22003584.5864                   22003582.9184
  -7339111.62547  -5706918.63744  22910145.6884                   22910143.1604
  -5652693.52047  -4392775.84044  23455470.7504                   23455470.9844
 11  8 18  0 44  0.0000000  0  9G17G10G09G12G05G02G04G30G25
 -27232658.97747 -21212894.49644  23350130.6564                   23350130.5394
 -27140072.39848 -21124280.74646  20801187.3984                   20801185.0394
 -10141430.59847  -7895192.96944  23979594.5084                   23979594.8714
 -23273402.50848 -18128356.76646  20982000.5234                   20981997.3324
 -20005770.41448 -15581581.00046  21342874.0234                   21342872.1374
 -31062518.13348 -24197305.60246  20493882.9144                   20493877.7074
 -27321840.52747 -21281985.34445  22013843.1024                   22013841.0984
  -7452714.70347  -5795440.46144  22888527.1564                   22888525.8244
  -5772187.76647  -4485888.18444  23432731.6644                   23432731.3524
 11  8 18  0 44 30.0000000  0  9G17G10G09G12G05G02G04G30G25
 -25625808.93446 -19960803.60944  23655904.5634                   23655903.7974
 -25571546.01248 -19902052.38746  21099668.1804                   21099665.8714
  -8510263.20346  -6624153.52344  24289995.3364                   24289995.6604
 -21769958.57048 -16956841.99246  21268096.2584                   21268093.1524
 -18535688.43448 -14436062.51646  21622621.5634                   21622619.7274
 -29504944.96548 -22983612.21146  20790279.3284                   20790274.4384
 -25692414.90247 -20012303.06645  22323912.2584                   22323910.5084
  -5990513.44147  -4656062.81644  23166774.4144                   23166773.0474
  -4315986.83247  -3351186.10944  23709837.8834                   23709837.2544
 11  8 18  0 45  0.0000000  0  9G17G10G09G12G05G02G04G30G25
 -25594189.00046 -19936164.75844  23661921.9384                   23661920.6604
 -25577798.59848 -19906924.51646  21098477.9534                   21098476.0824
  -8454433.61346  -6580650.06644  24300620.0704                   24300619.8914
 -21841425.22348 -17012530.27746  21254496.7194                   21254493.2384
 -18640623.10248 -14517829.74646  21602652.9144                   21602650.6994
 -29522521.44948 -22997308.16446  20786934.3054                   20786929.5164
 -25638309.93447 -19970143.38745  22334208.3054                   22334206.9184
  -6103354.87947  -4743991.16044  23145302.1174                   23145300.5124
  -4434938.41047  -3443875.58644  23687201.5784                   23687201.0664
 11  8 18  0 45 30.0000000  0  9G17G10G09G12G05G02G04G30G25
 -25562379.32847 -19911378.06244  23667975.1024                   23667973.9264
 -25583410.30948 -19911297.27346  21097410.2114                   21097407.9104
  -8398526.63346  -6537086.28943  24311258.5084                   24311258.7584
 -21912377.81248 -17067817.98446  21240995.3674                   21240991.6054
 -18745148.17648 -14599277.80546  21582762.5634                   21582760.1764
 -29539828.64548 -23010794.28146  20783641.0084                   20783635.9964
 -25584109.03947 -19927908.96945  22344522.6254                   22344520.5664
  -6215812.43447  -4831620.36344  23123901.6724                   23123900.0664
  -4553615.62947  -3536351.28544  23664617.3054                   23664617.7504
 11  8 18  0 46  0.0000000  0  9G17G10G09G12G05G02G04G30G25
 -25530376.60547 -19886440.87544  23674065.1414                   23674063.7274
 -25588378.75048 -19915168.77746  21096464.7424                   21096462.5664
  -8342542.36746  -6493462.26243  24321911.0394                   24321912.5234
 -21982811.29348 -17122701.19946  21227591.7814                   21227588.7344
 -18849257.81648 -14680402.14546  21562951.1564                   21562948.9574
 -29556864.09048 -23024068.64846  20780399.2034                   20780394.2664
 -25529810.72747 -19885598.63345  22354854.7734                   22354853.1414
  -6327880.16047  -4918945.82044  23102575.4774                   23102573.9184
  -4672012.69547  -3628608.66444  23642087.1644                   23642088.2504
 11  8 18  0 46 30.0000000  0  9G17G10G09G12G05G02G04G30G25
 -25498180.91047 -19861353.34444  23680191.4304                   23680190.5664
 -25592704.86748 -19918539.76246  21095641.4534                   21095639.1644
  -8286484.71546  -6449781.09443  24332580.0234                   24332579.9654
 -22052724.31648 -17177178.86346  21214288.0704                   21214284.9804
 -18952950.02348 -14761201.21946  21543219.2734                   21543217.0434
 -29573629.41848 -23037132.54346  20777208.8594                   20777203.8524
 -25475417.12547 -19843214.04745  22365206.2344                   22365204.4064
  -6439555.80947  -5005965.74644  23081324.4614                   23081322.9264
  -4790127.41447  -3720646.03544  23619611.2504                   23619611.7544
 11  8 18  0 47  0.0000000  0  9G17G10G09G12G05G02G04G30G25
 -25465794.82446 -19836117.44944  23686353.8594                   23686353.6214
 -25596392.74248 -19921413.42246  21094939.6644                   21094937.7304
  -8230360.11746  -6406047.70743  24343259.5394                   24343259.8754
 -22122118.12548 -17231251.93746  21201082.6644                   21201079.6214
 -19056225.25448 -14841675.37146  21523566.3594                   21523564.2154
 -29590129.21148 -23049989.51246  20774069.3834                   20774064.2424
 -25420932.97747 -19800758.89545  22375573.8754                   22375571.6724
  -6550839.84047  -5092680.51644  23060147.6954                   23060146.3404
  -4907960.25447  -3812463.75844  23597188.3054                   23597188.3244
 11  8 18  0 47 30.0000000  0  9G17G10G09G12G05G02G04G30G25
 -25433213.18746 -19810729.23044  23692554.2274                   23692554.4534
 -25599438.41048 -19923786.65646  21094360.3204                   21094358.0554
  -8174167.10546  -6362261.06244  24353952.8364                   24353954.0004
 -22190986.12948 -17284915.29746  21187977.4774                   21187974.3484
 -19159076.13348 -14921818.86346  21503994.4384                   21503992.4884
 -29606359.76248 -23062636.68446  20770981.0474                   20770975.5634
 -25366355.33647 -19758230.89845  22385959.5314                   22385957.5594
  -6661724.71147  -5179084.24644  23039046.9224                   23039044.4734
  -5025503.78147  -3904056.05544  23574820.0084                   23574820.6174
 11  8 18  0 48  0.0000000  0  9G17G10G09G12G05G02G04G30G25
 -25400441.34846 -19785192.78544  23698791.4144                   23698791.1684
 -25601848.47348 -19925664.61346  21093901.6174                   21093899.1804
  -8117914.25846  -6318427.80143  24364658.0634                   24364658.3634
 -22259331.71548 -17338171.58646  21174972.0084                   21174968.5824
 -19261505.66848 -15001634.03546  21484502.7424                   21484500.3524
 -29622327.80548 -23075079.30946  20767941.9144                   20767937.1024
 -25311691.21147 -19715635.50045  22396361.8524                   22396360.3674
  -6772213.17247  -5265179.08644  23018021.5864                   23018019.9734
  -5142760.80947  -3995425.09444  23552507.2034                   23552507.2384
 11  8 18  0 48 30.0000000  0  9G17G10G09G12G05G02G04G30G25
 -25367474.98847 -19759504.76645  23705064.6804                   23705063.6724
 -25603619.29348 -19927044.45346  21093564.6954                   21093562.1054
  -8061601.28946  -6274547.68043  24375373.9304                   24375374.2664
 -22327149.57448 -17391016.64546  21162066.7424                   21162063.4574
 -19363507.60548 -15081116.01646  21465092.3754                   21465090.2774
 -29638030.85248 -23087315.45346  20764953.8984                   20764948.8244
 -25256938.71147 -19672971.25045  22406780.5394                   22406778.9494
  -6882298.77347  -5350960.01244  22997072.9924                   22997071.4734
  -5259724.89846  -4086565.89544  23530249.4224                   23530250.0084
 11  8 18  0 49  0.0000000  0  9G17G10G09G12G05G02G04G30G25
 -25334316.27746 -19733666.84444  23711374.4224                   23711373.8834
 -25604755.08648 -19927929.47746  21093348.5234                   21093346.2304
  -8005233.90246  -6230625.14843  24386099.8594                   24386100.7974
 -22394440.70748 -17443451.27346  21149261.5314                   21149257.9844
 -19465082.20748 -15160265.01646  21445763.2734                   21445761.3134
 -29653473.03548 -23099348.31246  20762015.3914                   20762010.2624
 -25202101.96147 -19630241.35245  22417216.1564                   22417214.3094
  -6991981.58647  -5436427.07444  22976200.8284                   22976199.3404
  -5376396.11747  -4177478.46944  23508047.3134                   23508047.5274
 11  8 18  0 49 30.0000000  0  9G17G10G09G12G05G02G04G30G25
 -25300966.05547 -19707679.67644  23717721.2114                   23717719.6644
 -25605257.85548 -19928321.23046  21093252.6804                   21093250.2664
  -7948816.31246  -6186663.48443  24396835.6414                   24396837.1644
 -22461204.02348 -17495474.61746  21136556.8834                   21136553.4414
 -19566227.88348 -15239079.78146  21426516.1954                   21426513.9304
 -29668656.53148 -23111179.60546  20759125.8134                   20759120.7624
 -25147183.70747 -19587447.93445  22427666.3914                   22427665.4734
  -7101259.96147  -5521578.99644  22955405.9774                   22955403.8484
  -5492772.91447  -4268161.61345  23485901.7894                   23485902.8054
 11  8 18  0 50  0.0000000  0  9G17G10G09G12G05G02G04G30G25
 -25267421.53547 -19681541.12144  23724103.9614                   23724103.3524
 -25605126.20348 -19928218.62546  21093278.1564                   21093275.4884
  -7892349.76246  -6142663.68743  24407581.5864                   24407582.7464
 -22527436.29348 -17547084.16046  21123952.9384                   21123949.9574
 -19666940.20348 -15317556.87146  21407351.1024                   21407348.7034
 -29683580.58648 -23122808.74246  20756286.1334                   20756280.9844
 -25092183.65647 -19544590.78945  22438132.5084                   22438131.2424
  -7210129.04747  -5606411.96544  22934688.8594                   22934687.0784
  -5608850.44147  -4358611.56245  23463812.9844                   23463813.2544
 11  8 18  0 50 30.0000000  0  9G17G10G09G12G05G02G04G30G25
 -25233682.93046 -19655251.33244  23730523.9384                   23730523.1174
 -25604360.91848 -19927622.28946  21093423.5944                   21093421.1914
  -7835837.56246  -6098628.27743  24418335.9844                   24418336.9064
 -22593135.47348 -17598278.31246  21111450.9774                   21111447.6724
 -19767216.75448 -15395694.39846  21388268.6564                   21388266.6454
 -29698245.95348 -23134236.30546  20753495.2894                   20753490.5234
 -25037103.22747 -19501670.99645  22448614.3134                   22448612.3164
  -7318586.12947  -5690923.91444  22914050.2344                   22914047.6844
  -5724626.04747  -4448826.27045  23441781.7344                   23441781.8284
 11  8 18  0 51  0.0000000  0  9G17G10G09G12G05G02G04G30G25
 -25199749.84846 -19628809.98844  23736980.4064                   23736980.2074
 -25602963.46548 -19926533.35246  21093689.2194                   21093687.2234
  -7779282.72346  -6054559.65643  24429097.2504                   24429097.5634
 -22658299.96148 -17649055.81246  21099050.4224                   21099047.5824
 -19867054.76648 -15473490.20746  21369270.4774                   21369268.2544
 -29712654.06248 -23145463.39146  20750753.2034                   20750748.0824
 -24981943.98447 -19458689.80945  22459110.7344                   22459108.8324
  -7426628.50847  -5775112.72744  22893490.5704                   22893488.3674
  -5840097.07447  -4538803.62145  23419807.8284                   23419809.1884
 11  8 18  0 51 30.0000000  0  9G17G10G09G12G05G02G04G30G25
 -25165619.34446 -19602214.82844  23743475.1484                   23743475.0204
 -25600932.28548 -19924950.60246  21094075.9774                   21094073.6094
  -7722686.43746  -6010458.73443  24439866.7974                   24439868.5314
 -22722925.68448 -17699413.50046  21086752.8524                   21086749.3524
 -19966449.81248 -15550940.85246  21350356.0944                   21350353.9574
 -29726804.07448 -23156489.37946  20748060.8204                   20748055.7464
 -24926705.45747 -19415646.82445  22469622.4144                   22469620.6254
  -7534251.47347  -5858974.71145  22873010.5474                   22873008.9574
  -5955258.71947  -4628539.91445  23397893.3674                   23397893.9344
 11  8 18  0 52  0.0000000  0  9G17G10G09G12G05G02G04G30G25
 -25131296.17646 -19575469.51644  23750006.9384                   23750006.5274
 -25598273.32448 -19922878.66846  21094581.9384                   21094579.6914
  -7666056.67645  -5966331.71143  24450643.8834                   24450643.8634
 -22787015.66048 -17749353.73446  21074556.7664                   21074553.8594
 -20065404.21948 -15628048.14146  21331525.6954                   21331523.4654
 -29740701.95748 -23167318.90247  20745416.0314                   20745410.9384
 -24871394.26247 -19372547.19945  22480147.6484                   22480146.0864
  -7641457.25447  -5942511.62544  22852609.6954                   22852607.2384
  -6070113.23447  -4718036.88745  23376037.5554                   23376037.5204
 11  8 18  0 52 30.0000000  0  9G17G10G09G12G05G02G04G30G25
 -25096775.04346 -19548569.97744  23756577.0474                   23756575.8404
 -25594983.23047 -19920314.94546  21095207.9064                   21095205.2854
  -7609392.15645  -5922177.60243  24461425.3914                   24461427.4184
 -22850564.30548 -17798872.14146  21062464.0634                   21062460.5084
 -20163911.17248 -15704806.75846  21312780.4144                   21312778.0004
 -29754344.62148 -23177949.55146  20742819.9224                   20742814.7934
 -24816007.14147 -19329388.41845  22490687.1174                   22490685.7194
  -7748238.52047  -6025717.75045  22832289.5554                   22832287.7034
  -6184653.34447  -4807288.86345  23354241.0474                   23354241.0664
 11  8 18  0 53  0.0000000  0  9G17G10G09G12G05G02G04G30G25
 -25062057.07046 -19521516.99644  23763183.9224                   23763182.5274
 -25591064.32848 -19917261.24246  21095953.7734                   21095951.3164
  -7552697.30546  -5877999.91844  24472215.6094                   24472216.7034
 -22913570.55548 -17847967.90247  21050474.0554                   21050471.1094
 -20261969.43748 -15781215.75046  21294120.5784                   21294118.2504
 -29767734.24248 -23188383.02346  20740272.5234                   20740266.9654
 -24760547.07847 -19286172.80945  22501240.9384                   22501239.6294
  -7854593.91847  -6108592.03945  22812051.1564                   22812048.7034
  -6298877.59047  -4896294.73845  23332504.9774                   23332505.0864
 11  8 18  0 53 30.0000000  0  9G17G10G09G12G05G02G04G30G25
 -25027144.61346 -19494312.51244  23769827.2894                   23769826.7344
 -25586520.21948 -19913720.36346  21096818.5634                   21096815.8094
  -7495977.62946  -5833802.89544  24483008.8524                   24483010.2234
 -22976035.44948 -17896641.83246  21038587.6024                   21038584.3094
 -20359579.02348 -15857275.12946  21275546.0554                   21275543.4694
 -29780874.66048 -23198622.30546  20737771.4694                   20737766.3444
 -24705018.11747 -19242903.49245  22511807.7424                   22511806.5274
  -7960523.41447  -6191134.44945  22791893.5004                   22791891.4654
  -6412785.96947  -4985054.44545  23310828.7734                   23310828.9734
 11  8 18  0 54  0.0000000  0  9G17G10G09G12G05G02G04G30G25
 -24992037.98446 -19466956.69544  23776507.6564                   23776506.9104
 -25581353.05547 -19909694.00046  21097801.7894                   21097799.5664
  -7439237.28146  -5789589.76644  24493806.0084                   24493807.6994
 -23037958.44148 -17944893.50846  21026804.0234                   21026801.0314
 -20456738.30948 -15932983.62546  21257057.1414                   21257054.7034
 -29793767.81248 -23208668.92246  20735318.0314                   20735313.0434
 -24649422.51647 -19199582.24245  22522387.3444                   22522385.9924
  -8066025.03147  -6273343.44945  22771817.0474                   22771815.1374
  -6526376.43747  -5073566.44545  23289213.3134                   23289213.8364
 11  8 18  0 54 30.0000000  0  9G17G10G09G12G05G02G04G30G25
 -24956735.35546 -19439448.16444  23783225.5474                   23783224.9964
 -25575562.33247 -19905181.73046  21098903.4384                   21098901.2154
  -7382477.63746  -5745361.59844  24504606.9844                   24504609.4654
 -23099336.10548 -17992720.25446  21015124.3054                   21015120.9304
 -20553443.42248 -16008338.22346  21238654.5314                   21238652.2734
 -29806413.57448 -23218522.77346  20732911.7194                   20732906.3404
 -24593760.21147 -19156209.02745  22532979.7584                   22532978.2704
  -8171094.51647  -6355215.73044  22751823.2584                   22751820.5704
  -6639644.76247  -5161827.41045  23267659.0864                   23267658.7074
 11  8 18  0 55  0.0000000  0  9G17G10G09G12G05G02G04G30G25
 -24921236.82846 -19411786.99643  23789980.2814                   23789980.1684
 -25569149.44548 -19900184.66046  21100123.8364                   21100121.4224
  -7325702.66846  -5701121.46544  24515411.3674                   24515413.0864
 -23160167.52748 -18040121.34846  21003548.4384                   21003544.9184
 -20649692.90648 -16083337.77746  21220338.8134                   21220336.8524
 -29818813.60248 -23228185.13347  20730551.9304                   20730546.9454
 -24538033.23847 -19112785.42645  22543584.4454                   22543582.5634
  -8275730.05547  -6436749.85945  22731911.4694                   22731909.3014
  -6752589.03947  -5249835.89544  23246166.0164                   23246166.0394
 11  8 18  0 55 30.0000000  0  9G17G10G09G12G05G02G04G30G25
 -24885541.80146 -19383972.70344  23796773.1804                   23796772.3524
 -25562115.45748 -19894703.62146  21101462.6254                   21101459.9654
  -7268914.93447  -5656871.44544  24526218.5084                   24526219.5314
 -23220450.61748 -18087095.18446  20992077.0394                   20992073.3134
 -20745483.43448 -16157979.70346  21202110.4694                   21202108.6884
 -29830968.62148 -23237656.57846  20728238.8134                   20728234.1024
 -24482242.87547 -19069312.42645  22554200.8754                   22554199.8244
  -8379928.40247  -6517943.33244  22712083.0474                   22712080.7894
  -6865206.09047  -5337589.37945  23224736.4534                   23224735.6804
 11  8 18  0 56  0.0000000  0  9G17G10G09G12G05G02G04G30G25
 -24849651.63246 -19356006.28944  23803603.1414                   23803602.2504
 -25554462.96548 -19888740.62946  21102918.9534                   21102915.9574
  -7212119.05146  -5612615.06644  24537025.5474                   24537027.4534
 -23280185.37948 -18133641.75046  20980709.8914                   20980706.6524
 -20840814.26648 -16232263.43746  21183969.7584                   21183967.3754
 -29842881.32848 -23246939.20746  20725971.8754                   20725967.3014
 -24426391.81647 -19025792.12545  22564829.0554                   22564827.3444
  -8483688.37947  -6598795.20344  22692338.0944                   22692335.7424
  -6977494.59847  -5425086.87144  23203368.0234                   23203367.7034
 11  8 18  0 56 30.0000000  0  9G17G10G09G12G05G02G04G30G25
 -24813563.27047 -19327885.51244  23810470.9774                   23810469.9144
 -25546191.23448 -19882295.11746  21104492.4304                   21104489.9574
  -7155315.81246  -5568352.93743  24547835.2664                   24547836.8244
 -23339367.94548 -18179758.03146  20969447.8594                   20969444.5904
 -20935681.10948 -16306185.61346  21165917.4614                   21165915.1644
 -29854550.28948 -23256031.90246  20723751.5864                   20723746.6214
 -24370479.20347 -18982223.87145  22575468.5474                   22575467.3324
  -8587005.24647  -6679301.80944  22672678.1644                   22672675.1484
  -7089449.80947  -5512324.62945  23182063.5784                   23182063.2734
 11  8 18  0 57  0.0000000  0  9G17G10G09G12G05G02G04G30G25
 -24777280.04747 -19299612.86744  23817375.2584                   23817373.7774
 -25537305.05548 -19875370.80946  21106183.6564                   21106181.1454
  -7098511.69946  -5524090.12944  24558645.2734                   24558646.3484
 -23398000.45748 -18225445.69946  20958290.4844                   20958287.0084
 -21030084.87148 -16379746.94146  21147952.9924                   21147950.4964
 -29865980.98048 -23264938.94546  20721576.3754                   20721571.2894
 -24314510.22747 -18938611.69145  22586119.7814                   22586117.4804
  -8689879.91847  -6759463.86344  22653100.7344                   22653099.3714
  -7201072.48847  -5599303.27345  23160822.2664                   23160822.6764
 11  8 18  0 57 30.0000000  0  9G17G10G09G12G05G02G04G30G25
 -24740797.41447 -19271184.87145  23824317.5474                   23824317.0824
 -25527801.35548 -19867965.31246  21107991.8834                   21107989.6334
  -7041705.57446  -5479825.78143  24569454.6334                   24569455.7074
 -23456077.22748 -18270700.32846  20947238.6094                   20947235.0784
 -21124018.90648 -16452942.26246  21130077.6254                   21130075.1804
 -29877169.89148 -23273657.58646  20719447.1484                   20719442.5744
 -24258482.00047 -18894953.32845  22596780.9534                   22596779.4694
  -8792305.46947  -6839275.93444  22633610.1254                   22633608.2344
  -7312355.82047  -5686017.45745  23139645.7664                   23139645.7934
 11  8 18  0 58  0.0000000  0  9G17G10G09G12G05G02G04G30G25
 -24704116.57847 -19242602.41045  23831298.2194                   23831296.9144
 -25517682.80548 -19860080.71146  21109917.7194                   21109915.2854
  -6984902.18446  -5435563.55543  24580264.7734                   24580264.6214
 -23513597.84448 -18315521.59046  20936292.9454                   20936289.6884
 -21217482.56648 -16525771.04346  21112291.9534                   21112289.7584
 -29888119.59448 -23282189.81247  20717363.5004                   20717358.5164
 -24202397.63347 -18851251.23845  22607453.9454                   22607452.1024
  -8894280.84047  -6918737.20744  22614204.7814                   22614202.3634
  -7423298.43447  -5772466.18745  23118534.4144                   23118534.2664
 11  8 18  0 58 30.0000000  0  9G17G10G09G12G05G02G04G30G25
 -24667235.70747 -19213864.10545  23838316.3914                   23838315.6024
 -25506949.34848 -19851716.97346  21111959.9774                   21111957.4924
  -6928103.25446  -5391304.73443  24591073.1254                   24591073.9654
 -23570559.93448 -18359907.62946  20925453.1884                   20925450.1844
 -21310472.28948 -16598230.52746  21094596.4694                   21094594.2734
 -29898830.09048 -23290535.65646  20715325.4534                   20715320.8834
 -24146256.92247 -18807505.23045  22618137.0084                   22618135.1884
  -8995802.27347  -6997844.77345  22594886.1174                   22594883.8014
  -7533896.55147  -5858646.48845  23097487.8444                   23097487.9614
 11  8 18  0 59  0.0000000  0  9G17G10G09G12G05G02G04G30G25
 -24630154.45347 -19184969.65644  23845371.4614                   23845372.0634
 -25495602.04348 -19842874.90646  21114119.4384                   21114117.0234
  -6871311.23446  -5347051.34843  24601880.3834                   24601881.6644
 -23626961.31248 -18403856.75446  20914720.5634                   20914717.4144
 -21402985.18048 -16670318.45746  21076992.0394                   21076990.0164
 -29909301.92648 -23298695.52746  20713332.7274                   20713327.6724
 -24090060.80547 -18763716.05944  22628830.7664                   22628828.7424
  -9096866.49647  -7076596.06645  22575654.2274                   22575651.8634
  -7644146.86347  -5944555.76245  23076508.1804                   23076508.3754
 11  8 18  0 59 30.0000000  0  9G17G10G09G12G05G02G04G30G25
 -24592874.96947 -19155920.75044  23852466.2504                   23852465.4654
 -25483645.19548 -19833557.87546  21116394.6644                   21116392.2304
  -6814531.91446  -5302807.85543  24612685.4064                   24612686.5124
 -23682803.53548 -18447370.17646  20904094.1564                   20904090.9654
 -21495022.02748 -16742035.44546  21059478.0634                   21059475.6524
 -29919539.05948 -23306672.50447  20711384.6024                   20711379.6844
 -24033813.55547 -18719887.03545  22639533.8674                   22639532.4184
  -9197473.88347  -7154991.41845  22556509.4064                   22556506.6604
  -7754049.60947  -6030194.18745  23055594.1804                   23055594.2504
 11  8 18  1  0  0.0000000  0  9G17G10G09G12G05G02G04G30G25
 -24555397.69146 -19126717.71144  23859598.0474                   23859597.1054
 -25471081.19148 -19823767.73046  21118785.6564                   21118783.1254
  -6757769.09446  -5258577.19943  24623485.7664                   24623487.4654
 -23738085.78548 -18490447.25046  20893574.2114                   20893570.6804
 -21586581.14148 -16813380.17246  21042054.9614                   21042052.5744
 -29929543.84048 -23314468.43046  20709480.6724                   20709475.9224
 -23977517.38747 -18676019.92245  22650247.2114                   22650245.9384
  -9297622.62947  -7233029.36345  22537451.3444                   22537449.1604
  -7863602.97347  -6115560.38745  23034747.1804                   23034747.1564
 11  8 18  1  0 30.0000000  0  9G17G10G09G12G05G02G04G30G25
 -24517720.43046 -19097358.78944  23866767.5554                   23866766.6604
 -25457909.03548 -19813503.69146  21121292.0554                   21121289.3524
  -6701023.88746  -5214360.25843  24634284.9694                   24634285.9064
 -23792804.71948 -18533085.38346  20883161.4454                   20883158.4734
 -21677658.45748 -16884349.47746  21024723.4534                   21024721.3324
 -29939315.18448 -23322082.45347  20707621.4384                   20707616.3204
 -23921171.64547 -18632114.16445  22660969.3054                   22660967.8014
  -9397308.20747  -7310706.41045  22518481.8914                   22518479.7194
  -7972802.21547  -6200650.64145  23013966.5704                   23013966.8714
 11  8 18  1  1  0.0000000  0  9G17G10G09G12G05G02G04G30G25
 -24479845.54747 -19067845.90644  23873975.7034                   23873974.6884
 -25444132.89848 -19802769.04746  21123913.7894                   21123911.4414
  -6644301.66446  -5170161.29342  24645078.8524                   24645079.6254
 -23846961.55148 -18575285.50446  20872855.7274                   20872852.6914
 -21768253.98448 -16954943.35246  21007483.5864                   21007481.1644
 -29948856.49648 -23329517.23847  20705805.6024                   20705800.8634
 -23864779.96947 -18588172.61345  22671700.6174                   22671698.9614
  -9496530.44547  -7388022.41045  22499600.9144                   22499598.6254
  -8081647.09847  -6285464.79745  22993254.5784                   22993254.5704
 11  8 18  1  1 30.0000000  0  9G17G10G09G12G05G02G04G30G25
 -24441770.94146 -19038177.38343  23881220.9534                   23881219.8404
 -25429752.41448 -19791563.45346  21126650.6174                   21126648.0084
  -6587603.98846  -5125981.39543  24655867.9774                   24655870.2624
 -23900552.76248 -18617044.87946  20862657.7814                   20862654.5004
 -21858364.02048 -17025158.93446  20990336.3134                   20990334.0084
 -29958167.53148 -23336772.58647  20704033.7344                   20704028.6804
 -23808342.03147 -18544195.00845  22682440.0234                   22682438.5394
  -9595285.26247  -7464974.18045  22480808.5004                   22480806.0784
  -8190133.37147  -6369999.50445  22972609.6884                   22972610.5394
 11  8 18  1  2  0.0000000  0  9G17G10G09G12G05G02G04G30G25
 -24403495.21146 -19008352.13344  23888503.7424                   23888503.0354
 -25414768.18748 -19779887.42646  21129501.7814                   21129499.1914
  -6530932.80146  -5081822.19943  24666652.8284                   24666654.1764
 -23953576.67248 -18658362.20746  20852567.7504                   20852564.4024
 -21947985.50048 -17094993.82046  20973281.9924                   20973279.5664
 -29967248.71948 -23343848.82847  20702305.7584                   20702301.1844
 -23751858.70347 -18500182.03545  22693188.6334                   22693187.2664
  -9693569.33247  -7541559.12945  22462105.5234                   22462103.3284
  -8298257.59047  -6454252.08645  22952034.5004                   22952034.7504
 11  8 18  1  2 30.0000000  0  9G17G10G09G12G05G02G04G30G25
 -24365020.91446 -18978372.19544  23895825.6174                   23895824.8054
 -25399184.77748 -19767744.49646  21132467.2114                   21132464.5164
  -6474293.94946  -5037688.17243  24677429.0004                   24677432.0824
 -24006035.07448 -18699238.87146  20842585.1174                   20842582.0784
 -22037118.88348 -17164448.36746  20956320.2034                   20956317.8324
 -29976103.55148 -23350748.68447  20700620.9614                   20700616.2974
 -23695333.59847 -18456136.51245  22703944.2344                   22703944.0004
  -9791382.90647  -7617777.47745  22443491.7194                   22443489.3834
  -8406019.82447  -6538222.61745  22931527.9694                   22931527.8984
 11  8 18  1  3  0.0000000  0  9G17G10G09G12G05G02G04G30G25
 -24326348.35146 -18948237.69144  23903184.6254                   23903183.1094
 -25383003.69148 -19755135.85546  21135546.6644                   21135543.9224
  -6417690.16846  -4993581.55543  24688201.3524                   24688203.3164
 -24057925.95748 -18739673.31646  20832710.3834                   20832707.3984
 -22125762.44948 -17233521.25046  20939451.9144                   20939449.7814
 -29984733.34448 -23357473.18746  20698978.6644                   20698973.5164
 -23638768.23847 -18412059.62945  22714708.2894                   22714707.4024
  -9888723.47747  -7693627.25045  22424968.6884                   22424966.5824
  -8513417.48047  -6621909.05545  22911090.7424                   22911091.0274
 11  8 18  1  3 30.0000000  0  9G17G10G09G12G05G02G04G30G25
 -24287476.79746 -18917948.22744  23910582.2274                   23910580.6954
 -25366226.57848 -19742062.77046  21138738.7734                   21138736.1914
  -6361124.58646  -4949504.64543  24698966.6724                   24698967.9264
 -24109248.39148 -18779664.81246  20822944.2734                   20822941.0704
 -22213913.79348 -17302210.57046  20922677.3284                   20922674.7504
 -29993139.32848 -23364023.29347  20697378.8754                   20697373.9304
 -23582163.86347 -18367952.34445  22725480.2814                   22725478.5474
  -9985588.55947  -7769106.52345  22406535.4924                   22406533.4654
  -8620447.89847  -6705309.35945  22890723.7974                   22890723.7664
 11  8 18  1  4  0.0000000  0  9G17G10G09G12G05G02G04G30G25
 -24248406.58646 -18887503.89144  23918016.4224                   23918015.4654
 -25348855.45748 -19728526.82446  21142044.7114                   21142042.1644
  -6304600.77046  -4905460.31643  24709723.2114                   24709724.0944
 -24160001.68048 -18819212.81247  20813286.4534                   20813282.8094
 -22301571.26648 -17370515.06646  20905996.5314                   20905994.3204
 -30001323.12148 -23370400.27046  20695821.6644                   20695816.6214
 -23525522.34447 -18323816.10544  22736258.4304                   22736256.4804
 -10081976.21547  -7844213.78145  22388193.7504                   22388191.9224
  -8727108.93747  -6788421.84045  22870426.8754                   22870426.7344
 11  8 18  1  4 30.0000000  0  9G17G10G09G12G05G02G04G30G25
 -24209135.75046 -18856903.25044  23925489.5314                   23925488.0904
 -25330890.03548 -19714527.78146  21145462.9534                   21145460.7034
  -6248119.45346  -4861449.06643  24720470.5394                   24720472.2894
 -24210182.78948 -18858314.96547  20803737.2194                   20803733.9344
 -22388730.63348 -17438431.41846  20889410.4844                   20889408.5044
 -30009284.01648 -23376603.54746  20694306.4924                   20694301.8164
 -23468842.96147 -18279650.36745  22747044.7344                   22747042.8054
 -10177882.14147  -7918945.64145  22369943.3594                   22369941.3094
  -8833396.18747  -6871243.05945  22850201.1334                   22850200.3284
 11  8 18  1  5  0.0000000  0  9G17G10G09G12G05G02G04G30G25
 -24169665.68047 -18826147.36344  23933001.0474                   23933000.0824
 -25312333.41448 -19700068.06646  21148994.3984                   21148991.6524
  -6191685.32446  -4817474.60943  24731210.9774                   24731211.2664
 -24259792.17648 -18896971.62146  20794296.5944                   20794292.9734
 -22475392.19948 -17505959.87546  20872919.2584                   20872917.2344
 -30017024.93448 -23382635.41846  20692833.4224                   20692828.6334
 -23412128.77747 -18235457.49644  22757837.2894                   22757835.1484
 -10273305.52747  -7993301.52745  22351784.8594                   22351782.7384
  -8939308.64547  -6953772.22745  22830046.4144                   22830046.2384
 11  8 18  1  5 30.0000000  0  9G17G10G09G12G05G02G04G30G25
 -24129998.94146 -18795238.19144  23940547.9304                   23940547.5474
 -25293190.44548 -19685151.46146  21152636.8284                   21152634.3674
  -6135304.24246  -4773541.46543  24741939.4144                   24741940.4304
 -24308830.91448 -18935183.61346  20784965.0634                   20784961.6094
 -22561556.51248 -17573100.86346  20856523.0634                   20856520.5124
 -30024549.53548 -23388498.73446  20691401.5944                   20691396.8284
 -23355383.70747 -18191240.59444  22768635.2114                   22768633.7504
 -10368246.84447  -8067281.75045  22333718.3364                   22333716.2934
  -9044846.57847  -7036009.58245  22809963.5234                   22809962.6294
 11  8 18  1  6  0.0000000  0  9G17G10G09G12G05G02G04G30G25
 -24090135.15646 -18764175.49244  23948134.3984                   23948133.7624
 -25273462.54748 -19669779.05546  21156390.9844                   21156388.7384
  -6078979.10946  -4729651.92644  24752658.0704                   24752659.2114
 -24357298.35548 -18972950.43446  20775742.0084                   20775738.3524
 -22647221.12548 -17639852.47746  20840221.7584                   20840218.8134
 -30031859.05948 -23394194.45746  20690010.5084                   20690005.7344
 -23298609.05547 -18147000.62544  22779439.3834                   22779437.3594
 -10462703.51247  -8140884.34045  22315744.0864                   22315742.0234
  -9150007.23047  -7117952.93745  22789951.7504                   22789952.0354
 11  8 18  1  6 30.0000000  0  9G17G10G09G12G05G02G04G30G25
 -24050073.82446 -18732958.87544  23955757.7344                   23955757.4454
 -25253151.26248 -19653952.07046  21160256.3754                   21160253.5784
  -6022712.36746  -4685807.90644  24763364.9694                   24763366.9694
 -24405193.02748 -19010270.95346  20766627.6414                   20766624.3954
 -22732383.73448 -17706212.92246  20824015.5864                   20824013.3014
 -30038954.35948 -23399723.25046  20688660.1564                   20688655.4064
 -23241805.67647 -18102738.25044  22790247.8674                   22790247.0204
 -10556672.82047  -8214107.13345  22297861.8284                   22297859.6524
  -9254787.68048  -7199600.05145  22770012.8444                   22770012.6524
 11  8 18  1  7  0.0000000  0  9G17G10G09G12G05G02G04G30G25
 -24009813.84446 -18701587.52044  23963418.9384                   23963418.7854
 -25232257.31648 -19637671.06246  21164232.1884                   21164229.4224
  -5966506.17646  -4642011.07444  24774061.4454                   24774063.2304
 -24452513.02048 -19047143.66446  20757622.9454                   20757619.9224
 -22817041.77748 -17772180.18746  20807905.5634                   20807902.9574
 -30045835.73048 -23405085.35246  20687350.9534                   20687346.1604
 -23184974.00047 -18058453.85944  22801062.7734                   22801061.9734
 -10650151.65647  -8286947.78145  22280073.5554                   22280071.0354
  -9359184.64547  -7280948.32445  22750147.1644                   22750146.9734
 11  8 18  1  7 30.0000000  0  9G17G10G09G12G05G02G04G30G25
 -23969355.38746 -18670061.49644  23971116.8524                   23971117.8754
 -25210783.08647 -19620937.87946  21168318.7424                   21168316.3014
  -5910363.77046  -4598263.94944  24784744.9304                   24784746.9694
 -24499257.37948 -19083567.83647  20748728.0554                   20748724.7704
 -22901193.56648 -17837752.97746  20791892.2974                   20791889.4264
 -30052504.74648 -23410281.97346  20686081.7584                   20686076.8054
 -23128115.65647 -18014148.66044  22811882.7274                   22811881.2974
 -10743138.05147  -8359404.68045  22262378.7974                   22262376.3244
  -9463195.86748  -7361996.03945  22730354.3754                   22730354.1024
 11  8 18  1  8  0.0000000  0  8G17G10G12G05G02G04G30G25
 -23928697.84446 -18638380.34044  23978854.3594                   23978853.7274
 -25188729.64547 -19603753.37146  21172515.2974                   21172512.7704
 -24545424.72748 -19119542.38747  20739942.7194                   20739939.7074
 -22984836.50448 -17902929.25846  20775975.3594                   20775972.8324
 -30058961.88348 -23415313.50846  20684853.1334                   20684848.0164
 -23071231.27747 -17969823.19544  22822707.3674                   22822706.2234
 -10835629.12547  -8431475.61745  22244778.7814                   22244775.5084
  -9566818.21547  -7442740.72345  22710635.4384                   22710635.4494
 11  8 18  1  8 30.0000000  0  8G17G10G12G05G02G04G30G25
 -23887839.19946 -18606542.45744  23986629.9144                   23986629.0204
 -25166096.86348 -19586117.43046  21176822.0704                   21176819.3674
 -24591011.89148 -19155064.84047  20731267.7344                   20731264.5664
 -23067966.77348 -17967706.05546  20760156.2734                   20760153.5204
 -30065206.31248 -23420179.28146  20683664.7894                   20683659.8324
 -23014320.05547 -17925476.80544  22833537.4614                   22833536.2424
 -10927620.49647  -8503157.18045  22227272.9064                   22227270.2234
  -9670047.15647  -7523178.86345  22690991.7584                   22690991.7234
 11  8 18  1  9  0.0000000  0  8G17G10G12G05G02G04G30G25
 -23846771.32446 -18574541.59044  23994444.8754                   23994444.8284
 -25142878.76648 -19568025.39846  21181240.4844                   21181237.7544
 -24636010.32848 -19190128.55147  20722704.3984                   20722701.7274
 -23150574.77748 -18032075.90246  20744436.4064                   20744434.0704
 -30071231.37548 -23424874.12946  20682518.0554                   20682513.6764
 -22957375.49647 -17881104.45745  22844374.0784                   22844372.2814
 -11019102.20347  -8574441.58645  22209864.8984                   22209862.0904
  -9772872.49647  -7603302.47745  22671424.5164                   22671424.9384
 11  8 18  1  9 30.0000000  0  8G17G10G12G05G02G04G30G25
 -23805491.37946 -18542375.43744  24002300.2894                   24002300.1804
 -25119074.68448 -19549476.75046  21185770.0554                   21185767.2854
 -24680416.09848 -19224730.44146  20714254.4144                   20714251.5944
 -23232655.57848 -18096034.93046  20728816.6254                   20728814.1994
 -30077035.54348 -23429396.84846  20681413.8284                   20681409.1334
 -22900395.96547 -17836704.83644  22855216.4694                   22855214.8914
 -11110069.16047  -8645324.87945  22192554.0554                   22192552.0164
  -9875288.81247  -7683107.37145  22651935.2344                   22651935.8954
 11  8 18  1 10  0.0000000  0  8G17G10G12G05G02G04G30G25
 -23763998.53946 -18510043.34043  24010195.5164                   24010194.8594
 -25094685.14148 -19530471.90646  21190411.3674                   21190408.4454
 -24724227.31648 -19258869.04746  20705917.5554                   20705913.8874
 -23314206.71948 -18159581.23846  20713297.9694                   20713295.5234
 -30082618.77348 -23433747.42246  20680351.3284                   20680346.2734
 -22843381.62947 -17792278.11744  22866066.2194                   22866064.1994
 -11200518.00047  -8715804.44145  22175341.9454                   22175340.0594
  -9977292.56647  -7762590.77745  22632524.9614                   22632524.4924
 11  8 18  1 10 30.0000000  0  8G17G10G12G05G02G04G30G25
 -23722297.91846 -18477549.43043  24018130.8204                   24018130.6374
 -25069718.16448 -19511017.10246  21195162.4774                   21195159.5434
 -24767448.99248 -19292548.27347  20697692.8674                   20697689.3444
 -23395231.84448 -18222717.66847  20697879.4614                   20697876.7584
 -30087988.42248 -23437931.54746  20679329.4774                   20679324.6294
 -22786339.48047 -17747829.73444  22876920.8134                   22876919.3554
 -11290452.44947  -8785883.18445  22158227.9774                   22158225.3484
 -10078887.08647  -7841755.30145  22613191.8054                   22613192.1374
 11  8 18  1 11  0.0000000  0  8G17G10G12G05G02G04G30G25
 -23680394.73046 -18444897.65643  24026105.6484                   24026103.6764
 -25044180.48447 -19491117.59846  21200021.7894                   21200019.4224
 -24810084.98848 -19325771.12146  20689579.4224                   20689575.9884
 -23475734.00048 -18285446.58647  20682560.5164                   20682557.9614
 -30093150.15648 -23441953.67646  20678347.1254                   20678342.3364
 -22729275.70347 -17703364.48044  22887779.1644                   22887778.4694
 -11379875.06647  -8855563.10545  22141211.4224                   22141209.0004
 -10180074.83247  -7920602.83645  22593936.0314                   22593936.4304
 11  8 18  1 11 30.0000000  0  8G17G10G12G05G02G04G30G25
 -23638288.40246 -18412087.50443  24034118.0004                   24034116.0634
 -25018073.81247 -19470774.73446  21204990.0784                   21204987.4224
 -24852134.09848 -19358536.65647  20681577.5004                   20681574.6524
 -23555711.34848 -18347766.56646  20667341.2034                   20667338.8364
 -30098104.96547 -23445814.55946  20677404.2584                   20677399.4024
 -22672190.99647 -17658882.93044  22898642.2974                   22898640.9804
 -11468783.40647  -8924842.29745  22124292.8914                   22124290.0904
 -10280853.00047  -7999131.24645  22574759.1724                   22574758.8134
 11  8 18  1 12  0.0000000  0  8G17G10G12G05G02G04G30G25
 -23595981.53546 -18379121.09843  24042169.7344                   24042166.6454
 -24991402.84047 -19449992.14846  21210065.2424                   21210062.5744
 -24893598.31648 -19390846.43046  20673687.1094                   20673683.9494
 -23635164.75848 -18409678.28147  20652222.0474                   20652219.1604
 -30102856.80548 -23449517.28946  20676500.3134                   20676495.2344
 -22615089.59047 -17614388.35544  22909509.6884                   22909506.7464
 -11557178.07847  -8993721.19945  22107471.8674                   22107469.5864
 -10381221.94947  -8077340.74245  22555659.1254                   22555659.4224
 11  8 18  1 12 30.0000000  0  8G17G10G12G05G02G04G30G25
 -23553475.68046 -18345999.66443  24050257.7504                   24050255.6954
 -24964171.16447 -19428772.65246  21215247.2974                   21215244.5864
 -24934478.43748 -19422701.05547  20665907.8524                   20665904.8164
 -23714094.16448 -18471181.69546  20637202.3364                   20637199.4344
 -30107408.35948 -23453063.95346  20675633.9304                   20675628.9924
 -22557973.86747 -17569882.60944  22920377.4064                   22920375.8444
 -11645058.50447  -9062199.41445  22090749.1334                   22090746.1684
 -10481180.74647  -8155230.67645  22536637.6884                   22536637.6374
 11  8 18  1 13  0.0000000  0  8G17G10G12G05G02G04G30G25
 -23510768.46546 -18312721.29744  24058384.8134                   24058383.1724
 -24936378.41847 -19407115.95746  21220535.6954                   21220533.3594
 -24974771.53548 -19454098.27046  20658240.4064                   20658237.3324
 -23792495.58648 -18532273.66847  20622282.8594                   20622279.9384
 -30111757.96548 -23456453.25046  20674806.2194                   20674801.4144
 -22500842.56647 -17525364.75045  22931249.2814                   22931247.8364
 -11732420.18047  -9130273.39845  22074124.2894                   22074121.8594
 -10580724.59847  -8232797.25445  22517695.3594                   22517695.4884
 11  8 18  1 13 30.0000000  0  8G17G10G12G05G02G04G30G25
 -23467858.80547 -18279285.20744  24066550.8984                   24066549.5944
 -24908025.87147 -19385023.07446  21225931.3364                   21225928.6374
 -25014475.62948 -19485036.52346  20650685.2664                   20650681.6414
 -23870365.84048 -18592951.76646  20607464.6884                   20607461.7934
 -30115906.32848 -23459685.73846  20674016.7424                   20674011.9414
 -22443695.88347 -17480834.89844  22942124.3204                   22942122.3094
 -11819259.82047  -9197940.61745  22057599.2274                   22057596.5234
 -10679849.92647  -8310037.71545  22498832.8284                   22498832.3714
 11  8 18  1 14  0.0000000  0  8G17G10G12G05G02G04G30G25
 -23424749.12946 -18245693.28544  24074754.0084                   24074752.5864
 -24879117.95748 -19362497.41846  21231432.2274                   21231429.9104
 -25053592.51648 -19515517.20346  20643241.3754                   20643238.0084
 -23947705.95748 -18653216.76247  20592747.2344                   20592744.5864
 -30119856.88748 -23462764.08646  20673265.1024                   20673260.1764
 -22386537.68747 -17436296.04744  22953001.3834                   22952999.3094
 -11905577.96547  -9265201.46945  22041173.8364                   22041171.1094
 -10778556.95347  -8386952.23845  22480049.2814                   22480048.3014
 11  8 18  1 14 30.0000000  0  8G17G10G12G05G02G04G30G25
 -23381440.19146 -18211946.04343  24082995.5164                   24082994.8834
 -24849657.30548 -19339541.06246  21237038.7584                   21237035.7974
 -25092121.95348 -19545540.14146  20635909.2424                   20635905.9224
 -24024515.07448 -18713067.99247  20578130.7584                   20578127.9774
 -30123611.52048 -23465689.76646  20672550.4144                   20672545.4694
 -22329369.64846 -17391749.51644  22963879.5864                   22963877.8284
 -11991373.13747  -9332054.80545  22024847.1174                   22024844.8444
 -10876843.91847  -8463539.43745  22461345.7274                   22461344.9184
 11  8 18  1 15  0.0000000  0  8G17G10G12G05G02G04G30G25
 -23337931.96946 -18178043.54343  24091274.5084                   24091272.2774
 -24819646.18448 -19316155.76646  21242749.2344                   21242747.0234
 -25130063.72348 -19575105.14546  20628689.1484                   20628686.0394
 -24100791.71548 -18772504.30147  20563615.4454                   20563613.2504
 -30127171.38748 -23468463.68446  20671873.3674                   20671868.2504
 -22272192.83247 -17347196.17644  22974759.4454                   22974758.6764
 -12076643.41447  -9398499.13745  22008620.4844                   22008618.9614
 -10974708.52047  -8539797.52045  22442722.8444                   22442722.4144
 11  8 18  1 15 30.0000000  0  8G17G10G12G05G02G04G30G25
 -21718806.88346 -16916387.62544  24399383.7274                   24399382.9144
 -23213668.87147 -18064744.88346  21548356.8054                   21548354.2544
 -23591996.50848 -18376611.19946  20921373.8914                   20921371.0044
 -22601112.52348 -17603923.08647  20848995.2344                   20848992.6214
 -28555118.38348 -22243487.30546  20971024.7894                   20971019.9264
 -20639591.28547 -16075039.15644  23285433.6884                   23285432.6604
 -10585964.77747  -8236931.34045  22292287.1724                   22292285.3954
  -9496726.01247  -7388122.78945  22723973.1884                   22723973.0124
 11  8 18  1 16  0.0000000  0  8G17G10G12G05G02G04G30G25
 -21674899.41446 -16882174.03543  24407739.0164                   24407737.7154
 -23182563.29347 -18040506.75846  21554275.5704                   21554273.6254
 -23628760.51248 -18405258.46946  20914377.7894                   20914374.5984
 -22676318.90648 -17662525.42647  20834684.0634                   20834680.8674
 -28558291.66048 -22245959.98446  20970421.4304                   20970416.0904
 -20582400.14546 -16030474.59444  23296315.9224                   23296315.2154
 -10670178.74247  -8302552.59445  22276262.0004                   22276259.6524
  -9593738.30547  -7463716.73445  22705512.4924                   22705511.6604
 11  8 18  1 16 30.0000000  0  8G17G10G12G05G02G04G30G25
 -21630792.77046 -16847805.28543  24416132.0164                   24416130.7194
 -23150913.88348 -18015844.87946  21560298.8134                   21560295.9574
 -23664935.10248 -18433446.45746  20907494.0554                   20907490.6914
 -22750987.84448 -17720708.98447  20820474.9304                   20820472.0594
 -28561273.82048 -22248283.73846  20969853.4534                   20969848.6724
 -20525203.37547 -15985905.68043  23307200.5784                   23307198.8834
 -10753861.77747  -8367760.13345  22260337.8914                   22260334.8164
  -9690321.19947  -7538976.08645  22687133.3834                   22687132.9844
 11  8 18  1 17  0.0000000  0  8G17G10G12G05G02G04G30G25
 -21586488.06646 -16813282.16444  24424563.8834                   24424562.3754
 -23118724.02748 -17990761.87946  21566424.2344                   21566421.8134
 -23700520.75048 -18461175.53147  20900722.4144                   20900718.9614
 -22825119.42648 -17778473.81647  20806368.0234                   20806365.4534
 -28564067.00848 -22250460.24246  20969321.9304                   20969316.8054
 -20468003.86347 -15941334.63744  23318085.8594                   23318084.0354
 -10837013.12547  -8432553.39145  22244514.9384                   22244511.7974
  -9786473.61747  -7613900.00845  22668835.8524                   22668835.4534
 11  8 18  1 17 30.0000000  0  8G17G10G12G05G02G04G30G25
 -21541982.99646 -16778602.89144  24433032.1334                   24433031.9024
 -23085993.36747 -17965257.45746  21572652.4614                   21572649.9884
 -23735514.43048 -18488443.32046  20894063.2274                   20894059.9024
 -22898709.61348 -17835816.79347  20792364.4844                   20792361.6294
 -28566669.87548 -22252488.45346  20968826.8204                   20968821.6764
 -20410799.90647 -15896760.10944  23328971.9224                   23328969.5744
 -10919628.33247  -8496928.87945  22228793.2114                   22228790.4144
  -9882190.58647  -7688484.63745  22650621.5314                   22650621.2114
 11  8 18  1 18  0.0000000  0  9G17G10G29G12G05G02G04G30G25
 -21497281.47346 -16743770.57444  24441538.1644                   24441538.0234
 -23052728.29747 -17939336.62145  21578982.7504                   21578980.0394
   4573435.53557   3573229.57854  24766559.6644                   24766558.7934
 -23769919.56248 -18515252.51647  20887516.1094                   20887512.7974
 -22971760.53948 -17892739.55947  20778463.1484                   20778460.4144
 -28569087.37148 -22254372.20746  20968366.7194                   20968361.7344
 -20353596.49646 -15852186.00844  23339856.7344                   23339854.6914
 -11001709.34847  -8560888.12145  22213173.5704                   22213171.6954
  -9977473.85947  -7762731.31245  22632489.7664                   22632488.9734
 11  8 18  1 18 30.0000000  0  9G17G10G29G12G05G02G04G30G25
 -21452390.90646 -16708790.93444  24450081.1254                   24450080.5594
 -23018937.77747 -17913006.33245  21585412.6884                   21585410.4654
   4468895.15647   3491769.63744  24746666.4614                   24746664.9614
 -23803742.94148 -18541608.39146  20881079.5004                   20881076.4344
 -23044278.18448 -17949246.77747  20764663.3364                   20764660.8834
 -28571328.00048 -22256118.15246  20967940.3984                   20967935.3754
 -20296401.74246 -15807618.66844  23350740.3984                   23350738.1214
 -11083261.64147  -8624435.35245  22197654.9224                   22197652.7624
 -10072328.27347  -7836643.81645  22614439.3914                   22614439.1334
 11  8 18  1 19  0.0000000  0  9G17G10G29G12G05G02G04G30G25
 -21407312.90646 -16673665.22344  24458658.4844                   24458658.8284
 -22984626.08247 -17886269.94545  21591942.0784                   21591939.2344
   4364278.01247   3410249.83244  24726758.4454                   24726756.8094
 -23836985.62947 -18567511.77346  20874753.7664                   20874750.7034
 -23116262.60948 -18005338.49247  20750965.0474                   20750962.5434
 -28573394.35247 -22257728.28946  20967546.8524                   20967542.2034
 -20239218.60246 -15763060.38744  23361622.2504                   23361620.6764
 -11164284.63747  -8687570.17245  22182236.8204                   22182234.3484
 -10166753.12547  -7910221.61345  22596470.8524                   22596470.9064
 11  8 18  1 19 30.0000000  0  9G17G10G29G12G05G02G04G30G25
 -21362045.61746 -16638392.05944  24467272.9694                   24467273.0634
 -22949794.03547 -17859128.07845  21598570.1254                   21598567.7734
   4259586.05147   3328671.74644  24706836.2894                   24706834.1054
 -23869645.39147 -18592960.94547  20868539.0164                   20868535.6954
 -23187710.92648 -18061012.47347  20737369.1564                   20737366.2034
 -28575286.27748 -22259202.50846  20967187.1644                   20967181.9734
 -20182046.31246 -15718510.58244  23372501.6024                   23372500.7774
 -11244774.94547  -8750289.89845  22166919.9694                   22166917.3284
 -10260744.49247  -7983461.61345  22578585.0004                   22578585.1134
 11  8 18  1 20  0.0000000  0  9G17G10G29G12G05G02G04G30G25
 -21316586.52746 -16602969.39844  24475923.9844                   24475923.8634
 -22914441.18047 -17831580.39545  21605297.4224                   21605295.1334
   4154822.66846   3247038.03143  24686899.9454                   24686897.5744
 -23901719.54748 -18617953.80147  20862435.5634                   20862432.2584
 -23258618.78148 -18116265.31247  20723875.7814                   20723872.8284
 -28577001.57848 -22260539.10246  20966860.7344                   20966855.8204
 -20124883.34446 -15673968.03944  23383378.8054                   23383378.5124
 -11324727.99247  -8812590.97745  22151705.3134                   22151703.0824
 -10354297.38347  -8056359.95345  22560782.4694                   22560782.4654
 11  8 18  1 20 30.0000000  0  9G17G10G29G12G05G02G04G30G25
 -21270932.17246 -16567394.62944  24484610.8754                   24484610.8444
 -22878566.27047 -17803625.91845  21612124.5004                   21612122.0634
   4049991.91446   3165351.70743  24666950.6804                   24666948.4184
 -23933204.32848 -18642487.39547  20856444.1024                   20856440.7624
 -23328981.38348 -18171093.28547  20710486.3674                   20710483.2934
 -28578538.45348 -22261736.66046  20966568.3054                   20966563.5744
 -20067726.94146 -15629430.60944  23394255.6564                   23394254.9924
 -11404138.38348  -8874469.20745  22136594.5704                   22136591.9264
 -10447406.04347  -8128912.13745  22543064.5084                   22543064.2114
 11  8 18  1 21  0.0000000  0  9G17G10G29G12G05G02G04G30G25
 -21225083.60246 -16531668.52043  24493335.7274                   24493336.2034
 -22842172.74247 -17775267.31645  21619049.9924                   21619047.2894
   3945093.27747   3083612.55943  24646990.4614                   24646988.8134
 -23964100.01648 -18666561.95747  20850564.9064                   20850561.8164
 -23398798.37948 -18225496.10247  20697200.3674                   20697197.7504
 -28579898.54748 -22262796.46546  20966309.5554                   20966304.3834
 -20010579.29346 -15584900.01244  23405129.8674                   23405128.7894
 -11483005.24247  -8935923.89845  22121586.0004                   22121583.5164
 -10540069.18747  -8201117.17645  22525431.6024                   22525431.0824
 11  8 18  1 21 30.0000000  0  9G17G10G29G12G05G02G04G30G25
 -21179039.52746 -16495790.08643  24502098.0474                   24502097.7814
 -22805261.19947 -17746505.06645  21626074.2504                   21626071.5044
   3840128.81346   3001822.14843  24627015.7424                   24627014.3754
 -23994404.77748 -18690176.05947  20844798.1724                   20844794.6094
 -23468067.11348 -18279471.70747  20684019.0634                   20684016.2774
 -28581081.65647 -22263718.35946  20966084.1254                   20966079.4884
 -19953439.76647 -15540375.70344  23416003.9614                   23416002.1294
 -11561325.23848  -8996952.45345  22106682.3134                   22106680.1524
 -10632282.96947  -8272972.08645  22507884.0784                   22507883.6764
 11  8 18  1 22  0.0000000  0  9G17G10G29G12G05G02G04G30G25
 -21132797.70346 -16459757.45343  24510897.7664                   24510895.9024
 -22767832.06247 -17717339.50845  21633196.7734                   21633193.9844
   3735100.84046   2919982.18043  24607029.4384                   24607026.9734
 -24024116.08248 -18713327.73447  20839144.3444                   20839140.4304
 -23536784.06648 -18333017.35247  20670942.8754                   20670939.8244
 -28582087.03548 -22264501.77046  20965892.9454                   20965887.9574
 -19896307.24246 -15495856.82844  23426876.0634                   23426874.2774
 -11639094.62948  -9057551.95345  22091883.4064                   22091880.9884
 -10724043.19947  -8344473.54745  22490422.4064                   22490422.0124
 11  8 18  1 22 30.0000000  0  9G17G10G29G12G05G02G04G30G25
 -21086357.55546 -16423570.27742  24519734.6334                   24519731.9574
 -22729886.90247 -17687771.84045  21640417.1254                   21640414.7664
   3630011.24245   2838094.18042  24587031.7274                   24587028.7194
 -24053233.00047 -18736016.24246  20833603.3444                   20833600.1374
 -23604946.79748 -18386131.13347  20657971.6644                   20657968.9184
 -28582914.49248 -22265146.53946  20965735.5704                   20965730.7194
 -19839181.96147 -15451343.62144  23437746.6564                   23437744.9104
 -11716310.71547  -9117720.29345  22077189.5394                   22077186.9694
 -10815346.68047  -8415619.11345  22473047.6094                   22473047.1214
 11  8 18  1 23  0.0000000  0  9G17G10G29G12G05G02G04G30G25
 -21039718.64146 -16387228.27043  24528609.8364                   24528609.0044
 -22691427.30147 -17657803.31245  21647735.7034                   21647733.4384
   3524861.27745   2756159.25042  24567020.9694                   24567019.6724
 -24081754.66048 -18758240.92247  20828175.7424                   20828172.9064
 -23672553.47748 -18438811.62947  20645106.3284                   20645103.6094
 -28583564.31648 -22265652.88746  20965611.9224                   20965606.7114
 -19782063.93047 -15406836.03144  23448616.0704                   23448613.9804
 -11792970.78547  -9177455.37545  22062601.6954                   22062599.4024
 -10906190.43047  -8486406.43745  22455760.7274                   22455760.6954
 11  8 18  1 23 30.0000000  0  9G17G10G29G12G05G02G04G30G25
 -20992885.27346 -16350734.75043  24537521.9304                   24537520.7734
 -22652460.05147 -17627439.22345  21655151.0394                   21655148.7894
   3419647.09046   2674174.22743  24547000.3054                   24546998.0204
 -24109684.79748 -18780004.67246  20822861.1804                   20822857.9454
 -23739607.22748 -18491061.26647  20632346.4304                   20632343.7304
 -28584041.85948 -22266024.99646  20965520.7814                   20965515.8914
 -19724958.47347 -15362338.22744  23459482.9144                   23459480.6334
 -11869077.57847  -9236759.32845  22048118.8524                   22048117.0164
 -10996576.59047  -8556837.18745  22438561.0084                   22438560.3594
 11  8 18  1 24  0.0000000  0  9G17G10G29G12G05G02G04G30G25
 -20945851.93746 -16314085.40643  24546471.6884                   24546472.2154
 -22612982.00447 -17596677.09845  21662663.3674                   21662660.5634
   3314374.55946   2592143.73443  24526967.5164                   24526965.7894
 -24137018.28948 -18801303.48846  20817659.6724                   20817656.1994
 -23806101.61348 -18542875.04747  20619692.8594                   20619690.2234
 -28584343.12948 -22266259.73846  20965463.7274                   20965458.7114
 -19667861.27747 -15317846.91444  23470347.6804                   23470346.4614
 -11944624.12948  -9295626.73045  22033743.0864                   22033740.4844
 -11086497.66847  -8626905.54745  22421449.6334                   22421449.0084
 11  8 18  1 24 30.0000000  0  9G17G10G29G12G05G02G04G30G25
 -20898623.05546 -16277283.72343  24555459.7034                   24555459.1374
 -22572999.64147 -17565522.00445  21670272.1564                   21670269.0864
   3209040.24246   2510065.14144  24506923.0084                   24506921.5434
 -24163758.60548 -18822140.10247  20812571.2344                   20812568.1374
 -23872039.20348 -18594254.95347  20607145.5084                   20607142.4574
 -28584472.94948 -22266360.88346  20965438.8754                   20965434.2424
 -19610777.06647 -15273365.70344  23481210.4534                   23481209.3634
 -12019612.60948  -9354059.23845  22019473.0634                   22019471.1914
 -11175955.46547  -8696612.87945  22404426.3204                   22404425.7854
 11  8 18  1 25  0.0000000  0  8G10G29G12G05G02G04G30G25
 -22532513.31647 -17533974.19545  21677976.3204                   21677973.0784
   3103646.88346   2427940.51244  24486867.4144                   24486865.5204
 -24189903.51647 -18842512.75446  20807595.8594                   20807592.5394
 -23937416.73448 -18645198.45347  20594704.5394                   20594701.5124
 -28584430.52348 -22266327.82046  20965447.2894                   20965442.2464
 -19553704.85947 -15228893.85544  23492070.6884                   23492070.1524
 -12094039.20347  -9412053.95345  22005310.1414                   22005307.6294
 -11264945.64547  -8765955.84046  22387491.8674                   22387492.2424
 11  8 18  1 25 30.0000000  0  8G10G29G12G05G02G04G30G25
 -22491523.64147 -17502034.18045  21685776.0944                   21685773.7814
   2998197.19546   2345771.98844  24466800.7424                   24466799.5944
 -24215451.02748 -18862419.90647  20802734.2894                   20802731.2304
 -24002231.23848 -18695703.22747  20582370.9774                   20582367.8634
 -28584215.03948 -22266159.89546  20965488.1954                   20965483.1524
 -19496643.60246 -15184430.55544  23502928.4774                   23502928.0984
 -12167900.39547  -9469608.07845  21991254.7894                   21991252.2544
 -11353464.12947  -8834931.23845  22370647.2814                   22370646.9534
 11  8 18  1 26  0.0000000  0  8G10G29G12G05G02G04G30G25
 -22450027.30147 -17469699.37545  21693673.0164                   21693669.9694
   2892697.21147   2263564.27344  24446725.2504                   24446722.7384
 -24240395.25448 -18881856.95746  20797987.5784                   20797984.3094
 -24066475.99248 -18745764.03947  20570145.1724                   20570142.3594
 -28583821.31248 -22265853.08646  20965563.0004                   20965558.2854
 -19439588.38346 -15139971.96144  23513786.2424                   23513785.5514
 -12241189.04348  -9526716.06645  21977308.6484                   21977305.8204
 -11441503.28947  -8903533.13745  22353894.1484                   22353893.7624
 11  8 18  1 26 30.0000000  0  8G10G29G12G05G02G04G30G25
 -22408022.62547 -17436968.44545  21701666.1174                   21701663.6994
   2787152.21547   2181321.48844  24426640.4924                   24426638.7894
 -24264731.75048 -18900820.44946  20793356.6804                   20793353.1524
 -24130145.25048 -18795376.41447  20558029.5784                   20558026.5864
 -28583246.21548 -22265404.94546  20965672.4064                   20965667.5514
 -19382535.84846 -15095515.43444  23524643.4144                   23524641.7814
 -12313898.81248  -9583372.98445  21963472.1644                   21963469.9534
 -11529056.38347  -8971756.27345  22337232.9774                   22337232.6524
 11  8 18  1 27  0.0000000  0  8G10G29G12G05G02G04G30G25
 -22365514.99247 -17403845.59845  21709755.1884                   21709752.1414
   2681559.93847   2099041.85544  24406546.6094                   24406546.0124
 -24288463.46547 -18919312.69147  20788840.3594                   20788837.3244
 -24193240.71948 -18844541.67247  20546022.8444                   20546020.2114
 -28582493.68448 -22264818.54346  20965815.3834                   20965810.6684
 -19325489.53547 -15051063.75044  23535499.0314                   23535497.7194
 -12386031.10248  -9639579.93045  21949745.8914                   21949743.3714
 -11616124.22748  -9039601.30145  22320664.8524                   22320664.6414
 11  8 18  1 27 30.0000000  0  8G10G29G12G05G02G04G30G25
 -22322507.87547 -17370333.55145  21717938.6954                   21717936.1174
   2575919.86746   2016725.00444  24386443.7894                   24386442.5084
 -24311591.53548 -18937334.55547  20784439.4694                   20784435.9884
 -24255762.68748 -18893260.05547  20534125.0634                   20534122.0354
 -28581565.87148 -22264095.56646  20965991.9774                   20965987.4384
 -19268451.54347 -15006618.54744  23546353.3524                   23546351.0704
 -12457585.56248  -9695336.61345  21936129.1484                   21936126.6764
 -11702705.82447  -9107067.41845  22304188.4304                   22304187.8204
 11  8 18  1 28  0.0000000  0  8G10G29G12G05G02G04G30G25
 -22279009.54747 -17336438.73445  21726216.3204                   21726213.6054
   2470227.24647   1934367.16844  24366330.6954                   24366330.1684
 -24334121.41448 -18954890.29747  20780152.2734                   20780148.7934
 -24317715.76248 -18941535.14147  20522335.9064                   20522332.7464
 -28580469.40648 -22263241.16046  20966201.0004                   20966195.7544
 -19211428.28147 -14962184.80544  23557204.0784                   23557202.9884
 -12528566.12948  -9750646.12145  21922622.3054                   21922620.1684
 -11788804.71547  -9174157.42245  22287804.8134                   22287804.1994
 11  8 18  1 28 30.0000000  0  8G10G29G12G05G02G04G30G25
 -22235024.66847 -17302164.81245  21734586.6954                   21734583.5554
   2364480.48446   1851967.16044  24346208.1644                   24346206.9224
 -24356055.43448 -18971981.73047  20775978.1954                   20775975.0904
 -24379100.89548 -18989367.68047  20510654.8524                   20510651.9454
 -28579207.60948 -22262257.93446  20966441.0634                   20966436.0784
 -19154422.68047 -14917764.84844  23568051.7664                   23568050.4454
 -12598973.55948  -9805509.02345  21909224.1414                   21909221.6644
 -11874420.98447  -9240871.35945  22271512.3134                   22271511.5904
 11  8 18  1 29  0.0000000  0  8G10G29G12G05G02G04G30G25
 -22190554.88347 -17267513.02345  21743048.6254                   21743045.8674
   2258681.20346   1769526.23444  24326074.7734                   24326073.6884
 -24377392.53948 -18988608.04347  20771918.0314                   20771914.7304
 -24439916.19548 -19036756.18747  20499081.6804                   20499079.0944
 -28577780.48048 -22261145.87146  20966712.2424                   20966707.3244
 -19097434.64547 -14873358.58643  23578896.0784                   23578894.8244
 -12668805.18048  -9859923.25845  21895935.4454                   21895933.0554
 -11959551.57447  -9307206.85545  22255312.1954                   22255311.3204
 11  8 18  1 29 30.0000000  0  8G10G29G12G05G02G04G30G25
 -22145602.36747 -17232485.08245  21751602.7034                   21751600.2304
   2152830.10946   1687044.93843  24305931.7034                   24305930.9734
 -24398132.50448 -19004769.04747  20767971.2894                   20767967.9304
 -24500160.45348 -19083699.73847  20487617.5164                   20487614.8954
 -28576188.44948 -22259905.31646  20967015.1884                   20967010.2664
 -19040464.78547 -14828966.46143  23589737.0164                   23589735.9534
 -12738059.38748  -9913887.56245  21882757.1644                   21882754.4534
 -12044194.22747  -9373162.12545  22239205.0634                   22239205.4454
 11  8 18  1 30  0.0000000  0  8G10G29G12G05G02G04G30G25
 -22100169.98047 -17197083.21545  21760248.4384                   21760245.9774
   2046927.74246   1604523.65643  24285779.5084                   24285778.1644
 -24418275.86348 -19020465.16847  20764137.7114                   20764134.7234
 -24559832.99247 -19130197.78147  20476262.2504                   20476259.2854
 -28574432.90247 -22258537.34846  20967349.1414                   20967344.5594
 -18983514.34446 -14784589.49243  23600574.4534                   23600573.2114
 -12806735.06648  -9967401.06645  21869688.2274                   21869685.4614
 -12128347.28947  -9438735.90646  22223191.8674                   22223191.3484
 11  8 18  1 30 30.0000000  0  8G10G29G12G05G02G04G30G25
 -22054259.19147 -17161308.55945  21768985.1414                   21768982.3204
   1940976.31646   1521964.18043  24265617.1484                   24265616.8484
 -24437821.18048 -19035695.28546  20760418.9454                   20760415.7304
 -24618931.61747 -19176248.62947  20465016.2814                   20465013.2624
 -28572513.53147 -22257041.72346  20967714.7734                   20967709.6334
 -18926582.47746 -14740227.01643  23611407.2584                   23611407.4024
 -12874829.26648 -10020461.46545  21856730.4924                   21856727.8164
 -12212007.23847  -9503925.44546  22207271.9144                   22207271.1844
 11  8 18  1 31  0.0000000  0  8G10G29G12G05G02G04G30G25
 -22007875.43048 -17125165.35945  21777811.5704                   21777808.9104
   1834973.69146   1439364.81343  24245445.7974                   24245445.0824
 -24456771.55948 -19050461.80946  20756812.4454                   20756809.0704
 -24677458.16048 -19221853.69147  20453879.0864                   20453875.9884
 -28570434.32448 -22255421.55546  20968110.1414                   20968105.5744
 -18869672.95746 -14695881.98443  23622237.2584                   23622236.6644
 -12942343.41048 -10073069.88745  21843882.7734                   21843881.0904
 -12295174.91448  -9568731.40245  22191445.3134                   22191444.9804
 11  8 18  1 31 30.0000000  0  8G10G29G12G05G02G04G30G25
 -21961022.89847 -17088656.89145  21786726.8984                   21786724.0664
   1728918.68846   1356724.54743  24225264.7194                   24225261.3364
 -24475129.02748 -19064766.34046  20753319.1804                   20753315.7234
 -24735413.35248 -19267013.54747  20442850.3134                   20442847.5474
 -28568198.12948 -22253679.05546  20968535.8054                   20968530.9264
 -18812788.44147 -14651556.42244  23633062.8834                   23633061.6524
 -13009278.15248 -10125226.81645  21831145.7274                   21831143.0634
 -12377850.34848  -9633153.78546  22175712.9224                   22175712.4104
 11  8 18  1 32  0.0000000  0  8G10G29G12G05G02G04G30G25
 -21913702.25047 -17051783.64145  21795732.0084                   21795729.5084
   1622814.07046   1274045.66443  24205073.2344                   24205071.5044
 -24492891.83648 -19078607.48846  20749939.0084                   20749935.5434
 -24792795.02048 -19311726.50447  20431930.8364                   20431928.3914
 -28565803.71948 -22251813.26646  20968991.1414                   20968986.1374
 -18755927.86747 -14607249.49644  23643883.9454                   23643880.9304
 -13075630.04348 -10176929.59045  21818519.4534                   21818517.4884
 -12460029.54748  -9697189.51246  22160074.5864                   22160073.9144
 11  8 18  1 32 30.0000000  0  8G10G29G12G05G02G04G30G25
 -21865918.00448 -17014549.16445  21804825.3444                   21804822.3914
   1516658.81346   1191327.35543  24184873.1024                   24184869.8794
 -24510062.07048 -19091986.90246  20746671.7424                   20746668.0474
 -24849603.60248 -19355992.89547  20421120.9534                   20421117.8754
 -28563253.84048 -22249826.33646  20969476.8914                   20969471.3554
 -18699093.34447 -14562962.90644  23654698.0164                   23654697.2074
 -13141399.38348 -10228178.41045  21806003.5234                   21806000.9804
 -12541712.14548  -9760838.26646  22144530.7584                   22144530.3444
 11  8 18  1 33  0.0000000  0  8G10G29G12G05G02G04G30G25
 -21817670.60547 -16976953.77745  21814006.1094                   21814003.5274
   1410455.94546   1108571.85944  24164663.8914                   24164661.2974
 -24526637.62148 -19104902.91846  20743517.5004                   20743514.0004
 -24905836.18047 -19399810.46547  20410419.8594                   20410417.0354
 -28560547.10247 -22247717.18446  20969991.6954                   20969986.6764
 -18642283.73047 -14518695.70344  23665509.0164                   23665506.8954
 -13206582.68748 -10278970.59845  21793599.7194                   21793596.9454
 -12622894.12948  -9824096.95746  22129082.4384                   22129081.6054
 11  8 18  1 33 30.0000000  0  8G10G29G12G05G02G04G30G25
 -21768963.39548 -16939000.09445  21823274.5554                   21823271.8284
   1304205.51646   1025779.41044  24144444.6484                   24144443.2894
 -24542619.62148 -19117356.43746  20740476.3524                   20740472.7894
 -24961492.95348 -19443179.34447  20399828.5704                   20399825.8834
 -28557685.38748 -22245487.26646  20970536.6884                   20970531.1294
 -18585500.15246 -14474448.81643  23676313.8754                   23676312.8054
 -13271179.48447 -10329305.77045  21781307.4064                   21781304.6954
 -12703574.26648  -9886964.58646  22113729.9454                   22113728.8444
 11  8 18  1 34  0.0000000  0  8G10G29G12G05G02G04G30G25
 -21719798.98847 -16900690.16445  21832630.9384                   21832627.7854
   1197908.54347    942950.66044  24124217.0084                   24124214.8484
 -24558008.10548 -19129347.47346  20737547.6094                   20737544.6454
 -25016572.49248 -19486098.43747  20389347.6094                   20389344.7074
 -28554669.30148 -22243137.06646  20971110.3984                   20971105.3134
 -18528743.33647 -14430222.74244  23687114.8674                   23687113.6454
 -13335188.04348 -10379182.56645  21769127.0314                   21769124.3984
 -12783750.35948  -9949439.45746  22098472.8914                   22098472.0204
 11  8 18  1 34 30.0000000  0  8G10G29G12G05G02G04G30G25
 -21670180.28148 -16862026.21945  21842072.9924                   21842069.7424
   1091565.18047    860085.75044  24103980.5164                   24103978.8134
 -24572803.67648 -19140876.50446  20734732.6024                   20734729.4264
 -25071074.98448 -19528567.88747  20378976.1094                   20378973.2114
 -28551500.46948 -22240667.84446  20971713.3834                   20971708.4024
 -18472014.68447 -14386018.62144  23697909.6254                   23697908.4614
 -13398607.91848 -10428600.65645  21757058.8204                   21757055.9924
 -12863421.25448 -10011520.67646  22083311.8364                   22083311.0474
 11  8 18  1 35  0.0000000  0  8G10G29G12G05G02G04G30G25
 -21620111.51648 -16823011.57445  21851600.4614                   21851597.4654
    985175.11347    777184.45344  24083735.2894                   24083733.8634
 -24587008.60548 -19151945.29746  20732029.2194                   20732025.9454
 -25125000.85548 -19570588.00447  20368713.9924                   20368711.4774
 -28548181.04748 -22238081.26646  20972344.9614                   20972339.8754
 -18415315.94546 -14341837.78944  23708698.6174                   23708698.3484
 -13461439.03948 -10477559.98045  21745102.2504                   21745099.6214
 -12942586.23448 -10073207.67646  22068247.2424                   22068247.0634
 11  8 18  1 35 30.0000000  0  8G10G29G12G05G02G04G30G25
 -21569594.70748 -16783647.82445  21861213.0784                   21861210.9694
    878739.75847    694247.89144  24063480.9614                   24063479.1844
 -24600622.26648 -19162553.34846  20729438.6094                   20729435.2074
 -25178348.77348 -19612157.78147  20358562.5164                   20358559.6564
 -28544711.29748 -22235377.55146  20973005.3754                   20973000.1334
 -18358647.19146 -14297680.33243  23719483.0234                   23719481.1134
 -13523679.68048 -10526059.18045  21733258.3054                   21733256.0084
 -13021242.86748 -10134498.54746  22053279.0864                   22053278.9534
 11  8 18  1 36  0.0000000  0  8G10G29G12G05G02G04G30G25
 -21518632.67247 -16743937.14145  21870911.4304                   21870908.6724
    772259.65247    611276.40244  24043218.4774                   24043216.7664
 -24613645.41848 -19172701.27046  20726960.3984                   20726957.1524
 -25231118.39148 -19653276.93747  20348520.5004                   20348517.9344
 -28541092.49648 -22232557.70346  20973693.8134                   20973688.7814
 -18302009.51246 -14253547.06243  23730261.2034                   23730258.6844
 -13585328.81248 -10574097.47745  21721526.9144                   21721524.3984
 -13099389.57448 -10195392.07446  22038408.4774                   22038407.7894
 11  8 18  1 36 30.0000000  0  8G10G29G12G05G02G04G30G25
 -21467226.28948 -16703880.22745  21880693.5634                   21880691.2424
    665737.59046    528272.23844  24022947.9384                   24022946.0124
 -24626076.35948 -19182387.72747  20724594.8134                   20724591.8554
 -25283307.25848 -19693943.55947  20338589.3134                   20338586.4774
 -28537323.41048 -22229620.75846  20974411.0704                   20974406.3204
 -18245401.56247 -14209436.98044  23741033.1724                   23741031.8364
 -13646383.24648 -10621672.36345  21709908.6644                   21709906.1294
 -13177022.45748 -10255885.21146  22023635.3204                   22023634.7424
 11  8 18  1 37  0.0000000  0  8G10G29G12G05G02G04G30G25
 -21415379.99247 -16663480.50445  21890559.6094                   21890556.4734
    559172.70346    445234.70744  24002668.6884                   24002666.9614
 -24637917.41448 -19191614.53146  20722341.6804                   20722338.5274
 -25334916.19548 -19734158.28947  20328768.3834                   20328765.4964
 -28533406.83248 -22226568.86746  20975156.4224                   20975151.6844
 -18188825.69547 -14165351.87544  23751799.2894                   23751798.1454
 -13706843.69948 -10668784.41045  21698403.6804                   21698401.1684
 -13254141.53148 -10315978.00046  22008959.9844                   22008959.5594
 11  8 18  1 37 30.0000000  0  8G10G29G12G05G02G04G30G25
 -21363096.62548 -16622740.20345  21900508.8914                   21900506.3954
    452565.77746    362164.43844  23982382.3594                   23982380.2274
 -24649168.94148 -19200381.95746  20720200.6484                   20720197.2704
 -25385944.89548 -19773920.88747  20319057.9144                   20319055.0824
 -28529343.64548 -22223402.73446  20975929.9304                   20975924.6094
 -18132282.57847 -14121292.29744  23762559.2194                   23762558.1684
 -13766709.07048 -10715432.75445  21687011.3364                   21687008.6604
 -13330745.05148 -10375669.05946  21994383.1024                   21994382.1214
 11  8 18  1 38  0.0000000  0  8G10G29G12G05G02G04G30G25
 -21310376.75847 -16581659.78945  21910541.0704                   21910538.2734
    345919.60546    279063.57844  23962088.6644                   23962086.7114
 -24659829.71148 -19208689.05946  20718172.1644                   20718168.5824
 -25436390.85248 -19813229.40247  20309458.6334                   20309455.4534
 -28525132.69948 -22220121.47346  20976730.9454                   20976725.7894
 -18075771.10547 -14077257.37144  23773312.2034                   23773311.1214
 -13825976.32847 -10761615.04345  21675733.3524                   21675730.7034
 -13406829.25848 -10434955.44946  21979904.8364                   21979904.0634
 11  8 18  1 38 30.0000000  0  8G10G29G12G05G02G04G30G25
 -21257226.35547 -16540243.90645  21920655.2344                   21920652.8444
    239231.72346    195930.21144  23941786.1024                   23941784.3094
 -24669903.24248 -19216538.55946  20716254.9224                   20716251.7344
 -25486256.54348 -19852085.75447  20299969.5314                   20299966.8674
 -28520778.28148 -22216728.41446  20977559.6094                   20977553.9734
 -18019294.85547 -14033249.86743  23784059.3054                   23784058.6414
 -13884647.51248 -10807332.85545  21664568.7274                   21664566.3284
 -13482395.56648 -10493838.28946  21965524.8674                   21965523.9104
 11  8 18  1 39  0.0000000  0  8G10G29G12G05G02G04G30G25
 -21203647.47347 -16498494.12545  21930851.0704                   21930848.6214
    132504.17246    112765.91844  23921476.0004                   23921474.9224
 -24679389.52048 -19223930.46146  20714449.6804                   20714446.3484
 -25535540.37548 -19890488.70747  20290591.2584                   20290587.9304
 -28516279.96948 -22213223.23046  20978415.5004                   20978410.4774
 -17962853.52747 -13989269.56244  23794800.1804                   23794798.6094
 -13942720.60948 -10852584.61345  21653517.7504                   21653515.1024
 -13557441.17648 -10552315.36746  21951243.7194                   21951243.8834
 11  8 18  1 39 30.0000000  0  8G10G29G12G05G02G04G30G25
 -21149645.31647 -16456414.51245  21941126.7894                   21941124.3204
     25735.37946     29569.48444  23901159.2894                   23901157.1914
 -24688291.49248 -19230867.06646  20712755.7734                   20712752.8834
 -25584244.89548 -19928440.25447  20281322.8524                   20281320.0984
 -28511641.37948 -22209608.74246  20979298.0314                   20979293.1374
 -17906450.43447 -13945319.07044  23805533.0944                   23805531.9574
 -14000197.28547 -10897371.63745  21642580.1644                   21642577.3634
 -13631967.12948 -10610387.52746  21937062.2504                   21937061.6604
 11  8 18  1 40  0.0000000  0  8G10G29G12G05G02G04G30G25
 -21095217.44547 -16414003.19145  21951484.3834                   21951481.4414
    -81068.94546    -53654.64544  23880834.4844                   23880833.1094
 -24696604.18448 -19237344.47346  20711173.8834                   20711170.9804
 -25632364.22748 -19965935.80147  20272165.9774                   20272163.1804
 -28506858.33648 -22205881.68446  20980208.2814                   20980203.2734
 -17850081.15647 -13901394.96144  23816260.3134                   23816258.3914
 -14057071.57047 -10941689.25045  21631757.2584                   21631754.6994
 -13705966.69548 -10668049.51646  21922980.6254                   21922979.7624
 11  8 18  1 40 30.0000000  0  8G10G29G12G05G02G04G30G25
 -21040368.77047 -16371263.96945  21961921.6954                   21961919.1294
   -187909.28146   -136906.83244  23860503.9064                   23860502.5394
 -24704331.09448 -19243365.43746  20709703.4614                   20709700.0274
 -25679900.18748 -20002976.78947  20263120.2504                   20263117.2734
 -28501933.76247 -22202044.34846  20981145.5004                   20981140.3984
 -17793748.08247 -13857499.03944  23826979.9454                   23826978.5204
 -14113344.32047 -10985538.13745  21621049.0944                   21621046.4454
 -13779440.03948 -10725301.45746  21908999.0554                   21908998.0474
 11  8 18  1 41  0.0000000  0  8G10G29G12G05G02G04G30G25
 -20985103.61347 -16328200.20345  21972438.3364                   21972435.4144
   -294786.79746   -220188.05143  23840165.7814                   23840162.7504
 -24711474.22748 -19248931.50847  20708344.2974                   20708341.0164
 -25726853.69148 -20039563.90247  20254185.1724                   20254182.4414
 -28496869.69148 -22198098.32046  20982108.9844                   20982104.0394
 -17737453.30547 -13813633.00444  23837692.5474                   23837690.6414
 -14169016.15247 -11028918.76645  21610455.0554                   21610452.5354
 -13852387.01648 -10782143.25046  21895117.6414                   21895117.1604
 11  8 18  1 41 30.0000000  0  8G10G29G12G05G02G04G30G25
 -20929423.35547 -16284812.98445  21983034.0944                   21983031.4734
   -401698.77746   -303496.11343  23819821.0084                   23819819.1954
 -24718032.78948 -19254042.07046  20707096.2424                   20707092.8594
 -25773223.19548 -20075695.96147  20245361.4304                   20245358.3014
 -28491666.17248 -22194043.62946  20983099.0394                   20983094.4414
 -17681196.27046 -13769796.36743  23848397.4384                   23848396.0744
 -14224084.91447 -11071829.46545  21599975.5704                   21599972.8204
 -13924804.74248 -10838572.63346  21881336.8594                   21881336.2584
 11  8 18  1 42  0.0000000  0  8G10G29G12G05G02G04G30G25
 -20873330.56647 -16241104.31645  21993707.8914                   21993705.6054
   -508644.14147   -386830.17644  23799470.0314                   23799468.2894
 -24724006.43748 -19258696.85247  20705959.4614                   20705956.1454
 -25819007.91848 -20111372.34047  20236648.4844                   20236645.7344
 -28486323.37548 -22189880.41046  20984116.1414                   20984110.8134
 -17624977.32446 -13725989.38343  23859096.2274                   23859093.8364
 -14278549.42248 -11114269.30546  21589611.4694                   21589608.9454
 -13996691.31248 -10894588.13346  21867657.4924                   21867656.7624
 11  8 18  1 42 30.0000000  0  8G10G29G12G05G02G04G30G25
 -20816829.05147 -16197077.16845  22004460.0084                   22004457.1214
   -615622.92647   -470190.29343  23779112.8204                   23779109.3674
 -24729397.89848 -19262897.97346  20704933.6484                   20704930.0164
 -25864208.53548 -20146593.57047  20228047.3204                   20228044.4024
 -28480843.07848 -22185610.03946  20985159.1414                   20985153.9064
 -17568797.75846 -13682213.12143  23869786.7504                   23869784.7934
 -14332409.82847 -11156238.41845  21579361.9844                   21579359.4304
 -14068046.13348 -10950189.27046  21854079.1094                   21854078.5204
 11  8 18  1 43  0.0000000  0  8G10G29G12G05G02G04G30G25
 -20759921.91847 -16152733.93045  22015289.5394                   22015285.5164
   -722634.87547   -553576.26643  23758748.5554                   23758746.1644
 -24734208.57048 -19266646.54746  20704018.0554                   20704014.8164
 -25908825.15248 -20181359.73847  20219557.2584                   20219553.9304
 -28475226.71548 -22181233.64846  20986227.7504                   20986222.5744
 -17512658.87546 -13638468.52743  23880469.0944                   23880467.3204
 -14385665.68047 -11197736.44546  21569227.8834                   21569225.4694
 -14138867.96548 -11005375.09846  21840602.0944                   21840601.4224
 11  8 18  1 43 30.0000000  0  8G10G29G12G05G02G04G30G25
 -20702611.80147 -16108076.69545  22026195.0784                   22026191.7504
   -829678.44147   -636986.85544  23738379.5004                   23738375.6684
 -24738438.57848 -19269942.66446  20703213.1174                   20703209.8954
 -25952857.25848 -20215670.44147  20211177.9384                   20211175.0474
 -28469474.91048 -22176751.71946  20987322.1024                   20987317.1724
 -17456560.61746 -13594755.61343  23891144.5234                   23891143.3404
 -14438315.91847 -11238762.57046  21559209.1884                   21559205.9804
 -14209154.96548 -11060144.16046  21827227.0784                   21827226.3324
 11  8 18  1 44  0.0000000  0  8G10G29G12G05G02G04G30G25
 -20644899.21947 -16063105.83645  22037177.0164                   22037174.4184
   -936750.63747   -720419.72744  23718004.3524                   23718001.2854
 -24742086.60248 -19272785.27746  20702519.0004                   20702515.6844
 -25996302.63748 -20249523.95747  20202910.6804                   20202907.9614
 -28463586.01648 -22172162.96946  20988442.7344                   20988437.8014
 -17400501.67246 -13551073.36743  23901811.9144                   23901810.6684
 -14490357.59047 -11279314.48045  21549305.4384                   21549302.4884
 -14278903.49648 -11114493.62546  21813954.5234                   21813953.8674
 11  8 18  1 44 30.0000000  0  8G10G29G12G05G02G04G30G25
 -20586789.07847 -16017825.19145  22048234.7424                   22048232.5434
  -1043852.16847   -803875.40644  23697623.3134                   23697622.2034
 -24745154.95348 -19275176.19946  20701934.8594                   20701931.6214
 -26039162.82448 -20282921.47347  20194754.7194                   20194751.7384
 -28457562.71148 -22167469.47746  20989588.8444                   20989584.0354
 -17344484.16846 -13507423.37543  23912471.6884                   23912470.5314
 -14541791.80147 -11319393.03945  21539517.6484                   21539515.1684
 -14348113.84048 -11168423.73046  21800783.9454                   21800783.1844
 11  8 18  1 45  0.0000000  0  8G10G29G12G05G02G04G30G25
 -20528286.87547 -15972239.04345  22059367.3204                   22059365.3484
  -1150984.55947   -887355.16444  23677236.8134                   23677234.4804
 -24747647.71148 -19277118.61746  20701460.8834                   20701457.4734
 -26081439.77048 -20315864.52347  20186709.3834                   20186706.5634
 -28451408.66448 -22162674.10246  20990760.1804                   20990754.8954
 -17288511.25047 -13463808.14143  23923123.2344                   23923121.6054
 -14592620.45747 -11358999.75845  21529845.4534                   21529842.6294
 -14416787.10248 -11221935.32846  21787715.8204                   21787715.4414
 11  8 18  1 45 30.0000000  0  8G10G29G12G05G02G04G30G25
 -20469392.10247 -15926347.00045  22070574.8204                   22070572.4264
  -1258143.79347   -970855.80144  23656845.2664                   23656843.4064
 -24749562.13348 -19278610.38346  20701096.4534                   20701092.9844
 -26123130.38748 -20348350.69147  20178776.0394                   20178773.0474
 -28445121.30548 -22157774.85246  20991956.3914                   20991951.3754
 -17232580.10547 -13420225.44943  23933766.8204                   23933764.8244
 -14642839.49248 -11398131.43045  21520288.9694                   21520285.9144
 -14484918.42248 -11275024.62546  21774750.7424                   21774750.4614
 11  8 18  1 46  0.0000000  0  8G10G29G12G05G02G04G30G25
 -20410108.63347 -15880152.09845  22081856.2344                   22081852.8984
  -1365329.64147  -1054377.19944  23636448.5944                   23636446.0044
 -24750900.43448 -19279653.22746  20700841.4774                   20700838.3364
 -26164235.56648 -20380380.68047  20170953.9844                   20170951.1214
 -28438702.32448 -22152773.03146  20993177.7664                   20993172.8914
 -17176692.45746 -13376676.63743  23944401.7034                   23944399.1644
 -14692449.48848 -11436788.53146  21510848.4454                   21510846.2154
 -14552507.57848 -11327691.46946  21761889.1644                   21761888.4654
 11  8 18  1 46 30.0000000  0  8G10G29G12G05G02G04G30G25
 -20350439.49247 -15833656.62545  22093210.6884                   22093207.6094
  -1472541.21546  -1137918.60244  23616046.3204                   23616044.3714
 -24751663.55548 -19280247.87146  20700696.5394                   20700693.2304
 -26204755.68748 -20411954.78547  20163243.1484                   20163240.2584
 -28432152.73848 -22147669.44946  20994424.3284                   20994419.3674
 -17120848.93746 -13333162.22343  23955028.3444                   23955026.4574
 -14741449.90648 -11474970.65645  21501524.0784                   21501521.2624
 -14619553.30548 -11379934.84846  21749130.8444                   21749130.1804
 11  8 18  1 47  0.0000000  0  8G10G29G12G05G02G04G30G25
 -18714969.03547 -14559264.05145  22404429.7504                   22404428.1094
     -4353.75846      6123.69544  23895433.5554                   23895431.4734
 -23176432.17248 -18052794.86746  21000453.0474                   21000449.8484
 -24669268.38748 -19215471.15247  20455436.7584                   20455433.8834
 -26850053.31648 -20914864.69546  21295487.6644                   21295482.8204
 -15489631.50846 -12062083.73043  24265438.7424                   24265436.9734
 -13214418.11348 -10285075.72746  21792108.7894                   21792105.9064
 -13110631.51248 -10204151.59846  22036269.0314                   22036268.5784
 11  8 18  1 47 30.0000000  0  8G10G29G12G05G02G04G30G25
 -18654536.58247 -14512173.81645  22415930.3134                   22415927.9534
   -111613.32846    -77455.10944  23875022.4844                   23875020.5474
 -23176047.53548 -18052495.16846  21000526.2274                   21000522.8794
 -24708616.69948 -19246132.15247  20447949.0704                   20447946.1414
 -26843244.27747 -20909558.94546  21296783.3914                   21296778.3674
 -15433876.96146 -12018638.68043  24276048.0784                   24276046.7544
 -13262197.04348 -10322306.06245  21783016.7194                   21783013.6254
 -13176585.52748 -10255544.29346  22023718.0394                   22023717.3674
 11  8 18  1 48  0.0000000  0  8G10G29G12G05G02G04G30G25
 -18593725.46547 -14464788.52045  22427502.1804                   22427499.1024
   -218893.72347   -161050.14144  23854607.1254                   23854605.2704
 -23175089.15648 -18051748.39146  21000708.6174                   21000705.5594
 -24747378.07048 -19276335.80147  20440573.0084                   20440570.5124
 -26836305.33248 -20904151.96146  21298103.9224                   21298098.7114
 -15378166.23846 -11975227.77043  24286650.0084                   24286648.7114
 -13309362.93048 -10359058.68746  21774041.4224                   21774038.6414
 -13241990.18448 -10306508.93046  22011272.1174                   22011271.4614
 11  8 18  1 48 30.0000000  0  8G10G29G12G05G02G04G30G25
 -18532538.80947 -14417110.59445  22439145.9614                   22439143.1024
   -326194.18047   -244660.77344  23834188.5784                   23834186.8634
 -23173558.28548 -18050555.51646  21001000.1094                   21000996.7814
 -24785552.33648 -19306081.96547  20433308.7734                   20433305.7194
 -26829237.46148 -20898644.52046  21299448.6954                   21299443.8794
 -15322500.02747 -11931851.51243  24297243.1484                   24297240.5084
 -13355915.43448 -10395333.35946  21765182.6804                   21765179.8914
 -13306844.29748 -10357044.56646  21998930.6804                   21998930.5274
 11  8 18  1 49  0.0000000  0  8G10G29G12G05G02G04G30G25
 -18470983.32847 -14369145.25445  22450859.6724                   22450856.8284
   -433518.05946   -328289.68744  23813765.2584                   23813763.7464
 -23171460.05948 -18048920.55546  21001399.0634                   21001396.1294
 -24823143.46548 -19335373.73047  20426155.2504                   20426152.1994
 -26822045.52748 -20893040.39546  21300817.3594                   21300812.4534
 -15266882.93747 -11888513.51244  24307826.6334                   24307825.0554
 -13401858.32048 -10431133.01245  21756439.9224                   21756437.0704
 -13371150.74648 -10407153.45746  21986693.6954                   21986693.4534
 11  8 18  1 49 30.0000000  0  8G10G29G12G05G02G04G30G25
 -18409058.62147 -14320892.23445  22462643.6254                   22462640.3364
   -540860.55547   -411933.10545  23793339.0554                   23793336.8634
 -23168792.50448 -18046841.96146  21001906.7664                   21001903.7274
 -24860148.38348 -19364208.70747  20419113.4454                   20419110.5084
 -26814726.85548 -20887337.52346  21302210.0944                   21302205.2504
 -15211312.19947 -11845211.67643  24318401.6174                   24318399.3134
 -13447187.74248 -10466454.64846  21747814.1094                   21747811.8594
 -13434904.97348 -10456832.06246  21974561.4304                   21974560.7074
 11  8 18  1 50  0.0000000  0  8G10G29G12G05G02G04G30G25
 -18346771.02747 -14272356.43445  22474496.1954                   22474493.6454
   -648223.60247   -495592.55144  23772908.4844                   23772905.8484
 -23165559.84848 -18044323.02046  21002522.2034                   21002518.8364
 -24896570.33648 -19392589.43047  20412182.6644                   20412179.4454
 -26807285.30148 -20881538.87946  21303626.4064                   21303621.1604
 -15155791.27746 -11801948.62543  24328966.5164                   24328964.1684
 -13491906.31248 -10501300.30946  21739304.2664                   21739301.2734
 -13498108.74648 -10506081.73046  21962534.0314                   21962533.5314
 11  8 18  1 50 30.0000000  0  8G10G29G12G05G02G04G30G25
 -18284119.30147 -14223536.89545  22486418.4614                   22486416.0434
   -755602.33647   -579264.22744  23752475.0004                   23752473.3634
 -23161758.67648 -18041361.08646  21003245.5314                   21003242.2734
 -24932405.30948 -19420512.76247  20405363.3594                   20405360.4064
 -26799717.94148 -20875642.21146  21305066.1884                   21305061.0354
 -15100316.50446 -11758721.52043  24339523.2584                   24339519.9024
 -13536009.64848 -10535666.57446  21730911.2974                   21730909.2114
 -13560756.73448 -10554898.34046  21950612.8284                   21950611.7074
 11  8 18  1 51  0.0000000  0  8G10G29G12G05G02G04G30G25
 -18221107.20347 -14174436.55545  22498409.2194                   22498406.5554
   -862996.48047   -662947.89844  23732038.5704                   23732036.4494
 -23157391.63748 -18037958.20346  21004076.9064                   21004072.9494
 -24967654.39148 -19447979.55147  20398655.6094                   20398652.7854
 -26792025.93448 -20869648.43046  21306530.0314                   21306524.5944
 -15044889.32846 -11715531.49243  24350070.9924                   24350069.1254
 -13579498.40248 -10569553.93045  21722636.6484                   21722633.1764
 -13622848.74648 -10603281.71946  21938796.7584                   21938796.3594
 11  8 18  1 51 30.0000000  0  8G10G29G12G05G02G04G30G25
 -18157739.31647 -14125058.98045  22510467.9844                   22510464.7234
   -970406.57447   -746644.03145  23711599.5864                   23711596.2934
 -23152461.62548 -18034116.64146  21005014.4534                   21005011.5634
 -25002319.69148 -19474991.44547  20392059.3594                   20392056.3794
 -26784212.10548 -20863559.69946  21308016.6644                   21308011.7304
 -14989512.03146 -11672380.32443  24360608.1644                   24360607.3014
 -13622373.90648 -10602963.44145  21714477.2034                   21714474.6374
 -13684385.43048 -10651232.38346  21927087.0164                   21927086.4024
 11  8 18  1 52  0.0000000  0  8G10G29G12G05G02G04G30G25
 -18094017.02347 -14075405.23845  22522593.8364                   22522591.0274
  -1077830.00047   -830350.57444  23691157.0084                   23691153.6914
 -23146968.58648 -18029836.35946  21006059.9224                   21006057.1884
 -25036399.59848 -19501547.18447  20385573.6724                   20385570.6254
 -26776275.12948 -20857375.02046  21309527.1174                   21309521.8634
 -14934183.19947 -11629266.95344  24371137.1884                   24371135.3914
 -13664634.13348 -10635893.50446  21706435.6484                   21706432.5784
 -13745363.71948 -10698747.94146  21915483.1484                   21915482.6454
 11  8 18  1 52 30.0000000  0  9G26G10G29G12G05G02G04G30G25
   6131315.98055   4788164.32853  24923362.6094                   24923364.1054
 -18029943.58647 -14025477.87145  22534786.4384                   22534783.7814
  -1185265.91047   -914066.87544  23670712.7894                   23670709.4534
 -23140913.54348 -18025118.14546  21007212.1804                   21007209.1414
 -25069894.45348 -19527647.05147  20379200.1804                   20379196.9344
 -26768216.02048 -20851095.16846  21311060.7194                   21311055.6844
 -14878903.47746 -11586191.84844  24381656.9614                   24381655.2664
 -13706279.01648 -10668344.10546  21698510.6094                   21698508.0234
 -13805782.74648 -10745827.71146  21903986.0634                   21903985.4654
 11  8 18  1 53  0.0000000  0  9G26G10G29G12G05G02G04G30G25
   6014775.98846   4697354.10943  24901186.7114                   24901186.1804
 -17965530.22347 -13975285.63745  22547043.8204                   22547041.2504
  -1292721.41847   -997798.40644  23650264.4384                   23650262.0234
 -23134306.12147 -18019969.51247  21008469.4844                   21008466.6724
 -25102812.89548 -19553297.75447  20372935.9064                   20372932.8674
 -26760044.63348 -20844727.83246  21312615.6954                   21312610.7504
 -14823681.69546 -11543161.89843  24392165.3914                   24392163.3164
 -13747316.75848 -10700321.59845  21690701.7664                   21690698.9534
 -13865649.81248 -10792477.40246  21892593.3284                   21892592.8164
 11  8 18  1 53 30.0000000  0  9G26G10G29G12G05G02G04G30G25
   5898097.24646   4606435.77343  24878983.7194                   24878983.4884
 -17900784.55147 -13924834.44945  22559364.5944                   22559361.9734
  -1400199.96547  -1081547.92244  23629812.2274                   23629809.0354
 -23127152.69148 -18014395.40246  21009830.8674                   21009827.4614
 -25135159.71548 -19578503.03947  20366780.1564                   20366777.3484
 -26751765.49648 -20838276.53946  21314191.1414                   21314186.0434
 -14768522.96146 -11500181.07043  24402661.2274                   24402660.6174
 -13787751.78148 -10731829.44146  21683007.2664                   21683004.5234
 -13924968.48448 -10838699.75846  21881305.4144                   21881304.7814
 11  8 18  1 54  0.0000000  0  9G26G10G29G12G05G02G04G30G25
   5781286.90246   4515414.82843  24856755.2424                   24856754.5474
 -17835705.25847 -13874123.30545  22571749.3284                   22571746.6644
  -1507696.04747  -1165311.09044  23609356.2974                   23609354.0744
 -23119450.31248 -18008393.55146  21011296.3834                   21011293.3754
 -25166931.02748 -19603259.87947  20360734.4384                   20360731.5904
 -26743375.30948 -20831738.70346  21315787.9454                   21315782.6764
 -14713423.23846 -11457246.26243  24413146.0164                   24413144.5044
 -13827579.66448 -10762864.16446  21675428.1484                   21675425.1334
 -13983733.44148 -10884490.65246  21870122.7664                   21870122.2974
 11  8 18  1 54 30.0000000  0  9G26G10G29G12G05G02G04G30G25
   5664350.60546   4424295.77043  24834502.8444                   24834501.7624
 -17770292.24247 -13823152.12145  22584196.6644                   22584194.6374
  -1615205.85247  -1249084.96144  23588897.5784                   23588895.5864
 -23111196.83248 -18001962.27046  21012866.8834                   21012863.9924
 -25198124.40648 -19627566.37547  20354798.5394                   20354795.4884
 -26734871.87548 -20825112.62546  21317405.6804                   21317400.8634
 -14658380.34446 -11414355.75843  24423620.4224                   24423619.1954
 -13866797.30548 -10793423.37546  21667964.7504                   21667962.6054
 -14041940.67648 -10929846.96146  21859046.5474                   21859046.2304
 11  8 18  1 55  0.0000000  0  9G26G10G29G12G05G02G04G30G25
   5547294.00046   4333082.91443  24812227.3364                   24812226.1764
 -17704546.06247 -13771921.34045  22596707.3914                   22596704.6884
  -1722725.22747  -1332866.27344  23568436.8834                   23568435.0394
 -23102391.59448 -17995101.04746  21014542.8834                   21014539.4304
 -25228737.61348 -19651420.80147  20348973.0164                   20348969.9304
 -26726253.28548 -20818396.83646  21319045.7504                   21319040.9614
 -14603391.75046 -11371507.52043  24434084.9224                   24434082.9884
 -13905401.93048 -10823504.91446  21660619.0864                   21660616.1524
 -14099586.53548 -10974765.82446  21848076.9144                   21848076.3054
 11  8 18  1 55 30.0000000  0  9G26G10G29G12G05G02G04G30G25
   5430121.26246   4241779.61743  24789929.8054                   24789929.0084
 -17638468.02347 -13720431.96145  22609281.8134                   22609278.6684
  -1830251.61347  -1416653.06644  23547975.6254                   23547974.2704
 -23093034.52748 -17987809.82046  21016323.3364                   21016320.1644
 -25258769.33648 -19674822.11747  20343258.2584                   20343255.1024
 -26717518.73448 -20811590.67646  21320708.0704                   21320702.6644
 -14548456.57446 -11328700.86743  24444538.7034                   24444536.8714
 -13943391.88348 -10853107.47346  21653390.1174                   21653387.4224
 -14156668.49648 -11019245.27346  21837214.5864                   21837214.0594
 11  8 18  1 56  0.0000000  0  9G26G10G29G12G05G02G04G30G25
   5312834.01246   4150387.06343  24767611.6644                   24767609.0234
 -17572061.75047 -13668686.79744  22621918.4304                   22621915.5744
  -1937784.91447  -1500445.20744  23527512.5554                   23527510.8794
 -23083127.67648 -17980090.19946  21018208.6484                   21018205.1884
 -25288221.01248 -19697771.45347  20337653.7194                   20337651.0044
 -26708669.77048 -20804695.36346  21322392.0864                   21322386.7464
 -14493575.95346 -11285936.76643  24454982.6334                   24454980.0314
 -13980768.11748 -10882231.80945  21646277.3754                   21646274.7464
 -14213186.52748 -11063285.30946  21826459.6334                   21826458.4884
 11  8 18  1 56 30.0000000  0  9G26G10G29G12G05G02G04G30G25
   5195437.71146   4058909.59443  24745271.1094                   24745269.2974
 -17505328.32047 -13616686.71544  22634617.4614                   22634614.8714
  -2045321.41847  -1584239.84044  23507049.1414                   23507047.4694
 -23072670.53548 -17971941.77046  21020198.4774                   21020194.9804
 -25317090.41848 -19720267.07047  20332160.0234                   20332157.2344
 -26699705.00048 -20797709.81646  21324097.9614                   21324092.4884
 -14438747.88746 -11243213.55543  24465415.3594                   24465413.6684
 -14017528.12148 -10910875.94946  21639282.1254                   21639279.5234
 -14269137.23448 -11106883.26646  21815812.4774                   21815811.9264
 11  8 18  1 57  0.0000000  0  9G26G10G29G12G05G02G04G30G25
   5077933.99646   3967348.39843  24722911.4144                   24722910.4264
 -17438271.76647 -13564434.85244  22647378.1484                   22647375.0164
  -2152861.18447  -1668037.04345  23486585.2274                   23486583.0744
 -23061665.84048 -17963366.68046  21022292.6024                   21022289.3984
 -25345379.52048 -19742310.49647  20326776.7664                   20326773.6484
 -26690625.83248 -20790635.12546  21325825.5634                   21325820.2074
 -14383973.87546 -11200532.48443  24475838.1884                   24475837.1724
 -14053673.22348 -10939040.94546  21632404.1804                   21632401.6804
 -14324521.04348 -11150039.47346  21805273.3984                   21805272.4304
 11  8 18  1 57 30.0000000  0  9G26G10G29G12G05G02G04G30G25
   4960326.05946   3875706.04343  24700530.3984                   24700530.8954
 -17370894.35946 -13511932.99644  22660199.2894                   22660197.0394
  -2260402.44547  -1751835.39544  23466120.2344                   23466118.9384
 -23050114.44948 -17954365.60546  21024491.0554                   21024487.2624
 -25373088.41848 -19763901.82847  20321503.7584                   20321500.8014
 -26681432.44148 -20783471.44546  21327574.9384                   21327569.9534
 -14329253.98446 -11157893.58243  24486250.6254                   24486250.2664
 -14089202.87148 -10966726.37146  21625642.8524                   21625639.9734
 -14379336.49648 -11192752.80946  21794842.1334                   21794840.8954
 11  8 18  1 58  0.0000000  0  9G26G10G29G12G05G02G04G30G25
   4842617.51245   3783985.29743  24678130.7194                   24678130.7194
 -17303198.41047 -13459182.91044  22673081.7664                   22673078.7464
  -2367943.25047  -1835633.36745  23445656.6254                   23445654.4344
 -23038017.32448 -17944939.27346  21026792.6094                   21026789.4694
 -25400216.62148 -19785040.66447  20316341.3364                   20316338.5434
 -26672124.94948 -20776218.84046  21329346.1804                   21329340.9144
 -14274587.84046 -11115296.57443  24496653.5394                   24496652.8874
 -14124116.41048 -10993931.70746  21618998.7424                   21618996.5634
 -14433581.97348 -11235021.99246  21784519.7114                   21784518.6134
 11  8 18  1 58 30.0000000  0  9G26G10G29G12G05G02G04G30G25
   4724809.87145   3692187.30943  24655712.0784                   24655712.2734
 -17235188.48447 -13406188.16445  22686023.5634                   22686020.6604
  -2475483.48847  -1919430.90645  23425192.3594                   23425189.5664
 -23025377.14548 -17935089.78546  21029198.0704                   21029194.6764
 -25426766.04348 -19805728.50047  20311289.4144                   20311286.2934
 -26662705.25848 -20768878.80946  21331138.6414                   21331133.6454
 -14219976.77746 -11072742.48043  24507046.4224                   24507044.9884
 -14158415.28548 -11020658.07846  21612471.7344                   21612469.8014
 -14487257.96148 -11276847.42646  21774305.5554                   21774304.5234
 11  8 18  1 59  0.0000000  0  9G26G10G29G12G05G02G04G30G25
   4606907.16846   3600315.26643  24633276.2664                   24633275.6644
 -17166866.05947 -13352949.89144  22699024.9844                   22699021.1684
  -2583020.87147  -2003226.24245  23404729.0234                   23404726.8554
 -23012194.34048 -17924817.48046  21031706.5704                   21031703.4144
 -25452735.98847 -19825964.79747  20306347.3134                   20306344.2384
 -26653173.09048 -20761451.13746  21332952.5234                   21332947.6334
 -14165420.38347 -11030230.99243  24517428.5394                   24517427.1524
 -14192098.41848 -11046904.65646  21606062.4534                   21606060.0124
 -14540362.63347 -11318227.66446  21764199.7034                   21764199.3794
 11  8 18  1 59 30.0000000  0  9G26G10G29G12G05G02G04G30G25
   4488909.66446   3508369.33243  24610821.4774                   24610821.8164
 -17098236.74246 -13299472.50844  22712084.6724                   22712081.5514
  -2690556.96147  -2087020.55945  23384265.3444                   23384262.3364
 -22998473.54348 -17914125.95746  21034317.7194                   21034314.3204
 -25478129.89147 -19845752.23047  20301515.2814                   20301511.9064
 -26643531.90647 -20753938.52746  21334787.3054                   21334782.3594
 -14110921.32847 -10987764.14543  24527799.5704                   24527797.9534
 -14225168.54748 -11072673.56246  21599769.5704                   21599766.7894
 -14592897.60548 -11359163.97346  21754202.5314                   21754202.1604
 11  8 18  2  0  0.0000000  0  9G26G10G29G12G05G02G04G30G25
   4370823.55546   3416354.29743  24588350.7974                   24588351.2464
 -17029300.62547 -13245756.05144  22725202.2114                   22725199.6334
  -2798087.30547  -2170810.39545  23363802.6334                   23363800.7504
 -22984213.15648 -17903013.96946  21037031.6884                   21037028.3134
 -25502945.22748 -19865088.83647  20296793.0474                   20296789.9924
 -26633778.92647 -20746338.78546  21336642.6724                   21336637.7814
 -14056477.03947 -10945339.89143  24538159.4224                   24538157.2664
 -14257622.78948 -11097962.55946  21593593.7344                   21593591.1564
 -14644859.12548 -11399653.43746  21744314.8914                   21744314.1214
 11  8 18  2  0 30.0000000  0  9G26G10G29G12G05G02G04G30G25
   4252651.79746   3324272.55143  24565863.8364                   24565862.8914
 -16960060.42647 -13191802.65644  22738378.8524                   22738376.3674
  -2905610.62547  -2254594.76245  23343341.5864                   23343339.5554
 -22969414.32848 -17891482.42246  21039847.8594                   21039844.2464
 -25527182.46148 -19883974.96547  20292180.7584                   20292177.6484
 -26623914.23447 -20738652.00046  21338520.2424                   21338515.0984
 -14002087.52346 -10902958.42642  24548508.8984                   24548507.8284
 -14289461.09048 -11122771.59446  21587534.3914                   21587532.1764
 -14696246.20748 -11439695.29746  21734536.3204                   21734535.4344
 11  8 18  2  1  0.0000000  0  9G26G10G29G12G05G02G04G30G25
   4134399.37147   3232127.94143  24543361.2194                   24543360.0234
 -16890516.92647 -13137612.91444  22751612.4844                   22751608.9734
  -3013123.13747  -2338370.72745  23322882.8444                   23322880.0904
 -22954077.25848 -17879531.46146  21042766.4064                   21042762.9614
 -25550840.05947 -19902409.43447  20287679.0234                   20287675.5514
 -26613936.89548 -20730877.43746  21340418.6564                   21340413.7734
 -13947750.95346 -10860618.15642  24558848.4064                   24558847.2424
 -14320681.66448 -11147099.30946  21581594.1644                   21581591.5554
 -14747056.03148 -11479287.33246  21724867.4614                   21724867.1024
 11  8 18  2  1 30.0000000  0  9G26G10G29G12G05G02G04G30G25
   4016066.85947   3139920.85943  24520843.2504                   24520842.0394
 -16820675.68447 -13083191.16444  22764901.7274                   22764900.1764
  -3120626.09447  -2422139.23045  23302425.5394                   23302423.4494
 -22938205.64548 -17867163.98446  21045786.1644                   21045783.0474
 -25573921.13747 -19920394.66847  20283286.7894                   20283283.5864
 -26603849.78148 -20723017.32446  21342338.4144                   21342333.3554
 -13893470.15246 -10818321.34442  24569178.0234                   24569176.1214
 -14351287.10948 -11170947.69546  21575769.7894                   21575766.8444
 -14797290.35548 -11518430.93046  21715307.9384                   21715307.5234
 11  8 18  2  2  0.0000000  0  9G26G10G29G12G05G02G04G30G25
   3897657.40247   3047653.78143  24498310.7344                   24498307.9924
 -16750539.31647 -13028539.46144  22778248.5004                   22778246.5314
  -3228117.96947  -2505899.11344  23281969.8524                   23281967.8014
 -22921801.10548 -17854381.23446  21048908.1954                   21048904.6954
 -25596425.91848 -19937930.84047  20279004.1024                   20279001.0204
 -26593653.13347 -20715071.87146  21344278.6804                   21344273.3914
 -13839245.14546 -10776068.06242  24579495.3134                   24579494.5004
 -14381277.41848 -11194316.76646  21570062.6174                   21570060.1804
 -14846948.20748 -11557125.32446  21705858.4304                   21705857.9924
 11  8 18  2  2 30.0000000  0  9G26G10G29G12G05G02G04G30G25
   3779174.91446   2955329.82443  24475764.2974                   24475761.3134
 -16680109.97747 -12973659.44944  22791651.4304                   22791647.7664
  -3335596.55547  -2589648.63345  23261517.9774                   23261515.7384
 -22904864.28148 -17841183.71146  21052131.2734                   21052127.8794
 -25618354.56648 -19955018.07847  20274831.3984                   20274828.1994
 -26583346.83647 -20707040.96946  21346239.9924                   21346234.8634
 -13785075.19946 -10733857.74242  24589803.4144                   24589803.1134
 -14410652.12548 -11217206.13746  21564472.7504                   21564470.4024
 -14896028.07448 -11595369.35246  21696518.7974                   21696517.8634
 11  8 18  2  3  0.0000000  0  9G26G10G29G12G05G02G04G30G25
   3660623.37946   2862952.09843  24453204.6024                   24453203.3444
 -16609389.31246 -12918552.43444  22805108.9454                   22805106.3054
  -3443059.17647  -2673385.70345  23241068.2034                   23241066.1294
 -22887395.85248 -17827571.95346  21055455.3834                   21055451.8754
 -25639706.42648 -19971655.86747  20270767.9774                   20270764.8874
 -26572930.16047 -20698924.05546  21348222.3284                   21348217.1724
 -13730959.46546 -10691689.68743  24600102.4924                   24600099.7774
 -14439410.22348 -11239615.03946  21559000.4774                   21558997.4414
 -14944528.05948 -11633161.51646  21687289.8594                   21687288.9104
 11  8 18  2  3 30.0000000  0  9G26G10G29G12G05G02G04G30G25
   3542004.27346   2770521.77343  24430631.2344                   24430630.7234
 -16538382.03946 -12863222.09044  22818621.2274                   22818618.7504
  -3550506.42247  -2757110.81244  23220621.5084                   23220618.8484
 -22869399.70748 -17813548.98846  21058879.5634                   21058876.3984
 -25660484.24247 -19987846.35947  20266814.1804                   20266811.0704
 -26562405.73047 -20690723.19946  21350225.0004                   21350219.8634
 -13676900.09446 -10649565.52743  24610390.1484                   24610387.4924
 -14467553.95748 -11261545.22346  21553644.5704                   21553642.0984
 -14992449.46148 -11670502.84846  21678170.7114                   21678169.8244
 11  8 18  2  4  0.0000000  0  9G26G10G29G12G05G02G04G30G25
   3423319.72746   2678040.48843  24408045.8444                   24408045.8524
 -16467091.73046 -12807671.21944  22832187.1094                   22832185.0744
  -3657937.45747  -2840823.27745  23200178.3674                   23200175.9924
 -22850878.06248 -17799116.53946  21062404.2424                   21062401.2234
 -25680689.09048 -20003590.37947  20262969.0864                   20262965.7704
 -26551774.14147 -20682438.82046  21352247.8284                   21352243.0084
 -13622897.87547 -10607485.92243  24620666.1724                   24620663.8444
 -14495084.24648 -11282997.39846  21548405.7194                   21548402.7464
 -15039792.17248 -11707393.25046  21669161.6564                   21669160.6954
 11  8 18  2  4 30.0000000  0  9G26G10G29G12G05G02G04G30G25
   3304572.24646   2585510.17643  24385449.3284                   24385449.0864
 -16395522.25446 -12751902.77744  22845806.5234                   22845803.9534
  -3765351.88346  -2924522.80544  23179737.6884                   23179735.5904
 -22831833.41048 -17784276.55546  21066028.1954                   21066024.9964
 -25700322.89548 -20018889.43047  20259233.0944                   20259229.7934
 -26541036.90247 -20674072.12146  21354291.4224                   21354285.7814
 -13568953.63347 -10565451.47343  24630932.0004                   24630929.2154
 -14522002.23448 -11303972.44546  21543283.6024                   21543280.9384
 -15086556.39148 -11743832.89546  21660262.7664                   21660261.6134
 11  8 18  2  5  0.0000000  0  9G26G10G29G12G05G02G04G30G25
   3185765.12546   2492933.37943  24362840.0704                   24362840.3444
 -16323675.87146 -12695918.59844  22859478.8134                   22859475.9384
  -3872747.48846  -3008207.65644  23159300.6804                   23159298.4534
 -22812267.30948 -17769030.25046  21069751.4534                   21069748.2384
 -25719385.92648 -20033743.72347  20255605.5704                   20255602.3554
 -26530194.26248 -20665623.29746  21356354.5164                   21356349.7344
 -13515067.25847 -10523462.10544  24641186.1254                   24641184.7074
 -14548307.96148 -11324470.41446  21538277.6564                   21538275.0164
 -15132741.19548 -11779821.04346  21651474.0314                   21651472.8874
 11  8 18  2  5 30.0000000  0  9G26G10G29G12G05G02G04G30G25
   3066900.68446   2400311.93843  24340221.5084                   24340221.6024
 -16251556.57446 -12639721.72344  22873202.3054                   22873199.9804
  -3980123.67646  -3091877.40244  23138868.5784                   23138865.7814
 -22792182.11748 -17753379.44946  21073573.8834                   21073570.6604
 -25737879.65648 -20048154.40647  20252086.2814                   20252082.8404
 -26519247.40247 -20657093.26246  21358437.4064                   21358432.5944
 -13461239.73447 -10481518.54343  24651428.9844                   24651427.5124
 -14574002.57047 -11344492.18746  21533388.4844                   21533385.5704
 -15178346.74248 -11815357.83646  21642795.2974                   21642794.4614
 11  8 18  2  6  0.0000000  0  8G26G10G29G12G05G02G30G25
   2947984.80146   2307650.37144  24317592.4224                   24317592.0124
 -16179164.06646 -12583311.99244  22886977.7344                   22886975.5864
  -4087476.52046  -3175528.93444  23118439.2584                   23118437.3134
 -22771577.07448 -17737323.57846  21077494.7344                   21077491.0354
 -25755802.48448 -20062120.23047  20248675.8134                   20248672.5204
 -26508194.09447 -20648480.27046  21360540.9774                   21360535.8204
 -14599083.77347 -11364035.97746  21528615.5944                   21528612.4494
 -15223369.85948 -11850440.78946  21634227.6564                   21634226.8054
 11  8 18  2  6 30.0000000  0  8G26G10G29G12G05G02G30G25
   2829019.95746   2214950.69144  24294953.8444                   24294954.0824
 -16106501.99246 -12526692.19544  22900805.1254                   22900802.5554
  -4194804.85246  -3259161.34845  23098015.7504                   23098013.0234
 -22750454.80148 -17720864.66846  21081514.2424                   21081510.8794
 -25773155.65648 -20075642.16047  20245373.3914                   20245369.9144
 -26497035.23847 -20639785.04746  21362664.6804                   21362659.4414
 -14623552.60547 -11383102.59046  21523959.0944                   21523956.6954
 -15267810.45748 -11885069.82446  21625770.9844                   21625770.5514
 11  8 18  2  7  0.0000000  0  8G26G10G29G12G05G02G30G25
   2710015.59047   2122220.15244  24272308.6484                   24272308.0164
 -16033567.36746 -12469860.00844  22914684.5474                   22914681.2424
  -4302101.35547  -3342768.99245  23077597.9694                   23077595.5634
 -22728810.85948 -17703999.25846  21085632.6804                   21085629.3714
 -25789933.78548 -20088716.00847  20242180.5944                   20242177.2464
 -26485765.41448 -20631003.34846  21364809.1884                   21364803.9614
 -14647403.47747 -11401687.68446  21519420.5864                   21519417.7034
 -15311662.04748 -11919239.89146  21617426.5234                   21617425.7624
 11  8 18  2  7 30.0000000  0  8G26G10G29G12G05G02G30G25
   2590979.89547   2029465.23044  24249656.7114                   24249656.0554
 -15960357.91846 -12412813.65244  22928615.6174                   22928612.1414
  -4409359.18447  -3426346.48845  23057187.2974                   23057185.0274
 -22706642.16448 -17686724.94946  21089851.4144                   21089848.0004
 -25806132.52748 -20101338.38747  20239098.0864                   20239094.7114
 -26474379.90248 -20622131.50446  21366975.6484                   21366970.2624
 -14670631.70347 -11419787.58646  21515000.4064                   21514997.0434
 -15354918.92248 -11952946.55146  21609194.9924                   21609194.0234
 11  8 18  2  8  0.0000000  0  8G26G10G29G12G05G02G30G25
   2471913.31347   1936686.22744  24226998.4384                   24226998.2384
 -15886878.93747 -12355557.28944  22942597.9304                   22942595.3164
  -4516579.44547  -3509894.72745  23036784.1564                   23036781.0904
 -22683953.01248 -17669045.09046  21094168.7034                   21094165.6414
 -25821755.60248 -20113512.19547  20236125.1024                   20236121.8404
 -26462881.64848 -20613171.81246  21369163.5944                   21369158.5474
 -14693240.37948 -11437404.72346  21510697.8134                   21510695.3324
 -15397583.15248 -11986191.40246  21601076.0084                   21601075.8954
 11  8 18  2  8 30.0000000  0  8G26G10G29G12G05G02G30G25
   2352817.07046   1843884.08243  24204335.5314                   24204334.3874
 -15813135.18446 -12298094.61744  22956631.0314                   22956628.2894
  -4623762.43047  -3593413.90245  23016387.6174                   23016385.3524
 -22660747.33248 -17650962.74646  21098585.0634                   21098581.6484
 -25836805.68048 -20125239.50847  20233261.1024                   20233257.9224
 -26451272.98448 -20604126.07846  21371372.6644                   21371367.4224
 -14715231.95748 -11454540.99646  21506513.1954                   21506510.3284
 -15439656.30948 -12018975.68446  21593070.0554                   21593069.4264
 11  8 18  2  9  0.0000000  0  8G26G10G29G12G05G02G30G25
   2233689.76246   1751057.78543  24181665.2504                   24181664.0514
 -15739134.02046 -12240431.38744  22970712.7344                   22970710.7194
  -4730911.14547  -3676906.38345  22995998.1884                   22995995.9144
 -22637031.53148 -17632482.90246  21103098.0164                   21103094.6724
 -25851288.58648 -20136524.87947  20230505.0474                   20230501.7114
 -26439558.84048 -20594998.15646  21373601.6564                   21373596.5594
 -14736611.75048 -11471200.56646  21502444.9694                   21502442.1094
 -15481142.60948 -12051302.67646  21585175.1414                   21585174.4884
 11  8 18  2  9 30.0000000  0  8G26G10G29G12G05G02G30G25
   2114533.91846   1658209.23843  24158991.3134                   24158989.5044
 -15664879.03546 -12182570.35244  22984843.3134                   22984840.8244
  -4838024.93447  -3760371.62145  22975615.1254                   22975612.4614
 -22612808.27348 -17613607.63346  21107707.4144                   21107703.9344
 -25865205.59448 -20147369.28147  20227856.9844                   20227853.5554
 -26427740.72348 -20585789.21546  21375850.4924                   21375845.4534
 -14757381.00848 -11487384.39146  21498492.4924                   21498489.5004
 -15522042.34848 -12083172.59446  21577392.1954                   21577391.6524
 11  8 18  2 10  0.0000000  0  8G26G10G29G12G05G02G30G25
   1995353.76646   1565341.69943  24136311.8364                   24136309.5824
 -15590372.06646 -12124512.96944  22999021.8444                   22999019.0904
  -4945101.34847  -3843807.74645  22955238.5704                   22955236.8284
 -22588078.93048 -17594338.01646  21112413.4774                   21112410.1054
 -25878556.91048 -20157772.89147  20225316.0864                   20225312.7974
 -26415817.74648 -20576498.57046  21378119.4224                   21378114.3204
 -14777539.53148 -11503092.30946  21494656.6884                   21494653.5124
 -15562354.17648 -12114584.40646  21569721.2194                   21569720.6684
 11  8 18  2 10 30.0000000  0  8G26G10G29G12G05G02G30G25
   1876152.60546   1472457.81343  24113628.3054                   24113627.3594
 -15515616.03147 -12066261.49644  23013247.3134                   23013243.7734
  -5052138.41847  -3927213.21145  22934870.3284                   22934868.2734
 -22562845.28948 -17574675.43746  21117215.0084                   21117211.7544
 -25891343.53948 -20167736.48047  20222882.7894                   20222879.6024
 -26403790.01647 -20567126.28946  21380408.2974                   21380403.1254
 -14797087.66847 -11518324.62146  21490936.6094                   21490933.7464
 -15602077.66048 -12145537.76246  21562161.8674                   21562161.1804
 11  8 18  2 11  0.0000000  0  8G26G10G29G12G05G02G30G25
   1756932.19947   1379558.96943  24090941.4144                   24090939.9844
 -15440615.19947 -12007819.30944  23027519.1564                   23027515.7664
  -5159136.14847  -4010588.01245  22914509.4614                   22914507.0554
 -22537110.46148 -17554622.31646  21122112.3134                   21122108.8714
 -25903567.92648 -20177261.96547  20220556.5084                   20220553.2544
 -26391659.49647 -20557673.91446  21382716.9304                   21382711.5554
 -14816027.74647 -11533083.10946  21487332.2734                   21487329.9064
 -15641213.99648 -12176033.59046  21554714.6254                   21554713.8594
 11  8 18  2 11 30.0000000  0  8G26G10G29G12G05G02G30G25
   1637696.21947   1286647.90644  24068251.8284                   24068250.6334
 -15365371.96147 -11949188.20344  23041837.5164                   23041834.5124
  -5266092.65647  -4093930.69545  22894156.0234                   22894153.7114
 -22510876.39548 -17534180.19946  21127104.4774                   21127101.2384
 -25915230.71548 -20186349.83247  20218337.3444                   20218334.0474
 -26379426.07848 -20548141.36346  21385044.4064                   21385039.3054
 -14834360.00847 -11547367.98446  21483843.8284                   21483841.0634
 -15679762.46548 -12206071.34446  21547379.2274                   21547378.9494
 11  8 18  2 12  0.0000000  0  8G26G10G29G12G05G02G30G25
   1518447.34847   1193726.84044  24045560.2734                   24045558.3244
 -15289889.23447 -11890370.49644  23056201.4774                   23056198.3594
  -5373006.31647  -4177239.97345  22873810.6724                   22873808.6994
 -22484145.45348 -17513350.88346  21132191.1884                   21132188.1914
 -25926333.14848 -20195001.05147  20216224.5554                   20216221.0904
 -26367090.54748 -20538529.23846  21387391.9774                   21387386.4534
 -14852085.40248 -11561179.98846  21480470.6644                   21480467.6414
 -15717722.94548 -12235650.92246  21540155.5314                   21540154.8674
 11  8 18  2 12 30.0000000  0  8G26G10G29G12G05G02G30G25
   1399189.06647   1100798.45744  24022865.6414                   24022863.8094
 -15214170.30147 -11831368.75844  23070610.0084                   23070608.1724
  -5479875.80947  -4260514.85245  22853474.7974                   22853472.6604
 -22456919.64148 -17492135.97746  21137371.9064                   21137369.2774
 -25936876.55548 -20203216.68047  20214218.0164                   20214214.7854
 -26354653.32048 -20528837.87946  21389758.6884                   21389753.1414
 -14869204.89847 -11574519.85546  21477213.2194                   21477210.1174
 -15755095.53148 -12264772.41046  21533043.5704                   21533043.3324
 11  8 18  2 13  0.0000000  0  8G26G10G29G12G05G02G30G25
   1279922.67247   1007863.70344  24000169.8594                   24000168.4844
 -15138219.80947 -11772186.56644  23085062.9064                   23085060.5744
  -5586701.59447  -4343755.69545  22833146.0864                   22833143.6604
 -22429203.12948 -17470538.69146  21142646.3054                   21142643.2544
 -25946863.98848 -20210999.07047  20212317.6024                   20212314.3204
 -26342116.72347 -20519069.08646  21392144.3284                   21392139.1054
 -14885721.26647 -11587389.76246  21474070.0164                   21474067.6884
 -15791881.83248 -12293437.05146  21526043.5394                   21526042.8054
 11  8 18  2 13 30.0000000  0  8G26G10G29G12G05G02G30G25
   1160653.10946    914926.53943  23977472.7664                   23977472.1454
 -15062038.86347 -11712824.80144  23099559.9304                   23099557.4654
  -5693480.13347  -4426959.67645  22812826.9064                   22812824.4734
 -22400996.43448 -17448559.45346  21148013.8834                   21148010.6254
 -25956294.82848 -20218347.75847  20210522.9064                   20210520.0084
 -26329479.44147 -20509221.84446  21394548.9844                   21394543.8134
 -14901633.48447 -11599788.90246  21471042.3054                   21471039.4534
 -15828079.94548 -12321643.35246  21519154.8364                   21519154.0864
 11  8 18  2 14  0.0000000  0  8G26G10G29G12G05G02G30G25
   1041381.62946    821987.85543  23954776.1414                   23954775.0164
 -14985632.18047 -11653287.14144  23114099.7114                   23114096.0274
  -5800211.50447  -4510126.94145  22792516.4224                   22792513.8914
 -22372303.23848 -17426201.12546  21153474.1564                   21153470.8134
 -25965171.93048 -20225264.95747  20208833.9224                   20208830.6484
 -26316743.41448 -20499297.66446  21396972.6024                   21396967.3524
 -14916944.28148 -11611719.40646  21468128.4224                   21468125.5204
 -15863691.55948 -12349392.64846  21512378.3444                   21512377.7584
 11  8 18  2 14 30.0000000  0  8G26G10G29G12G05G02G30G25
    922112.85246    729051.28143  23932079.7734                   23932078.7704
 -14909001.33646 -11593574.79344  23128682.0474                   23128679.4064
  -5906893.01647  -4593255.35245  22772215.5164                   22772213.0904
 -22343124.43048 -17403464.39546  21159026.5234                   21159023.9064
 -25973495.25048 -20231750.64147  20207249.6884                   20207246.5704
 -26303907.92248 -20489295.98046  21399415.2974                   21399409.9224
 -14931653.44148 -11623181.10946  21465329.6094                   21465326.7544
 -15898715.38348 -12376683.93046  21505713.8364                   21505713.3524
 11  8 18  2 15  0.0000000  0  8G26G10G29G12G05G02G30G25
    802849.44946    636118.91443  23909384.7734                   23909383.2774
 -14832149.68746 -11533690.40244  23143306.2034                   23143303.4804
  -6013523.66847  -4676344.11745  22751924.7424                   22751921.8484
 -22313463.10548 -17380351.67646  21164671.0004                   21164667.9654
 -25981266.82848 -20237806.39847  20205770.7584                   20205767.5314
 -26290974.07848 -20479217.65246  21401876.3674                   21401871.1684
 -14945762.64148 -11634175.30146  21462644.7584                   21462641.8054
 -15933152.13348 -12403517.75046  21499160.5784                   21499159.8444
 11  8 18  2 15 30.0000000  0  8G26G10G29G12G05G02G30G25
    683594.02746    543192.74243  23886690.7814                   23886690.1484
 -14755080.75847 -11473636.70744  23157971.8754                   23157969.5434
  -6120102.64547  -4759392.62145  22731643.1564                   22731640.1254
 -22283321.98848 -17356865.09846  21170406.8594                   21170403.3284
 -25988488.75848 -20243433.86747  20204396.6414                   20204393.4184
 -26277942.48848 -20469063.15646  21404356.6174                   21404351.2034
 -14959273.27048 -11644703.08646  21460073.5314                   21460070.8204
 -15967002.16448 -12429894.39846  21492719.0394                   21492718.4844
 11  8 18  2 16  0.0000000  0  8G26G10G29G12G05G02G30G25
    564351.58646    450276.64543  23863999.9924                   23863998.2704
 -14677795.89546 -11413414.76244  23172678.8444                   23172676.3754
  -6226626.30147  -4842398.00445  22711372.2894                   22711370.0634
 -22252701.73048 -17333005.15246  21176233.4304                   21176230.6524
 -25995160.74248 -20248632.79347  20203127.1174                   20203123.9924
 -26264812.03948 -20458831.62546  21406855.3524                   21406849.6254
 -14972184.77748 -11654764.00846  21457616.8524                   21457614.2234
 -16000263.98848 -12455812.69146  21486389.5784                   21486388.8014
 11  8 18  2 16 30.0000000  0  8G26G10G29G12G05G02G30G25
    445124.25447    357372.31344  23841312.4384                   23841310.0474
 -14600298.98446 -11353027.55544  23187425.6414                   23187422.6094
  -6333094.06247  -4925359.84445  22691112.1884                   22691109.4224
 -22221605.41048 -17308774.26246  21182151.3674                   21182147.5084
 -26001284.58248 -20253404.59847  20201961.5704                   20201958.3634
 -26251584.25048 -20448524.25046  21409372.0634                   21409366.9104
 -14984499.20748 -11664359.69546  21455273.8134                   21455271.1644
 -16032938.52048 -12481273.37146  21480172.0084                   21480171.6024
 11  8 18  2 17  0.0000000  0  8G26G10G29G12G05G02G30G25
    325915.29746    264482.27744  23818627.4924                   23818625.3984
 -14522592.64547 -11292477.14844  23202212.8674                   23202209.9844
  -6439504.52047  -5008277.02045  22670862.7734                   22670860.3164
 -22190035.55948 -17284174.36746  21188158.5164                   21188155.1134
 -26006861.73448 -20257750.41047  20200900.2504                   20200896.8954
 -26238259.56248 -20438141.35246  21411907.7034                   21411902.3914
 -14996217.68748 -11673490.98846  21453043.5634                   21453040.7384
 -16065025.98448 -12506276.59046  21474065.6174                   21474064.9844
 11  8 18  2 17 30.0000000  0  8G26G10G29G12G05G02G30G25
    206726.52046    171607.98044  23795946.8674                   23795944.6174
 -14444681.51646 -11231767.16844  23217039.1094                   23217036.1994
  -6545857.46947  -5091149.38745  22650624.8834                   22650621.8874
 -22157995.91448 -17259208.41446  21194255.3054                   21194252.0204
 -26011895.39148 -20261672.72347  20199942.1254                   20199939.1454
 -26224839.57848 -20427684.21546  21414461.1884                   21414456.1484
 -15007342.90248 -11682160.00846  21450926.6334                   21450923.6254
 -16096527.96548 -12530823.59446  21468071.2114                   21468070.3554
 11  8 18  2 18  0.0000000  0  8G26G10G29G12G05G02G30G25
     87561.44946     78752.17244  23773270.2034                   23773268.5314
 -14366568.27046 -11170899.68744  23231904.0704                   23231901.2344
  -6652151.02347  -5173975.46945  22630397.2664                   22630394.9804
 -22125488.94548 -17233878.30946  21200441.2734                   21200438.0124
 -26016386.63348 -20265172.37147  20199087.5704                   20199084.3714
 -26211324.67248 -20417153.09846  21417033.3444                   21417028.0784
 -15017875.84448 -11690367.50046  21448921.7734                   21448919.2034
 -16127444.41048 -12554914.32046  21462187.9454                   21462187.2034
 11  8 18  2 18 30.0000000  0  8G26G10G29G12G05G02G30G25
    -31574.66046    -14081.09444  23750599.1414                   23750597.8634
 -14288253.56246 -11109875.23844  23246806.0634                   23246803.7114
  -6758381.17247  -5256752.14545  22610182.5234                   22610179.9024
 -22092514.61348 -17208184.02046  21206716.0084                   21206712.6804
 -26020335.07848 -20268249.05947  20198336.3284                   20198333.1954
 -26197712.80148 -20406546.43046  21419623.2034                   21419618.1214
 -15027815.42248 -11698112.62546  21447030.7274                   21447028.0434
 -16157773.33248 -12578547.25046  21456416.7814                   21456415.8634
 11  8 18  2 19  0.0000000  0  8G26G10G29G12G05G02G30G25
   -150678.82446   -106889.44544  23727934.5314                   23727933.0944
 -14209740.61346 -11048696.32444  23261746.6564                   23261744.4144
  -6864546.99647  -5339478.70345  22589979.6644                   22589977.5124
 -22059075.75848 -17182127.77346  21213079.0394                   21213075.7034
 -26023742.15648 -20270903.90647  20197687.9384                   20197684.7974
 -26184004.67248 -20395864.77746  21422232.0394                   21422226.5744
 -15037163.34448 -11705396.71546  21445251.8204                   21445249.1914
 -16187515.27348 -12601722.78946  21450757.0084                   21450756.4734
 11  8 18  2 19 30.0000000  0  8G26G10G29G12G05G02G30G25
   -269747.83246   -199670.43443  23705275.8834                   23705273.7234
 -14131032.10546 -10987365.03943  23276724.5944                   23276721.3524
  -6970646.82847  -5422153.82845  22569789.3594                   22569787.0474
 -22025174.53948 -17155711.23846  21219530.5394                   21219527.1334
 -26026609.14848 -20273137.90647  20197142.3914                   20197139.2544
 -26170200.85548 -20385108.55146  21424859.2114                   21424853.3554
 -15045920.83248 -11712220.72746  21443585.4694                   21443582.5234
 -16216670.59048 -12624441.22746  21445208.7424                   21445208.1134
 11  8 18  2 20  0.0000000  0  8G26G10G29G12G05G02G30G25
   1186645.84846    935181.85543  23982417.9454                   23982416.3364
 -12476713.59847  -9698285.68744  23591530.9534                   23591528.1764
  -5501255.47347  -4277173.48845  22849405.2424                   22849402.9184
 -20415395.02348 -15901337.59446  21525861.3834                   21525858.0594
 -24453517.82048 -19047352.44147  20496491.3364                   20496488.4344
 -24580882.08648 -19146678.33646  21727295.9614                   21727290.7814
 -13478668.92248 -10490985.45746  21741823.4924                   21741820.9844
 -14669818.52348 -11419101.94946  21739564.8914                   21739564.2034
 11  8 18  2 20 30.0000000  0  8G26G10G29G12G05G02G30G25
   1067657.32446    842463.61744  23959775.7504                   23959774.2114
 -12397623.07447  -9636656.74644  23606582.0634                   23606579.5164
  -5607218.41847  -4359741.96945  22829241.9384                   22829238.6884
 -20380576.97748 -15874206.65246  21532486.8594                   21532484.2074
 -24455310.19548 -19048749.07047  20496150.7504                   20496147.5434
 -24566887.85248 -19135773.73846  21729959.1484                   21729953.8634
 -13486249.43048 -10496892.33246  21740381.1414                   21740377.9414
 -14697801.30548 -11440906.72346  21734239.9774                   21734239.3324
 11  8 18  2 21  0.0000000  0  8G26G10G29G12G05G02G30G25
    948712.77246    749779.68044  23937141.1564                   23937139.7664
 -12318346.95347  -9574883.14144  23621667.4064                   23621664.8754
  -5713111.36747  -4442255.88345  22809090.6484                   22809087.5274
 -20345305.64548 -15846722.50846  21539198.9384                   21539195.6094
 -24456568.32848 -19049729.41847  20495911.3834                   20495907.9264
 -24552800.03948 -19124796.21946  21732639.9384                   21732634.7034
 -13493244.62548 -10502343.11746  21739049.5234                   21739046.9344
 -14725199.41048 -11462255.90246  21729026.3134                   21729025.7974
 11  8 18  2 21 30.0000000  0  8G26G10G29G12G05G02G30G25
    829817.12546    657133.75043  23914516.2344                   23914513.6804
 -12238886.44547  -9512965.88744  23636788.6334                   23636785.4494
  -5818931.15647  -4524712.81645  22788953.2974                   22788950.9924
 -20309581.75048 -15818885.71146  21545996.8134                   21545994.2734
 -24457292.58248 -19050293.75447  20495773.3204                   20495770.2274
 -24538617.63748 -19113745.00846  21735338.9384                   21735333.4384
 -13499654.38348 -10507337.72746  21737829.9534                   21737826.8554
 -14752011.77048 -11483148.64146  21723924.2814                   21723923.7814
 11  8 18  2 22  0.0000000  0  8G26G10G29G12G05G02G30G25
    710973.69146    564528.55543  23891901.1484                   23891898.2504
 -12159244.10547  -9450906.92244  23651944.0704                   23651940.3914
  -5924675.95347  -4607111.30545  22768831.0704                   22768828.1994
 -20273407.43748 -15790697.94146  21552880.4844                   21552877.6954
 -24457484.29348 -19050443.11347  20495736.8054                   20495733.8524
 -24524340.55948 -19102620.00446  21738055.1804                   21738050.1174
 -13505479.88748 -10511877.05546  21736721.3364                   21736718.5704
 -14778238.48048 -11503585.03946  21718933.5234                   21718933.0514
 11  8 18  2 22 30.0000000  0  8G26G10G29G12G05G02G30G25
    592185.86346    471966.66443  23869295.7894                   23869293.2344
 -12079423.35947  -9388708.93044  23667133.4774                   23667130.1724
  -6030344.69147  -4689450.53145  22748723.1804                   22748720.5474
 -20236785.48848 -15762161.37146  21559849.7504                   21559846.4184
 -24457145.41448 -19050179.03547  20495801.5784                   20495798.0864
 -24509969.26648 -19091421.59846  21740790.2734                   21740785.0664
 -13510722.78548 -10515962.41846  21735723.8754                   21735720.9804
 -14803880.25048 -11523565.62946  21714053.9384                   21714053.1294
 11  8 18  2 23  0.0000000  0  8G26G10G29G12G05G02G30G25
    473456.57846    379450.39143  23846703.5554                   23846699.9654
 -11999427.00846  -9326374.14843  23682355.7274                   23682353.0634
  -6135934.82847  -4771728.51645  22728629.7194                   22728627.1454
 -20199718.46948 -15733277.98846  21566902.9304                   21566900.3954
 -24456277.46548 -19049502.69147  20495966.2814                   20495962.9454
 -24495504.27348 -19080150.18046  21743542.7894                   21743537.4304
 -13515384.52748 -10519594.91846  21734836.5394                   21734833.9454
 -14828937.41848 -11543090.68046  21709285.7114                   21709285.0164
 11  8 18  2 23 30.0000000  0  9G26G10G29G12G05G02G15G30G25
    354787.89546    286981.35543  23824120.8204                   23824118.9964
 -11919258.93046  -9263905.52743  23697611.0864                   23697607.6374
  -6241446.40247  -4853945.28545  22708551.7114                   22708548.8094
 -20162210.47347 -15704050.99246  21574040.7504                   21574037.6214
 -24454883.57048 -19048416.52347  20496231.6804                   20496228.5434
 -24480947.09448 -19068806.92646  21746313.0234                   21746307.8164
   7705997.82056   6015271.08653  24733384.0634                   24733383.0084
 -13519467.98848 -10522776.81246  21734059.7584                   21734056.7854
 -14853411.96948 -11562161.75046  21704628.4454                   21704627.5124
 11  8 18  2 24  0.0000000  0  9G26G10G29G12G05G02G15G30G25
    236177.89546    194558.08644  23801549.8914                   23801548.2704
 -11838927.30146  -9201309.52344  23712897.1644                   23712894.7704
  -6346883.17247  -4936103.76245  22688487.1954                   22688485.0704
 -20124269.46948 -15674486.57046  21581260.7974                   21581257.1764
 -24452970.33648 -19046925.66847  20496595.7034                   20496592.5354
 -24466303.47348 -19057396.31646  21749099.2114                   21749094.6134
   7588928.72746   5924048.58243  24711106.0234                   24711105.2894
 -13522979.90248 -10525513.35246  21733391.2504                   21733388.1334
 -14877309.55947 -11580783.23846  21700080.8054                   21700079.6174
 11  8 18  2 24 30.0000000  0  9G26G10G29G12G05G02G15G30G25
    117626.01246    102180.06644  23778989.5704                   23778988.6644
 -11758439.31646  -9138591.66844  23728214.4844                   23728211.5824
  -6452247.27747  -5018205.61745  22668437.5784                   22668434.2894
 -20085901.57448 -15644589.51246  21588561.8444                   21588558.6764
 -24450543.60548 -19045034.68747  20497057.6094                   20497054.0514
 -24451577.80948 -19045921.77746  21751902.0004                   21751896.3244
   7471726.13346   5832722.07043  24688803.3444                   24688802.1844
 -13525925.90648 -10527808.92646  21732830.6024                   21732827.5514
 -14900634.81648 -11598958.75046  21695641.9774                   21695641.2934
 11  8 18  2 25  0.0000000  0  9G26G10G29G12G05G02G15G30G25
      -860.31646      9853.15644  23756443.2734                   23756440.9844
 -11677793.50847  -9075750.82044  23743561.5554                   23743557.8954
  -6557532.86747  -5100246.29345  22648402.0634                   22648399.2034
 -20047105.63347 -15614358.91846  21595944.3834                   21595941.1764
 -24447601.28548 -19042741.95747  20497617.4384                   20497614.2774
 -24436765.87548 -19034380.00046  21754720.4064                   21754715.4494
   7354396.24646   5741296.30143  24666475.5474                   24666474.7664
 -13528303.42248 -10529661.51646  21732378.0554                   21732375.3484
 -14923384.14148 -11616685.46546  21691313.0704                   21691312.3914
 11  8 18  2 25 30.0000000  0  9G26G10G29G12G05G02G15G30G25
   -119277.25847    -82419.70344  23733908.5314                   23733906.6134
 -11596992.35547  -9012788.91844  23758936.9304                   23758934.6054
  -6662737.77347  -5182224.11345  22628382.3204                   22628379.2734
 -20007883.82447 -15583796.47746  21603408.1254                   21603404.8954
 -24444144.46148 -19040048.30147  20498275.2734                   20498271.6764
 -24421867.80948 -19022771.11746  21757555.5634                   21757550.4774
   7236941.90646   5649773.60543  24644124.4614                   24644123.6604
 -13530113.53148 -10531071.97746  21732033.7034                   21732031.0594
 -14945557.54748 -11633963.42246  21687093.4064                   21687092.5984
 11  8 18  2 26  0.0000000  0  9G26G10G29G12G05G02G15G30G25
   -237618.14147   -174633.28944  23711388.7114                   23711387.9304
 -11516035.17647  -8949705.42644  23774342.5864                   23774339.2234
  -6767856.97347  -5264135.13345  22608378.9304                   22608375.9144
 -19968235.27047 -15552901.50846  21610952.9304                   21610949.6174
 -24440171.44548 -19036952.43047  20499031.0944                   20499027.8244
 -24406880.46948 -19011092.67646  21760407.4224                   21760402.4734
   7119368.79746   5558158.34442  24621751.1414                   24621749.7854
 -13531354.48048 -10532038.94146  21731797.8674                   21731795.0274
 -14967152.49248 -11650790.62946  21682984.0314                   21682983.3954
 11  8 18  2 26 30.0000000  0  9G26G10G29G12G05G02G15G30G25
   -355879.07846   -266784.57044  23688884.5234                   23688883.2504
 -11434924.10947  -8886502.04743  23789776.9064                   23789774.1764
  -6872888.03547  -5345977.47745  22588392.2424                   22588389.2704
 -19928162.14147 -15521675.69546  21618578.7194                   21618575.5784
 -24435683.45748 -19033455.27347  20499885.1644                   20499881.6094
 -24391803.77748 -18999344.59446  21763276.2034                   21763271.3954
   7001680.14546   5466453.03943  24599355.9694                   24599354.5234
 -13532027.43748 -10532563.31246  21731669.2424                   21731666.2304
 -14988168.96948 -11667167.10246  21678984.8754                   21678983.9574
 11  8 18  2 27  0.0000000  0  9G26G10G29G12G05G02G15G30G25
   -474052.88747   -358867.96544  23666397.3204                   23666395.1024
 -11353658.36746  -8823178.16443  23805240.8754                   23805239.1954
  -6977825.47347  -5427746.86345  22568422.8134                   22568420.1884
 -19887663.03948 -15490117.96146  21626285.2424                   21626282.0984
 -24430678.58248 -19029555.34847  20500837.7814                   20500834.2034
 -24376633.94548 -18987523.93746  21766163.0474                   21766158.2074
   6883882.09446   5374662.47742  24576938.7584                   24576937.3874
 -13532130.33648 -10532643.47346  21731649.5394                   21731646.9024
 -15008603.84848 -11683090.37546  21675096.2194                   21675095.4734
 11  8 18  2 27 30.0000000  0  9G26G10G29G12G05G02G15G30G25
   -592140.01647   -450883.82844  23643925.7114                   23643923.1994
 -11272244.64546  -8759738.92243  23820733.9694                   23820730.7704
  -7082671.60247  -5509445.09045  22548471.7894                   22548469.0164
 -19846744.96547 -15458233.74646  21634071.6484                   21634068.2814
 -24425162.64848 -19025257.19947  20501887.3984                   20501883.9384
 -24361375.52748 -18975634.25846  21769066.4064                   21769061.3164
   6765972.97746   5282785.40643  24554502.0394                   24554500.4694
 -13531668.70748 -10532283.75846  21731737.7114                   21731734.7464
 -15028461.80147 -11698564.09446  21671317.2584                   21671316.2664
 11  8 18  2 28  0.0000000  0  9G26G10G29G12G05G02G15G30G25
   -710135.06247   -542827.95744  23621472.4774                   23621469.8794
 -11190683.27046  -8696184.59843  23836255.0474                   23836250.7854
  -7187422.14147  -5591068.85245  22528538.2504                   22528534.6764
 -19805408.58648 -15426023.57846  21641937.7424                   21641934.7154
 -24419135.27348 -19020560.53147  20503034.3134                   20503030.6254
 -24346026.09448 -18963673.65246  21771987.5704                   21771982.3984
   6647957.41846   5190825.35943  24532044.2114                   24532043.4924
 -13530642.12948 -10531483.81646  21731933.0554                   21731930.1374
 -15047741.31648 -11713587.09446  21667648.5004                   21667648.1804
 11  8 18  2 28 30.0000000  0  9G26G10G29G12G05G02G15G30G25
   -828033.68746   -634696.91444  23599036.2034                   23599034.2424
 -11108976.20347  -8632516.80143  23851803.6644                   23851799.8714
  -7292074.77048  -5672616.28545  22508623.5084                   22508620.7704
 -19763655.05548 -15393488.35946  21649883.3524                   21649880.1564
 -24412597.55148 -19015466.18047  20504278.2584                   20504274.8794
 -24330585.16448 -18951641.75046  21774925.8284                   21774920.6134
   6529838.81346   5098785.02044  24509567.5474                   24509565.5904
 -13529051.38747 -10530244.27046  21732235.8054                   21732232.9774
 -15066442.16048 -11728159.16446  21664089.7814                   21664088.7814
 11  8 18  2 29  0.0000000  0  9G26G10G29G12G05G02G15G30G25
   -945834.79747   -726489.93044  23576619.6024                   23576617.1954
 -11027128.69547  -8568739.52744  23867378.9844                   23867375.4304
  -7396629.57047  -5754087.50445  22488726.7584                   22488724.1294
 -19721490.14848 -15360632.58246  21657907.1174                   21657903.8094
 -24405553.46948 -19009977.27047  20505618.8834                   20505615.4024
 -24315055.23848 -18939540.49646  21777881.3984                   21777876.0864
   6411617.14546   5006664.41444  24487069.9614                   24487068.7974
 -13526900.64148 -10528568.37546  21732645.3054                   21732642.0864
 -15084567.61748 -11742282.87946  21660640.6094                   21660640.4104
 11  8 18  2 29 30.0000000  0  9G26G10G29G12G05G02G15G30G25
  -1063536.87546   -818205.75844  23554221.6024                   23554219.7584
 -10945145.56647  -8504856.61744  23882979.3674                   23882976.7814
  -7501086.74248  -5835482.65645  22468849.9924                   22468846.5944
 -19678918.35248 -15327459.75846  21666008.4694                   21666005.2304
 -24398006.63348 -19004096.60247  20507054.9694                   20507051.3554
 -24299438.55948 -18927371.64146  21780852.6334                   21780847.8324
   6293293.08246   4914463.96944  24464554.3284                   24464552.1094
 -13524193.46548 -10526458.87946  21733160.3984                   21733157.3054
 -15102120.26648 -11755960.26246  21657300.4844                   21657299.5664
 11  8 18  2 30  0.0000000  0  9G26G10G29G12G05G02G15G30G25
  -1181136.27746   -909841.57844  23531842.6414                   23531840.5864
 -10863029.26647  -8440869.90244  23898605.8984                   23898603.3054
  -7605444.38347  -5916800.25445  22448991.0164                   22448988.2894
 -19635941.98848 -15293971.68046  21674186.2274                   21674183.2974
 -24389958.82848 -18997825.57447  20508586.1884                   20508582.8134
 -24283735.23448 -18915135.28546  21783841.1094                   21783835.8914
   6174869.28946   4822185.85944  24442017.8054                   24442017.7194
 -13520931.53948 -10523917.10546  21733781.1254                   21733778.0004
 -15119100.63348 -11769191.70746  21654069.1724                   21654068.6134
 11  8 18  2 30 30.0000000  0  9G26G10G29G12G05G02G15G30G25
  -1298626.80547  -1001392.57444  23509485.2344                   23509483.0354
 -10780779.57847  -8376779.27344  23914257.2344                   23914254.9804
  -7709697.85547  -5998036.66845  22429152.0164                   22429149.0944
 -19592560.91048 -15260168.23846  21682441.6174                   21682438.5084
 -24381409.38748 -18991163.66047  20510213.5084                   20510209.6254
 -24267942.59447 -18902829.31645  21786846.3594                   21786841.1994
   6056351.18046   4729834.21944  24419465.8754                   24419463.6684
 -13517113.85548 -10520942.28146  21734507.4694                   21734504.7974
 -15135506.82448 -11781975.73046  21650947.5004                   21650946.0124
 11  8 18  2 31  0.0000000  0  9G26G10G29G12G05G02G15G30G25
  -1416003.32846  -1092854.73043  23487149.8284                   23487146.6564
 -10698397.80147  -8312585.71544  23929933.3594                   23929931.6804
  -7813843.70347  -6079189.23045  22409333.7424                   22409331.2194
 -19548776.42248 -15226050.45746  21690773.4144                   21690770.6294
 -24372358.39148 -18984110.92647  20511935.6484                   20511932.0164
 -24252059.29347 -18890452.70746  21789868.3284                   21789863.5084
   5937742.61346   4637412.12944  24396894.2734                   24396893.5274
 -13512740.69947 -10517534.62546  21735339.4304                   21735336.5984
 -15151338.17647 -11794311.84046  21647934.8054                   21647934.1414
 11  8 18  2 31 30.0000000  0  9G26G10G29G12G05G02G15G30G25
  -1533263.21147  -1184225.99644  23464835.5004                   23464833.2234
 -10615887.53146  -8248292.02043  23945635.4534                   23945632.6644
  -7917880.88347  -6160257.12545  22389535.8444                   22389532.7734
 -19504592.09447 -15191621.11746  21699181.3594                   21699177.9654
 -24362808.58248 -18976669.50047  20513752.9774                   20513749.1914
 -24236086.11347 -18878006.07446  21792908.6484                   21792902.9024
   5819045.31646   4544920.86744  24374307.1884                   24374305.4184
 -13507814.68747 -10513696.16446  21736276.9384                   21736273.9414
 -15166596.25447 -11806201.24646  21645031.2274                   21645030.1884
 11  8 18  2 32  0.0000000  0  9G26G10G29G12G05G02G15G30G25
  -1650404.25847  -1275504.66444  23442544.5704                   23442542.1724
 -10533252.47346  -8183901.12543  23961358.6724                   23961357.5594
  -8021808.53147  -6241239.66845  22369759.0164                   22369756.5664
 -19460011.87547 -15156883.28546  21707664.8594                   21707661.2774
 -24352762.92648 -18968841.71147  20515664.1804                   20515661.1374
 -24220024.37147 -18865490.40646  21795964.8204                   21795959.2274
   5700260.78946   4452361.63343  24351702.9064                   24351702.0944
 -13502338.88748 -10509429.29746  21737318.7274                   21737316.2154
 -15181283.17248 -11817645.57846  21642236.4844                   21642235.7544
 11  8 18  2 32 30.0000000  0  9G26G10G29G12G05G02G15G30G25
  -1767419.87547  -1366685.59844  23420277.0234                   23420274.7774
 -10450492.35946  -8119412.73043  23977108.0394                   23977105.6214
  -8125621.91447  -6322133.18745  22350004.3204                   22350001.1414
 -19415035.03147 -15121836.39846  21716223.5004                   21716220.1914
 -24342220.46548 -18960626.80547  20517670.4694                   20517666.7274
 -24203871.48847 -18852903.74246  21799038.9224                   21799033.0744
   5581394.43446   4359738.64143  24329083.3914                   24329081.9534
 -13496312.19947 -10504733.16846  21738465.8914                   21738462.9384
 -15195396.89547 -11828643.27746  21639550.6094                   21639550.1134
 11  8 18  2 33  0.0000000  0  9G26G10G29G12G05G02G15G30G25
  -1884308.67647  -1457767.74244  23398034.4144                   23398031.2854
 -10367611.59846  -8054830.35243  23992880.6954                   23992877.6174
  -8229320.85547  -6402937.51645  22330271.0004                   22330267.6914
 -19369667.09447 -15086484.76246  21724856.9534                   21724853.7704
 -24331185.19548 -18952027.88347  20519770.7274                   20519767.3554
 -24187629.44947 -18840247.59846  21802129.4144                   21802124.2664
   5462447.09846   4267052.56643  24306448.4844                   24306446.4574
 -13489738.53547 -10499610.82446  21739716.6484                   21739713.9924
 -15208940.19947 -11839196.50046  21636973.5474                   21636973.0234
 11  8 18  2 33 30.0000000  0  9G26G10G29G12G05G02G15G30G25
  -2001067.19947  -1548748.35944  23375815.5084                   23375812.8324
 -10284613.10947  -7990156.22343  24008674.8364                   24008672.0234
  -8332903.91047  -6483651.56245  22310559.9534                   22310556.7544
 -19323910.95347 -15050830.64146  21733563.8594                   21733560.8674
 -24319659.40648 -18943046.75447  20521964.0864                   20521960.4264
 -24171298.56247 -18827522.22345  21805236.9384                   21805231.8874
   5343420.84446   4174304.98043  24283798.2584                   24283796.9144
 -13482619.97347 -10494063.88346  21741071.3054                   21741068.5004
 -15221914.30548 -11849306.18046  21634504.1884                   21634503.4844
 11  8 18  2 34  0.0000000  0  9G26G10G29G12G05G02G15G30G25
  -2117694.05547  -1639626.37144  23353621.4694                   23353619.9494
 -10201501.83647  -7925394.15643  24024490.1414                   24024487.0274
  -8436371.38347  -6564275.53545  22290870.6414                   22290867.1484
 -19277771.27047 -15014877.65246  21742344.0944                   21742340.9614
 -24307646.79748 -18933686.27747  20524249.7194                   20524246.3164
 -24154881.21547 -18814729.47346  21808361.3204                   21808355.9064
   5224316.40246   4081496.43843  24261133.2894                   24261131.4144
 -13474960.55947 -10488095.50046  21742529.1334                   21742526.3554
 -15234322.32047 -11858974.75046  21632143.2344                   21632142.5234
 11  8 18  2 34 30.0000000  0  9G26G10G29G12G05G02G15G30G25
  -2234182.35947  -1730396.43044  23331455.1414                   23331452.5474
 -10118276.93747  -7860543.57843  24040327.0554                   24040324.8674
  -8539717.92247  -6644805.27345  22271204.2504                   22271201.2034
 -19231247.52748 -14978625.40246  21751197.0944                   21751194.0434
 -24295146.24248 -18923945.58247  20526628.9304                   20526625.0164
 -24138374.00447 -18801866.69946  21811502.1024                   21811497.3364
   5105139.29346   3988631.34843  24238454.5704                   24238453.1804
 -13466759.02047 -10481704.69146  21744089.2114                   21744087.0394
 -15246161.90248 -11868200.38746  21629890.0084                   21629889.8164
 11  8 18  2 35  0.0000000  0  9G26G10G29G12G05G02G15G30G25
  -2350528.22347  -1821055.47744  23309314.7424                   23309312.4844
 -10034940.58647  -7795606.16843  24056185.6094                   24056183.2034
  -8642940.75047  -6725238.62945  22251561.0784                   22251558.4454
 -19184341.93047 -14942075.59446  21760122.9844                   21760119.9144
 -24282159.24248 -18913825.84047  20529099.8984                   20529096.4804
 -24121776.39147 -18788933.48046  21814660.7344                   21814655.3914
   4985893.24246   3895712.48843  24215762.0164                   24215760.5274
 -13458016.78148 -10474892.56246  21745753.1884                   21745750.2584
 -15257433.59048 -11876983.49646  21627745.5474                   21627744.1804
 11  8 18  2 35 30.0000000  0  9G26G10G29G12G05G02G15G30G25
  -2466728.99647  -1911601.50844  23287202.6334                   23287199.7974
  -9951496.60246  -7730584.89143  24072064.5164                   24072062.0554
  -8746039.02047  -6805574.91045  22231942.1954                   22231939.4614
 -19137058.37947 -14905231.28146  21769120.8284                   21769117.4774
 -24268688.83248 -18903329.41047  20531663.1024                   20531659.6214
 -24105089.76248 -18775930.91846  21817836.1484                   21817830.9224
   4866579.50446   3802740.92643  24193057.4774                   24193055.5354
 -13448736.86347 -10467661.45746  21747519.1334                   21747516.8094
 -15268139.39848 -11885325.66846  21625708.2504                   21625707.4844
 11  8 18  2 36  0.0000000  0  9G26G10G29G12G05G02G15G30G25
  -2582780.28147  -2002031.02044  23265118.6254                   23265116.4454
  -9867946.59846  -7665481.04743  24087963.2344                   24087961.3874
  -8849009.73447  -6885811.80946  22212347.8524                   22212345.2344
 -19089398.82047 -14868093.98046  21778189.8524                   21778187.1724
 -24254735.75048 -18892456.87547  20534318.4144                   20534315.1564
 -24088313.04348 -18762858.14546  21821028.6644                   21821023.3634
   4747201.87547   3709719.50844  24170341.6024                   24170338.2384
 -13438920.19948 -10460012.10546  21749387.0864                   21749384.6764
 -15278279.38748 -11893226.94946  21623778.4224                   21623777.7114
 11  8 18  2 36 30.0000000  0  9G26G10G29G12G05G02G15G30G25
  -2698679.03547  -2092341.70344  23243063.9144                   23243061.9654
  -9784293.73046  -7600297.09443  24103881.6174                   24103879.9144
  -8951851.77347  -6965948.43046  22192777.9224                   22192774.3134
 -19041366.57847 -14830666.27046  21787330.3444                   21787327.1524
 -24240303.03148 -18881210.60547  20537064.7894                   20537061.4614
 -24071447.23447 -18749715.95345  21824238.1954                   21824232.8954
   4627762.04347   3616649.65244  24147612.4304                   24147609.6414
 -13428569.78548 -10451946.85946  21751356.6564                   21751353.9964
 -15287855.45348 -11900688.81246  21621956.5554                   21621955.2774
 11  8 18  2 37  0.0000000  0  9G26G10G29G12G05G02G15G30G25
  -2814421.91847  -2182530.89544  23221039.0314                   23221036.3134
  -9700540.39846  -7535034.75843  24119820.3134                   24119817.3014
  -9054563.32847  -7045983.37546  22173232.4224                   22173230.3984
 -18992964.54747 -14792950.41446  21796540.8834                   21796537.7974
 -24225392.78148 -18869592.22347  20539902.0784                   20539898.7664
 -24054492.66047 -18736504.59845  21827464.4844                   21827459.2384
   4508262.47747   3523533.21144  24124872.0634                   24124870.0744
 -13417687.70348 -10443467.30946  21753427.0944                   21753424.8484
 -15296868.80948 -11907712.20346  21620241.0554                   21620239.8444
 11  8 18  2 37 30.0000000  0  9G26G10G29G12G05G02G15G30G25
  -2930004.20747  -2272594.95744  23199044.2974                   23199042.0204
  -9616688.25846  -7469695.42243  24135776.6024                   24135773.5204
  -9157140.99647  -7125913.98846  22153712.7584                   22153709.5274
 -18944194.68747 -14754947.93746  21805821.3674                   21805818.5234
 -24210005.68748 -18857602.27347  20542830.2344                   20542826.5554
 -24037447.46147 -18723222.61746  21830707.7894                   21830702.5474
   4388707.41847   3430373.53944  24102121.0784                   24102118.6844
 -13406274.65648 -10434574.02746  21755599.3134                   21755597.0044
 -15305319.26648 -11914296.96546  21618632.6254                   21618631.7504
 11  8 18  2 38  0.0000000  0  9G26G10G29G12G05G02G15G30G25
  -3045424.63347  -2362532.89144  23177080.4064                   23177078.0044
  -9532742.32847  -7404283.00843  24151750.8834                   24151748.5164
  -9259585.21947  -7205740.62146  22134218.2274                   22134215.2544
 -18895062.09047 -14716662.82046  21815171.2274                   21815168.0354
 -24194146.18048 -18845244.20747  20545848.1644                   20545844.6054
 -24020314.43047 -18709872.19545  21833968.3054                   21833962.5394
   4269096.67647   3337170.48043  24079360.0944                   24079357.4774
 -13394335.28947 -10425270.63345  21757871.0474                   21757869.1054
 -15313210.41448 -11920445.89846  21617131.2424                   21617130.0784
 11  8 18  2 38 30.0000000  0  9G26G10G29G12G05G02G15G30G25
  -3160678.34447  -2452340.95744  23155148.5314                   23155146.0824
  -9448703.61746  -7338798.24243  24167743.3524                   24167739.8554
  -9361892.59847  -7285460.61346  22114749.3284                   22114746.4064
 -18845568.44948 -14678096.36346  21824589.4304                   21824586.2774
 -24177815.33648 -18832518.87547  20548955.6724                   20548952.6294
 -24003092.42647 -18696452.43745  21837245.0314                   21837239.8014
   4149434.42647   3243927.29744  24056589.2974                   24056586.8984
 -13381870.54747 -10415557.85946  21760243.1564                   21760240.7384
 -15320542.31248 -11926159.05946  21615735.8674                   21615735.3324
 11  8 18  2 39  0.0000000  0  9G26G10G29G12G05G02G15G30G25
  -3275762.04347  -2542016.52344  23133248.6414                   23133246.1604
  -9364575.21946  -7273243.54743  24183751.9454                   24183747.8094
  -9464061.21947  -7365072.46946  22095307.4534                   22095304.8054
 -18795716.70348 -14639250.87546  21834075.8284                   21834072.8324
 -24161015.12148 -18819427.78947  20552152.7664                   20552149.4804
 -23985781.79747 -18682963.62945  21840539.4614                   21840533.6844
   4029723.41447   3150646.13344  24033808.9064                   24033806.5204
 -13368882.69948 -10405437.46546  21762714.8204                   21762712.2814
 -15327316.21548 -11931437.42646  21614446.8984                   21614446.4694
 11  8 18  2 39 30.0000000  0  9G26G10G29G12G05G02G15G30G25
  -3390671.07447  -2631555.94944  23111382.2114                   23111380.1804
  -9280358.31646  -7207619.95343  24199778.1174                   24199774.1724
  -9566088.16447  -7444573.93746  22075891.9924                   22075889.4104
 -18745508.84048 -14600127.87546  21843630.2664                   21843627.0904
 -24143746.88348 -18805972.01647  20555438.7974                   20555435.0314
 -23968381.18047 -18669404.71145  21843850.4304                   21843845.3094
   3909966.99646   3057329.57044  24011019.3754                   24011017.4774
 -13355372.82848 -10394910.29746  21765285.6334                   21765283.1094
 -15333532.39848 -11936281.19546  21613264.0864                   21613263.1724
 11  8 18  2 40  0.0000000  0  9G26G10G29G12G05G02G15G30G25
  -3505401.10947  -2720955.92244  23089548.9534                   23089547.8054
  -9196054.82446  -7141928.85542  24215820.8674                   24215816.6994
  -9667970.84047  -7523962.96946  22056504.5234                   22056501.8284
 -18694946.73048 -14560728.82846  21853252.2344                   21853248.9264
 -24126011.87148 -18792152.51647  20558813.5784                   20558810.2974
 -23950889.94948 -18655775.18445  21847179.3914                   21847173.6024
   3790168.82046   2963980.47744  23988222.3284                   23988220.6724
 -13341342.38348 -10383977.48445  21767955.7114                   21767952.7774
 -15339191.21948 -11940690.66846  21612187.1804                   21612186.5554
 11  8 18  2 40 30.0000000  0  9G26G10G29G12G05G02G15G30G25
  -3619950.38347  -2810215.04344  23067750.9774                   23067749.3014
  -9111669.12946  -7076173.72343  24231877.4304                   24231874.4104
  -9769708.84047  -7603239.27746  22037144.4304                   22037141.5234
 -18644035.41048 -14521057.67646  21862939.6724                   21862936.6254
 -24107814.07048 -18777972.40247  20562276.7584                   20562273.1134
 -23933310.18448 -18642076.66845  21850524.8364                   21850519.1454
   3670329.68046   2870599.46144  23965418.3054                   23965416.3324
 -13326795.49248 -10372642.24646  21770724.0634                   21770720.9574
 -15344296.13348 -11944668.52046  21611215.8834                   21611215.2464
 11  8 18  2 41  0.0000000  0  9G26G10G29G12G05G02G15G30G25
  -3734316.85247  -2899331.73444  23045988.4384                   23045985.8674
  -9027205.22746  -7010357.70343  24247950.7894                   24247948.1054
  -9871301.75847  -7682402.53546  22017811.7274                   22017809.0944
 -18592779.25448 -14481117.82446  21872693.7424                   21872690.5744
 -24089157.37148 -18763434.71147  20565826.9844                   20565823.2384
 -23915643.28947 -18628310.24645  21853886.6804                   21853881.0204
   3550450.71146   2777187.39844  23942605.1954                   23942603.7544
 -13311735.95748 -10360907.53546  21773589.3524                   21773586.9454
 -15348849.85948 -11948216.88346  21610349.1414                   21610348.3014
 11  8 18  2 41 30.0000000  0  9G26G10G29G12G05G02G15G30G25
  -3848494.76247  -2988301.48844  23024260.8364                   23024258.2624
  -8942663.78146  -6944481.27343  24264038.6804                   24264036.1454
  -9972745.36747  -7761449.44946  21998507.6564                   21998504.7304
 -18541178.90248 -14440909.76646  21882512.9454                   21882509.8594
 -24070041.56248 -18748539.27047  20569464.7274                   20569461.1684
 -23897887.28947 -18614474.39846  21857265.5554                   21857260.1484
   3430536.82047   2683748.10944  23919786.3364                   23919785.3404
 -13296163.83248 -10348773.41046  21776552.9384                   21776550.2424
 -15352851.56248 -11951335.09846  21609587.9304                   21609586.7114
 11  8 18  2 42  0.0000000  0  9G26G10G29G12G05G02G15G30G25
  -3962480.76647  -3077121.70344  23002569.5164                   23002567.7274
  -8858047.03946  -6878546.18043  24280140.8204                   24280139.1994
 -10074037.76247  -7840378.53145  21979232.4454                   21979229.1414
 -18489237.71948 -14400436.12946  21892397.5164                   21892393.8984
 -24050468.69548 -18733287.68047  20573188.9924                   20573185.5434
 -23880042.04347 -18600569.01646  21860661.5164                   21860655.7734
   3310590.39847   2590283.48044  23896961.5084                   23896959.4104
 -13280081.61748 -10336241.81245  21779613.2344                   21779610.3364
 -15356302.83648 -11954024.39846  21608931.0314                   21608930.1174
 11  8 18  2 42 30.0000000  0  9G26G10G29G12G05G02G15G30G25
  -4076270.77347  -3165789.19144  22980916.2114                   22980913.8164
  -8773356.84846  -6812553.81243  24296256.6644                   24296254.6724
 -10175176.28547  -7919187.72746  21959986.1564                   21959983.1724
 -18436957.88348 -14359698.60246  21902345.7894                   21902342.7424
 -24030440.72748 -18717681.45747  20577000.2894                   20576997.0944
 -23862107.41447 -18586593.98045  21864074.2194                   21864068.8204
   3190614.95747   2496796.21144  23874131.3834                   23874128.7544
 -13263491.00447 -10323314.05546  21782769.9774                   21782767.1644
 -15359204.41848 -11956285.35946  21608379.0634                   21608377.7734
 11  8 18  2 43  0.0000000  0  9G26G10G29G12G05G02G15G30G25
  -4189861.74247  -3254301.59044  22959301.2344                   22959298.4224
  -8688596.73446  -6746506.96143  24312385.6954                   24312383.7074
 -10276159.48447  -7997875.86746  21940769.8524                   21940766.9064
 -18384343.03147 -14318700.02346  21912358.1644                   21912354.7274
 -24009960.50048 -18701722.82446  20580897.5864                   20580893.7814
 -23844083.92247 -18572549.69145  21867504.0234                   21867498.6334
   3070612.42247   2403287.83244  23851294.9224                   23851292.8134
 -13246394.98847 -10309992.47746  21786023.2664                   21786020.4654
 -15361558.45748 -11958119.68446  21607930.6334                   21607930.0824
 11  8 18  2 43 30.0000000  0  9G26G10G29G12G05G02G15G30G25
  -4303249.41047  -3342655.57444  22937723.8674                   22937721.3244
  -8603768.71946  -6680407.21143  24328529.0634                   24328526.4024
 -10376984.68747  -8076440.91046  21921583.4454                   21921580.5904
 -18331395.65647 -14277442.34446  21922433.5944                   21922430.1914
 -23989029.58648 -18685413.01647  20584880.3674                   20584877.1334
 -23825970.87947 -18558435.63345  21870950.6564                   21870945.0354
   2950586.18046   2309760.98844  23828455.2814                   23828452.1294
 -13228795.28147 -10296278.40646  21789372.6334                   21789370.2034
 -15363365.80948 -11959528.00046  21607586.9224                   21607586.1884
 11  8 18  2 44  0.0000000  0  9G26G10G29G12G05G02G15G30G25
  -4416428.68747  -3430847.17644  22916186.6254                   22916184.3094
  -8518873.36746  -6614255.00843  24344683.5704                   24344681.2384
 -10477648.45747  -8154880.16046  21902427.7584                   21902424.7704
 -18278117.13747 -14235926.61746  21932572.1334                   21932568.7074
 -23967648.66048 -18668752.54747  20588949.1884                   20588945.4304
 -23807766.87547 -18544250.68045  21874414.7114                   21874409.5204
   2830540.53147   2216218.99644  23805610.9454                   23805608.6724
 -13210692.85247 -10282172.62145  21792817.4144                   21792814.5004
 -15364626.39148 -11960510.27346  21607347.1484                   21607346.2384
 11  8 18  2 44 30.0000000  0  9G26G10G29G12G05G02G15G30G25
  -4529398.76247  -3518875.73844  22894688.3134                   22894686.2584
  -8433916.07446  -6548054.53543  24360850.3674                   24360847.2384
 -10578151.09847  -8233193.86346  21883302.7274                   21883299.5904
 -18224513.14147 -14194157.26246  21942772.5864                   21942769.3674
 -23945822.79348 -18651745.37147  20593102.4534                   20593098.9494
 -23789474.38747 -18529996.78945  21877895.6484                   21877890.1024
   2710475.71546   2122662.06644  23782763.2894                   23782761.3794
 -13192092.58647 -10267678.89845  21796356.5164                   21796354.0274
 -15365344.32848 -11961069.69946  21607210.3134                   21607209.2774
 11  8 18  2 45  0.0000000  0  9G26G10G29G12G05G02G15G30G25
  -4642154.83247  -3606737.55544  22873232.0944                   22873230.4614
  -8348898.41846  -6481807.01243  24377028.5234                   24377025.1374
 -10678489.63347  -8311379.69946  21864209.1024                   21864205.7854
 -18170585.86747 -14152136.02046  21953034.5234                   21953031.2934
 -23923553.08648 -18634392.33647  20597340.3054                   20597336.4494
 -23771092.39547 -18515673.14845  21881394.0234                   21881388.0704
   2590395.30147   2029093.00044  23759912.6564                   23759910.3954
 -13172996.04347 -10252798.46546  21799990.9304                   21799988.1484
 -15365520.22748 -11961206.75846  21607176.5234                   21607176.4384
 11  8 18  2 45 30.0000000  0  9G26G10G29G12G05G02G15G30G25
  -4754692.00846  -3694428.79344  22851817.1954                   22851814.8634
  -8263820.87146  -6415512.84043  24393218.9064                   24393214.9064
 -10778660.53148  -8389434.90646  21845147.0004                   21845144.1524
 -18116336.29747 -14109863.63746  21963357.8754                   21963354.8754
 -23900840.25048 -18616694.00846  20601662.4064                   20601658.8284
 -23752619.31247 -18501278.52345  21884909.1334                   21884903.3014
   2470303.60546   1935515.12544  23737059.6724                   23737057.6764
 -13153404.20748 -10237532.10245  21803718.8834                   21803716.0234
 -15365154.22748 -11960921.56246  21607247.0784                   21607246.0634
 11  8 18  2 46  0.0000000  0 10G26G10G29G12G05G02G15G30G25G21
  -4867008.14847  -3781947.81245  22830443.4924                   22830441.7734
  -8178687.73846  -6349175.39143  24409419.2664                   24409415.1954
 -10878663.28147  -8467359.09446  21826117.0004                   21826113.8054
 -18061769.40647 -14067343.99246  21973741.6414                   21973738.4304
 -23877688.00048 -18598653.28147  20606068.0554                   20606064.4414
 -23734056.82847 -18486814.26245  21888441.6724                   21888436.0124
   2350201.74246   1841929.32044  23714205.3674                   23714202.8834
 -13133320.93748 -10221882.80945  21807540.9844                   21807537.9024
 -15364249.27748 -11960216.39546  21607418.8984                   21607418.1484
   7760177.26656   6054415.28952  25082228.3524                   25082226.1024
 11  8 18  2 46 30.0000000  0 10G26G10G29G12G05G02G15G30G25G21
  -4979107.13347  -3869297.61344  22809112.4144                   22809109.8284
  -8093509.05946  -6282802.44143  24425628.4454                   24425624.2304
 -10978503.13347  -8545156.35546  21807117.8834                   21807115.4184
 -18006895.49248 -14024585.10946  21984183.8054                   21984180.6174
 -23854106.10548 -18580277.77046  20610555.6334                   20610551.9024
 -23715412.34448 -18472286.09045  21891989.6804                   21891983.9694
   2230085.12946   1748332.04744  23691348.2814                   23691345.8674
 -13112756.07847 -10205858.24245  21811453.9064                   21811451.8984
 -15362814.46948 -11959098.35546  21607691.9144                   21607691.1724
   7680081.58646   5992003.11343  25066987.6954                   25066985.4534
 11  8 18  2 47  0.0000000  0 10G26G10G29G12G05G02G15G30G25G21
  -5090989.36347  -3956478.51645  22787821.6724                   22787819.4304
  -8008290.83646  -6216398.66043  24441844.8754                   24441841.7304
 -11078181.83647  -8622828.04346  21788149.4144                   21788147.1254
 -17951721.76247 -13981592.59846  21994683.1804                   21994680.0554
 -23830101.17648 -18561572.62547  20615123.6564                   20615120.0274
 -23696689.66847 -18457696.98845  21895552.2424                   21895546.3984
   2109952.57447   1654722.34044  23668486.9924                   23668485.1954
 -13091716.21547 -10189463.54346  21815457.9064                   21815455.3714
 -15360855.38748 -11957571.79746  21608064.8204                   21608063.7704
   7599988.92646   5929593.32043  25051746.8054                   25051743.6954
 11  8 18  2 47 30.0000000  0 10G26G10G29G12G05G02G15G30G25G21
  -5202648.09047  -4043485.27745  22766573.5314                   22766571.1644
  -7923032.35246  -6149963.48843  24458068.9534                   24458065.6884
 -11177694.27747  -8700370.18446  21769213.0314                   21769210.3714
 -17896247.58647 -13938365.98846  22005239.4924                   22005236.5744
 -23805672.14848 -18542537.00847  20619772.0394                   20619768.7974
 -23677885.94948 -18443044.76245  21899130.3984                   21899125.0234
   1989810.07846   1561104.87944  23645624.3364                   23645622.8634
 -13070200.63747 -10172698.15646  21819552.1094                   21819549.7464
 -15358370.53948 -11955635.53946  21608537.5944                   21608537.0904
   7519901.97746   5867187.94943  25036505.5084                   25036503.7704
 11  8 18  2 48  0.0000000  0 10G26G10G29G12G05G02G15G30G25G21
  -5314075.43747  -4130311.73045  22745369.8364                   22745367.9964
  -7837731.92246  -6083495.64543  24474300.9694                   24474297.4414
 -11277034.33647  -8777778.00046  21750309.3754                   21750306.5004
 -17840472.51647 -13894904.91846  22015853.1414                   22015849.8874
 -23780817.18448 -18523169.48046  20624501.8834                   20624498.1254
 -23658996.55948 -18428325.75445  21902724.9064                   21902719.3134
   1869664.38346   1467484.94544  23622761.9454                   23622759.4734
 -13048207.82447 -10155560.88745  21823737.3914                   21823734.4264
 -15355357.49248 -11953287.70746  21609110.8444                   21609110.3014
   7439824.08646   5804789.61743  25021267.4304                   25021264.6844
 11  8 18  2 48 30.0000000  0  9G26G29G12G05G02G15G30G25G21
  -5425267.64847  -4216954.94944  22724210.2584                   22724208.2894
 -11376199.13747  -8855049.27046  21731439.0474                   21731435.8594
 -17784398.87547 -13851211.19946  22026523.6644                   22026520.2894
 -23755538.09848 -18503471.49246  20629312.4694                   20629308.6764
 -23640021.29747 -18413539.84045  21906335.4384                   21906330.3634
   1749518.78947   1373865.07844  23599899.1804                   23599896.3984
 -13025739.86347 -10138053.39545  21828012.5084                   21828009.5394
 -15351817.59048 -11950529.32846  21609784.4694                   21609783.8754
   7359755.11346   5742398.27042  25006030.4774                   25006027.9964
 11  8 18  2 49  0.0000000  0  9G26G29G12G05G02G15G30G25G21
  -5536216.83647  -4303408.80944  22703097.2664                   22703095.3164
 -11475182.70748  -8932179.32046  21712603.3134                   21712599.6644
 -17728025.72747 -13807284.09446  22037250.7814                   22037248.2704
 -23729833.19948 -18483441.69146  20634203.7894                   20634200.0354
 -23620955.97748 -18398683.75845  21909963.7974                   21909958.1684
   1629380.23447   1280250.70744  23577037.3444                   23577035.2734
 -13002795.27348 -10120174.48445  21832378.8364                   21832376.0004
 -15347748.33648 -11947358.48046  21610558.9534                   21610558.4144
   7279698.37546   5680016.50442  24990795.9614                   24990793.6294
 11  8 18  2 49 30.0000000  0  9G26G29G12G05G02G15G30G25G21
  -5646912.59847  -4389665.21145  22682032.7664                   22682030.2114
 -11573976.10948  -9009161.18046  21693803.1804                   21693800.1214
 -17671349.32848 -13763120.69946  22048036.4454                   22048033.0004
 -23703698.25448 -18463076.77746  20639176.8754                   20639173.6374
 -23601793.64147 -18383752.07445  21913610.4614                   21913604.7734
   1509258.22747   1186649.20344  23554179.0554                   23554176.2734
 -12979369.74248 -10101920.81645  21836836.6174                   21836834.1214
 -15343144.77348 -11943771.29346  21611434.9774                   21611434.1994
   7199660.20746   5617649.14542  24975565.7034                   24975562.5124
 11  8 18  2 50  0.0000000  0  9G26G29G12G05G02G15G30G25G21
  -5757348.39847  -4475719.04345  22661017.5394                   22661015.4654
 -11672574.00448  -9085990.69946  21675040.3674                   21675037.5864
 -17614369.53948 -13718720.88746  22058879.1024                   22058876.0124
 -23677132.11348 -18442375.89146  20644232.5944                   20644229.0234
 -23582531.37947 -18368742.51645  21917275.3674                   21917270.1724
   1389158.82847   1093065.32844  23531324.5864                   23531322.4144
 -12955462.82048 -10083292.04745  21841386.1024                   21841383.4454
 -15338005.51648 -11939766.67646  21612413.0864                   21612411.9774
   7119642.96146   5555298.14542  24960339.1094                   24960336.1524
 11  8 18  2 50 30.0000000  0  9G26G29G12G05G02G15G30G25G21
  -5867521.68747  -4561568.32045  22640052.0554                   22640049.9384
 -11770975.32448  -9162667.03946  21656315.8364                   21656312.6484
 -17557090.82448 -13674088.14546  22069778.9614                   22069775.7974
 -23650138.53948 -18421341.92646  20649369.1564                   20649365.4064
 -23563170.30947 -18353655.98045  21920959.5704                   21920954.6804
   1269083.47747    999500.19144  23508474.9224                   23508472.4574
 -12931078.40648 -10064291.20745  21846026.3444                   21846023.4774
 -15332333.66448 -11935347.05146  21613492.3134                   21613491.0944
   7039644.62946   5492961.87542  24945115.3364                   24945112.4614
 11  8 18  2 51  0.0000000  0  9G26G29G12G05G02G15G30G25G21
  -5977434.12147  -4647214.31645  22619136.1804                   22619134.2624
 -11869183.27748  -9239192.69146  21637627.0784                   21637624.3364
 -17499521.18747 -13629228.70346  22080734.1024                   22080730.7234
 -23622725.29748 -18399980.95346  20654585.7424                   20654582.1214
 -23543715.02348 -18338496.02045  21924661.9924                   21924657.0474
   1149030.03547    905952.09044  23485629.6414                   23485627.4384
 -12906224.07848 -10044924.19145  21850755.6484                   21850752.6884
 -15326136.00448 -11930517.70746  21614671.5314                   21614670.7854
   6959659.61346   5430636.02742  24929894.3444                   24929892.1294
 11  8 18  2 51 30.0000000  0  9G26G29G12G05G02G15G30G25G21
  -6087082.39147  -4732654.48045  22598271.1804                   22598268.4884
 -11967196.01648  -9315566.23846  21618976.0164                   21618972.7974
 -17441664.07047 -13584145.25846  22091743.8444                   22091740.6524
 -23594894.94948 -18378294.95746  20659881.8364                   20659878.2734
 -23524166.03148 -18323263.04745  21928381.8204                   21928376.9264
   1029000.79347    812422.84444  23462788.6644                   23462785.9224
 -12880903.04348 -10025193.52345  21855574.0554                   21855571.3014
 -15319414.81648 -11925280.41846  21615950.2974                   21615949.9694
   6879686.81345   5368319.66842  24914675.9694                   24914672.6454
 11  8 18  2 52  0.0000000  0  9G26G29G12G05G02G15G30G25G21
  -6196465.31647  -4817887.89545  22577456.6254                   22577453.6054
 -12065013.76248  -9391787.84046  21600361.8674                   21600358.8874
 -17383524.94147 -13538842.05945  22102807.6414                   22102804.2624
 -23566652.28148 -18356287.66846  20665256.4614                   20665252.4344
 -23504525.95348 -18307959.10546  21932119.6484                   21932114.3204
    908996.25446    718912.85544  23439952.6174                   23439950.3634
 -12855120.38747 -10005103.14545  21860480.7344                   21860477.8014
 -15312174.38748 -11919638.52346  21617328.2424                   21617327.6374
   6799723.03546   5306010.39142  24899459.7034                   24899456.8244
 11  8 18  2 52 30.0000000  0  9G26G29G12G05G02G15G30G25G21
  -6305578.00447  -4902910.72345  22556693.0394                   22556690.3834
 -12162632.97348  -9467854.73046  21581785.6564                   21581782.3634
 -17325105.94147 -13493320.77045  22113924.1644                   22113920.9774
 -23537998.28948 -18333959.87147  20670708.6024                   20670705.1994
 -23484793.05948 -18292582.83245  21935875.0314                   21935869.5824
    789020.66446    625425.41844  23417121.9534                   23417119.3444
 -12828877.41848  -9984654.08245  21865474.4304                   21865471.2774
 -15304415.27048 -11913592.47746  21618805.0004                   21618804.2504
   6719769.30146   5243708.89842  24884244.2194                   24884241.3404
 11  8 18  2 53  0.0000000  0  9G26G29G12G05G02G15G30G25G21
  -4838994.07447  -3760118.02345  22835774.7344                   22835771.9144
 -10684629.01248  -8316163.29746  21863040.0634                   21863036.9614
 -15690992.57847 -12219985.71145  22424885.8364                   22424882.5044
 -21933517.27748 -17083714.91446  20976031.3834                   20976027.6334
 -21889548.92648 -17049535.44945  22239439.3204                   22239434.2974
   2244499.94546   1759565.16444  23694090.2194                   23694087.4774
 -11226758.45348  -8736249.71545  22170347.6804                   22170344.4654
 -13720720.45748 -10679544.57846  21920171.9694                   21920171.2664
   8215246.21546   6409015.75042  25168824.2424                   25168820.9264
 11  8 18  2 53 30.0000000  0  9G26G29G12G05G02G15G30G25G21
  -4947555.70347  -3844711.48045  22815115.7734                   22815112.9734
 -10781844.80548  -8391915.80946  21844540.7504                   21844537.7304
 -15632022.63747 -12174035.13345  22436107.2114                   22436104.2974
 -21904048.16447 -17060751.96546  20981639.0314                   20981635.6884
 -21869630.54748 -17034014.65645  22243229.5314                   22243224.2894
   2124590.48446   1666129.25444  23671271.7584                   23671269.7854
 -11199602.98847  -8715089.62545  22175515.1564                   22175512.2504
 -13711929.82848 -10672694.74646  21921844.9924                   21921844.4924
   8135309.55945   6346727.58643  25153613.0004                   25153610.3054
 11  8 18  2 54  0.0000000  0  9G26G29G12G05G02G15G30G25G21
  -5055839.57447  -3929088.48045  22794510.0474                   22794507.8094
 -10878858.93748  -8467511.20746  21826079.3524                   21826076.2854
 -15572785.37547 -12127876.25045  22447380.0704                   22447376.5864
 -21874178.24248 -17037476.69547  20987323.0784                   20987319.8524
 -21849622.31248 -17018423.81645  22247037.7194                   22247031.9884
   2004715.36746   1572720.12944  23648460.5474                   23648457.6644
 -11171998.59847  -8693579.72345  22180767.9384                   22180765.0044
 -13702629.53948 -10665447.77746  21923614.3914                   21923613.6374
   8055377.86346   6284443.28143  25138402.0784                   25138399.8054
 11  8 18  2 54 30.0000000  0  9G26G29G12G05G02G15G30G25G21
  -5163840.44147  -4013244.96945  22773957.9304                   22773955.8834
 -10975667.37148  -8542946.30146  21807657.5554                   21807653.9804
 -15513281.82447 -12081509.87945  22458702.7664                   22458699.9614
 -21843908.69547 -17013890.03147  20993083.0004                   20993080.0704
 -21829522.56248 -17002761.68045  22250862.3444                   22250856.7504
   1884878.89846   1479341.10244  23625656.8594                   23625653.7934
 -11143946.42647  -8671720.90245  22186105.6174                   22186103.2344
 -13692819.85548 -10657803.89546  21925481.3914                   21925480.5314
   7975451.36746   6222163.05943  25123193.0164                   25123190.6254
 11  8 18  2 55  0.0000000  0  9G26G29G12G05G02G15G30G25G21
  -5271551.70747  -4097175.79345  22753461.3364                   22753458.8714
 -11072264.95748  -8618217.10246  21789275.8204                   21789272.7384
 -15453512.20347 -12034936.17645  22470076.8364                   22470073.6684
 -21813238.27748 -16989990.99246  20998919.6724                   20998916.2934
 -21809328.25448 -16987025.84445  22254704.7504                   22254699.1484
   1765087.05546   1385996.87144  23602860.6094                   23602858.4534
 -11115446.07047  -8649512.85245  22191529.5864                   22191526.5314
 -13682499.69148 -10649762.20346  21927445.0474                   21927444.2234
   7895532.85546   6159889.06643  25107984.2504                   25107982.6414
 11  8 18  2 55 30.0000000  0  9G26G29G12G05G02G15G30G25G21
  -5378974.45747  -4180881.79345  22733019.7274                   22733017.3874
 -11168654.34848  -8693325.67246  21770933.1334                   21770930.4104
 -15393484.43747 -11988161.30945  22481499.6174                   22481496.7384
 -21782174.14147 -16965785.17246  21004830.7814                   21004827.5864
 -21789043.75048 -16971219.76645  22258564.9844                   22258560.3794
   1645338.28146   1292686.19544  23580073.3054                   23580070.4534
 -11086505.02747  -8626961.40245  22197036.7894                   22197034.0204
 -13671675.75048 -10641327.98046  21929504.8524                   21929503.9224
   7815616.89846   6097617.04743  25092777.5944                   25092774.6644
 11  8 18  2 56  0.0000000  0  9G26G29G12G05G02G15G30G25G21
  -5486104.85247  -4264359.98045  22712633.0784                   22712630.7974
 -11264833.00848  -8768270.03546  21752631.0554                   21752627.7704
 -15333201.43447 -11941187.56645  22492971.2664                   22492967.9344
 -21750719.09448 -16941274.73846  21010816.9144                   21010813.1764
 -21768668.82448 -16955343.20345  22262442.2344                   22262436.9804
   1525635.20346   1199411.12944  23557294.4384                   23557292.4694
 -11057125.94547  -8604068.63345  22202628.1334                   22202625.3714
 -13660349.99248 -10632502.73446  21931660.0394                   21931659.7464
   7735702.90246   6035346.56343  25077570.4614                   25077567.5044
 11  8 18  2 56 30.0000000  0  9G26G29G12G05G02G15G30G25G21
  -5592933.48447  -4347603.02345  22692304.8754                   22692302.0474
 -11360792.73848  -8843043.80146  21734370.3674                   21734367.1414
 -15272660.32447 -11894012.69945  22504492.0784                   22504488.7274
 -21718869.06248 -16916456.53946  21016877.5704                   21016874.0004
 -21748197.66848 -16939391.68045  22266337.9844                   22266332.7704
   1405986.91846   1106178.76644  23534525.5944                   23534523.4024
 -11027305.59047  -8580832.02745  22208302.6414                   22208299.8594
 -13648518.41448 -10623283.34446  21933911.7194                   21933910.5164
   7655796.22746   5973081.76243  25062363.4144                   25062361.3484
 11  8 18  2 57  0.0000000  0  9G26G29G12G05G02G15G30G25G21
  -5699461.56647  -4430611.89545  22672032.8984                   22672030.0864
 -11456536.19548  -8917649.04746  21716150.8364                   21716147.4654
 -15211869.36347 -11846643.13745  22516059.8754                   22516056.8524
 -21686631.76647 -16891336.55946  21023012.2504                   21023008.8444
 -21727634.50848 -16923368.43045  22270250.8834                   22270245.3094
   1286391.59047   1012987.66844  23511768.3984                   23511765.3324
 -10997051.69547  -8557257.58645  22214059.8594                   22214056.4654
 -13636187.92248 -10613675.17246  21936257.9304                   21936257.3554
   7575891.57847   5910818.53143  25047159.0704                   25047155.7814
 11  8 18  2 57 30.0000000  0  9G26G29G12G05G02G15G30G25G21
  -5805686.70747  -4513384.69545  22651818.4534                   22651815.9344
 -11552062.55148  -8992085.14546  21697973.0084                   21697969.6134
 -15150832.70347 -11799082.12546  22527674.9224                   22527671.8284
 -21654010.73848 -16865917.58246  21029219.7974                   21029216.1524
 -21706980.66047 -16907274.54345  22274180.8204                   22274176.2234
   1166850.61347    919838.91844  23489020.1094                   23489016.8874
 -10966368.53147  -8533348.64145  22219898.4534                   22219895.5124
 -13623362.05948 -10603681.01246  21938698.8984                   21938698.0164
   7495986.74647   5848555.16444  25031953.2274                   25031950.5274
 11  8 18  2 58  0.0000000  0  9G26G29G12G05G02G15G30G25G21
  -5911600.75047  -4595915.07445  22631663.8524                   22631660.8014
 -11647364.89548  -9066346.66846  21679837.3834                   21679834.2464
 -15089548.75847 -11751328.41845  22539336.7894                   22539333.9924
 -21621003.75848 -16840197.85246  21035501.0004                   21035497.0944
 -21686231.23848 -16891106.15245  22278129.6254                   22278124.2894
   1047371.44546    826738.33644  23466283.7194                   23466281.5004
 -10935254.00447  -8509103.58645  22225818.6804                   22225816.6724
 -13610038.06248 -10593298.68746  21941234.5704                   21941233.7704
   7416085.89847   5786294.91844  25016749.4694                   25016745.4144
 11  8 18  2 58 30.0000000  0  9G26G29G12G05G02G15G30G25G21
  -6017200.67647  -4678200.69945  22611568.6174                   22611567.0594
 -11742441.71948  -9140432.46946  21661744.8594                   21661741.4694
 -15028021.39547 -11703385.05545  22551045.4534                   22551042.4694
 -21587614.16048 -16814179.98446  21041854.8284                   21041851.2544
 -21665386.86748 -16874863.79745  22282095.9224                   22282091.9694
    927956.56346    733687.85944  23443559.2894                   23443557.3794
 -10903711.71947  -8484525.19545  22231821.2344                   22231818.7624
 -13596218.72348 -10582530.39546  21943864.0944                   21943863.4344
   7336187.73847   5724036.74243  25001544.3364                   25001541.0904
 11  8 18  2 59  0.0000000  0  9G26G29G12G05G02G15G30G25G21
  -6122485.59047  -4760240.83245  22591533.5234                   22591531.6134
 -11837293.14148  -9214342.63746  21643695.3674                   21643692.1564
 -14966256.07047 -11655256.25845  22562798.7344                   22562795.8284
 -21553846.85948 -16787867.80146  21048280.1484                   21048276.6294
 -21644449.73448 -16858549.15245  22286080.6094                   22286075.2114
    808606.60947    640687.97744  23420848.4774                   23420845.8674
 -10871747.02047  -8459617.65645  22237904.0314                   22237901.6994
 -13581908.66048 -10571379.70746  21946586.8754                   21946586.3754
   7256289.36346   5661778.41843  24986340.1884                   24986336.9144
 11  8 18  2 59 30.0000000  0  9G26G29G12G05G02G15G30G25G21
  -6227451.09047  -4842032.09045  22571559.2814                   22571556.9614
 -11931916.34048  -9288074.97346  21625688.9694                   21625685.5704
 -14904255.50447 -11606944.14545  22574597.1414                   22574593.9694
 -21519703.64547 -16761262.69946  21054777.1644                   21054774.1334
 -21623419.26248 -16842161.75845  22290082.3364                   22290077.4614
    689324.72747    547741.12545  23398149.6484                   23398147.1334
 -10839362.18447  -8434382.73845  22244066.6804                   22244064.0274
 -13567109.49648 -10559847.91046  21949403.1174                   21949402.3954
   7176390.60546   5599519.79343  24971136.2424                   24971132.4804
 11  8 18  3  0  0.0000000  0  9G26G29G12G05G02G15G30G25G21
  -6332091.87547  -4923570.31645  22551646.8054                   22551644.6134
 -12026306.90648  -9361626.03546  21607727.1804                   21607723.9844
 -14842020.97747 -11558449.72345  22586439.7974                   22586436.6684
 -21485184.94948 -16734365.02046  21061345.8054                   21061342.5904
 -21602293.43448 -16825700.07045  22294102.5554                   22294097.0664
    570115.99647    454851.29344  23375464.5314                   23375462.2074
 -10806558.14847  -8408821.17645  22250308.9534                   22250306.4064
 -13551821.40648 -10547935.12546  21952312.4614                   21952311.8524
   7096492.52746   5537261.67243  24955932.0944                   24955927.9184
 11  8 18  3  0 30.0000000  0  9G26G29G12G05G02G15G30G25G21
  -6436405.22747  -5004853.41445  22531796.8204                   22531793.6604
 -12120464.18048  -9434995.32046  21589809.4384                   21589806.0704
 -14779556.51647 -11509776.12945  22598326.3204                   22598323.4734
 -21450294.51647 -16707177.66846  21067985.1804                   21067982.1334
 -21581072.90648 -16809164.60545  22298140.7894                   22298135.3834
    450981.84847    362019.54744  23352793.9144                   23352791.4884
 -10773339.09447  -8382936.21945  22256630.5004                   22256627.4694
 -13536047.86748 -10535644.07446  21955314.0554                   21955313.5044
   7016593.44546   5475002.83243  24940726.8914                   24940723.5044
 11  8 18  3  1  0.0000000  0  9G26G29G12G05G02G15G30G25G21
  -6540387.26647  -5085878.33645  22512009.4144                   22512006.7274
 -12214384.80148  -9508180.19946  21571937.1094                   21571933.7464
 -14716864.83647 -11460925.48045  22610256.0864                   22610253.5634
 -21415034.67648 -16679702.46546  21074695.3834                   21074691.7934
 -21559756.86748 -16792554.71145  22302196.8754                   22302191.5744
    331926.39147    269249.11344  23330139.0004                   23330136.5124
 -10739707.09847  -8356729.47745  22263030.8284                   22263027.9884
 -13519790.38348 -10522975.91446  21958407.9454                   21958406.8954
   6936693.18846   5412743.05543  24925521.8364                   24925518.8014
 11  8 18  3  1 30.0000000  0  9G26G29G12G05G02G15G30G25G21
  -6644036.05547  -5166643.59845  22492286.0314                   22492282.7934
 -12308068.66448  -9581180.59846  21554109.5634                   21554106.2234
 -14653950.72747 -11411901.51245  22622228.3914                   22622225.1174
 -21379409.22748 -16651942.37546  21081474.5944                   21081470.7584
 -21538347.25847 -16775871.91445  22306271.4064                   22306265.9184
    212950.58247    176540.76245  23307498.2974                   23307496.1254
 -10705666.94547  -8330204.69945  22269508.1954                   22269505.4694
 -13503052.88748 -10509933.72746  21961592.7274                   21961592.4224
   6856789.74246   5350480.77043  24910316.5784                   24910313.5044
 11  8 18  3  2  0.0000000  0  9G26G29G12G05G02G15G30G25G21
  -6747346.34447  -5247145.07445  22472626.4694                   22472623.8444
 -12401511.91848  -9653993.50846  21536328.0234                   21536324.8244
 -14590815.85247 -11362705.51645  22634242.8284                   22634239.8554
 -21343418.71548 -16623897.82846  21088322.9924                   21088319.7664
 -21516841.74647 -16759114.37545  22310363.0944                   22310357.9614
     94059.06647     83898.10544  23284873.8284                   23284871.7274
 -10671219.90647  -8303362.86345  22276063.1334                   22276060.5434
 -13485835.96948 -10496517.95746  21964869.2664                   21964868.9144
   6776884.07446   5288216.77042  24895111.5474                   24895107.5204
 11  8 18  3  2 30.0000000  0  9G26G29G12G05G02G15G30G25G21
  -6850314.64547  -5327380.07445  22453032.0554                   22453029.4964
 -12494711.92648  -9726616.89146  21518592.3134                   21518589.1684
 -14527463.12147 -11313339.77345  22646298.4454                   22646295.3134
 -21307066.03948 -16595571.06646  21095241.0704                   21095237.6374
 -21495240.26247 -16742282.07045  22314473.6954                   22314468.7544
    -24744.96547     -8676.38744  23262266.4924                   23262263.9574
 -10636368.94947  -8276206.29345  22282694.9064                   22282692.3364
 -13468141.98048 -10482730.45746  21968236.5704                   21968235.9614
   6696975.53546   5225950.46542  24879905.0634                   24879900.9804
 11  8 18  3  3  0.0000000  0  9G26G29G12G05G02G15G30G25G21
  -6952937.44547  -5407345.85945  22433504.3444                   22433500.8834
 -12587667.01248  -9799049.41846  21500903.7274                   21500900.6954
 -14463895.85547 -11263806.85545  22658395.0004                   22658392.0554
 -21270353.57447 -16566963.94546  21102226.9924                   21102223.7194
 -21473542.60247 -16725374.82445  22318602.9694                   22318597.7034
   -143458.94547   -101180.73844  23239675.5474                   23239673.1724
 -10601116.97347  -8248737.24245  22289403.6414                   22289401.1524
 -13449973.23048 -10468572.98846  21971693.8364                   21971693.1604
   6617063.47746   5163681.45742  24864698.0004                   24864694.6214
 11  8 18  3  3 30.0000000  0  9G26G29G12G05G02G15G30G25G21
  -7055211.73047  -5487040.08645  22414041.5634                   22414039.0124
 -12680375.24248  -9871289.59446  21483261.8204                   21483258.2504
 -14400118.01647 -11214109.85945  22670531.6484                   22670528.1254
 -21233284.41448 -16538078.89146  21109280.9774                   21109277.8324
 -21451749.31647 -16708393.03545  22322750.1954                   22322744.8554
   -262080.59447   -193613.11344  23217102.4454                   23217100.2344
 -10565467.69547  -8220958.59845  22296187.3914                   22296184.4574
 -13431332.62948 -10454047.85246  21975240.4454                   21975240.2274
   6537146.55946   5101408.68842  24849489.9534                   24849485.9844
 11  8 18  3  4  0.0000000  0  9G26G29G12G05G02G15G30G25G21
  -7157133.57447  -5566459.66445  22394646.5234                   22394644.2734
 -12772833.64848  -9943335.10246  21465667.5554                   21465664.2464
 -14336131.82847 -11164250.51245  22682708.0634                   22682704.3754
 -21195860.79348 -16508917.62946  21116402.7194                   21116398.9884
 -21429859.80548 -16691336.27745  22326915.5314                   22326910.2194
   -380606.05947   -285970.54745  23194548.3444                   23194546.0434
 -10529423.46947  -8192872.20745  22303046.2194                   22303043.7384
 -13412221.85548 -10439156.34846  21978877.5234                   21978877.1914
   6457224.86746   5039132.13742  24834280.8594                   24834277.8054
 11  8 18  3  4 30.0000000  0  9G26G29G12G05G02G15G30G25G21
  -7258700.00447  -5645602.31245  22375319.0554                   22375316.4414
 -12865040.59448 -10015184.66446  21448121.4774                   21448117.8794
 -14271941.08647 -11114231.75045  22694922.4924                   22694919.5274
 -21158085.79347 -16479482.56646  21123591.1174                   21123587.5744
 -21407874.16848 -16674204.63345  22331099.4144                   22331093.3324
   -499033.03547   -378251.25844  23172011.9774                   23172009.8484
 -10492987.91047  -8164480.87145  22309980.1884                   22309977.0354
 -13392643.98848 -10423900.87546  21982603.3834                   21982602.6214
   6377297.09446   4976850.82842  24819071.9924                   24819067.6844
 11  8 18  3  5  0.0000000  0  9G26G29G12G05G02G15G30G25G21
  -7359907.84447  -5724465.52345  22356059.7424                   22356057.2544
 -12956994.36748 -10086836.95346  21430623.0554                   21430620.0084
 -14207549.54747 -11064056.55545  22707176.2114                   22707172.8204
 -21119962.25848 -16449775.90646  21130845.9694                   21130842.3754
 -21385792.69148 -16656998.30945  22335301.3204                   22335296.3204
   -617358.96147   -470453.23445  23149495.3754                   23149492.7814
 -10456164.46547  -8135787.28145  22316986.6954                   22316984.2734
 -13372601.75048 -10408283.55146  21986417.2814                   21986416.2384
   6297362.19146   4914564.02043  24803860.2194                   24803856.7974
 11  8 18  3  5 30.0000000  0  9G26G29G12G05G02G15G30G25G21
  -7460752.86747  -5803046.02045  22336869.4844                   22336866.6094
 -13048691.78148 -10158289.48046  21413173.4774                   21413170.1174
 -14142959.75047 -11013726.85545  22719467.0004                   22719464.2974
 -21081491.86747 -16419798.98846  21138166.5084                   21138163.0394
 -21363614.44948 -16639716.56645  22339521.7424                   22339516.1844
   -735580.29347   -562573.71945  23126998.8594                   23126996.0234
 -10418955.36347  -8106793.19545  22324067.6414                   22324065.3204
 -13352096.77048 -10392305.65246  21990318.9304                   21990318.1524
   6217420.38746   4852271.79343  24788648.6024                   24788644.9844
 11  8 18  3  6  0.0000000  0  9G26G29G12G05G02G15G30G25G21
  -7561231.13347  -5881340.74645  22317749.2034                   22317746.6174
 -13140130.25448 -10229540.23446  21395773.3914                   21395769.9104
 -14078174.09047 -10963244.55545  22731795.2034                   22731792.2704
 -21042676.76648 -16389553.44146  21145552.3524                   21145549.0354
 -21341338.64548 -16622358.80145  22343760.6484                   22343755.6484
   -853693.40647   -654609.84845  23104522.9064                   23104520.0864
 -10381363.18447  -8077500.60945  22331221.0944                   22331218.3164
 -13331130.96948 -10375968.66846  21994308.7974                   21994307.6844
   6137471.40646   4789973.98443  24773434.0394                   24773431.1134
 11  8 18  3  6 30.0000000  0  9G26G29G12G05G02G15G30G25G21
  -7661338.87947  -5959346.73845  22298699.1804                   22298696.5634
 -13231307.05548 -10300587.07846  21378423.0634                   21378419.9734
 -14013195.69947 -10912612.04345  22744160.2504                   22744157.2774
 -21003519.21547 -16359041.07046  21153003.9454                   21153000.6764
 -21318964.87148 -16604924.69945  22348018.0314                   22348013.2814
   -971695.23447   -746559.30145  23082067.5554                   23082064.5704
 -10343390.89147  -8047911.82045  22338446.9534                   22338444.4304
 -13309706.65648 -10359274.40246  21998385.4064                   21998384.7544
   6057514.86746   4727670.25443  24758219.3054                   24758216.4534
 11  8 18  3  7  0.0000000  0  9G26G29G12G05G02G15G30G25G21
  -7761072.00447  -6037060.82845  22279720.9774                   22279717.8914
 -13322219.40248 -10371427.86346  21361122.7584                   21361119.7734
 -13948027.19947 -10861831.42645  22756561.3134                   22756558.5274
 -20964021.37548 -16328263.52746  21160520.2504                   21160516.8754
 -21296492.46547 -16587413.75045  22352294.8284                   22352289.4064
  -1089582.16447   -838419.18745  23059634.1094                   23059631.3954
 -10305040.80547  -8018028.64845  22345745.2034                   22345742.4884
 -13287825.57048 -10342224.22746  22002549.4844                   22002548.8634
   5977550.75847   4665360.63344  24743002.7814                   24742999.7624
 11  8 18  3  7 30.0000000  0  9G26G29G12G05G02G15G30G25G21
  -7860427.75447  -6114480.85945  22260813.8134                   22260810.9264
 -13412866.12548 -10442061.66446  21343873.1724                   21343870.3164
 -13882672.30147 -10810905.53545  22768998.0704                   22768995.0984
 -20924186.33648 -16297223.23846  21168100.7344                   21168097.3204
 -21273921.77047 -16569826.22345  22356589.9064                   22356584.1524
  -1207352.07847   -930187.90245  23037223.7114                   23037220.3444
 -10266316.72347  -7987854.05945  22353113.5234                   22353111.0084
 -13265491.02348 -10324820.69146  22006799.3754                   22006799.1024
   5897577.69147   4603044.05143  24727784.4694                   24727780.5594
 11  8 18  3  8  0.0000000  0  9G26G29G12G05G02G15G30G25G21
  -7959403.08247  -6191604.45345  22241979.7894                   22241977.0864
 -13503245.02748 -10512486.77346  21326674.9614                   21326671.7894
 -13817134.55147 -10759837.18745  22781469.9534                   22781466.7074
 -20884017.07048 -16265922.50046  21175744.7194                   21175741.2304
 -21251252.78547 -16552162.08645  22360903.3754                   22360897.6724
  -1325002.05547  -1021863.16045  23014835.2584                   23014832.5434
 -10227222.08647  -7957390.73045  22360552.8984                   22360550.4884
 -13242705.68448 -10307065.89146  22011135.1884                   22011134.5394
   5817594.83646   4540719.84844  24712563.8914                   24712560.9344
 11  8 18  3  8 30.0000000  0  9G26G29G12G05G02G15G30G25G21
  -8057991.46947  -6268426.53945  22223218.9144                   22223216.4454
 -13593350.75848 -10582699.02046  21309528.1724                   21309525.1884
 -13751414.21147 -10708626.53145  22793975.6174                   22793972.7934
 -20843513.06647 -16234360.93746  21183452.3984                   21183448.8794
 -21228482.46147 -16534418.98445  22365236.2814                   22365230.8524
  -1442526.09847  -1113440.28545  22992470.8754                   22992467.9184
 -10187757.06647  -7926638.78545  22368062.9614                   22368060.5004
 -13219469.14548 -10288959.52046  22015557.0784                   22015556.7734
   5737604.58247   4478389.88344  24697342.8984                   24697338.8794
 11  8 18  3  9  0.0000000  0  9G26G29G12G05G02G15G30G25G21
  -8156193.01247  -6344947.19945  22204531.7344                   22204528.9344
 -13683184.78948 -10652699.54746  21292433.3524                   21292430.2424
 -13685517.62547 -10657278.57045  22806515.0474                   22806512.3594
 -20802680.39548 -16202543.26646  21191222.5084                   21191219.1134
 -21205613.87947 -16516599.31645  22369587.8914                   22369582.7774
  -1559924.77747  -1204919.71545  22970131.0394                   22970128.0434
 -10147928.12147  -7895603.27045  22375642.5394                   22375640.1024
 -13195787.37148 -10270506.20346  22020063.7814                   22020063.0314
   5657602.81646   4416050.94943  24682118.8444                   24682114.8014
 11  8 18  3  9 30.0000000  0 10G26G18G29G12G05G02G15G30G25G21
  -8254002.42247  -6421162.28945  22185918.7424                   22185916.0554
   9287017.07056   7247088.80953  24662518.1334                   24662516.0704
 -13772742.82448 -10722485.02046  21275391.0704                   21275387.6884
 -13619446.48847 -10605794.59045  22819088.0474                   22819085.4734
 -20761519.81248 -16170470.07446  21199055.1564                   21199051.8714
 -21182645.11347 -16498701.58245  22373958.4694                   22373953.3954
  -1677193.37147  -1296297.78545  22947815.5474                   22947812.3984
 -10107736.64547  -7864285.23845  22383291.0634                   22383288.7854
 -13171661.06248 -10251706.49246  22024654.9774                   22024654.2344
   5577590.86746   4353704.04743  24666892.6884                   24666888.5744
 11  8 18  3 10  0.0000000  0 10G26G18G29G12G05G02G15G30G25G21
  -8351423.99247  -6497075.16045  22167380.4924                   22167377.3054
   9173986.60546   7159013.35543  24641008.1334                   24641006.8984
 -13862030.37548 -10792059.72746  21258400.3054                   21258396.9734
 -13553211.60947 -10554183.01245  22831692.2424                   22831689.3834
 -20720041.56248 -16138149.36746  21206948.0394                   21206944.6134
 -21159583.60547 -16480731.60545  22378347.3284                   22378342.5044
  -1794336.35547  -1387577.99645  22925523.6724                   22925520.9414
 -10067193.44147  -7832693.15245  22391006.3674                   22391003.7814
 -13147100.52348 -10232568.43446  22029328.5864                   22029327.7384
   5497560.28946   4291342.69544  24651663.2894                   24651659.4184
 11  8 18  3 10 30.0000000  0 10G26G18G29G12G05G02G15G30G25G21
  -8448455.75847  -6572684.30145  22148915.3834                   22148913.0204
   9061115.92246   7071062.43043  24619529.7114                   24619528.3014
 -13951046.79748 -10861423.16046  21241460.9534                   21241457.8054
 -13486818.18447 -10502447.88745  22844326.6484                   22844323.5594
 -20678249.94948 -16105584.46546  21214900.8914                   21214897.1564
 -21136430.90647 -16462690.55545  22382753.2504                   22382748.1454
  -1911352.36347  -1478759.23845  22903256.3914                   22903253.1564
 -10026303.29747  -7800830.71145  22398787.2274                   22398784.6524
 -13122109.91848 -10213095.25046  22034084.3444                   22034083.6844
   5417509.02046   4228965.20343  24636429.7274                   24636425.3014
 11  8 18  3 11  0.0000000  0 10G26G18G29G12G05G02G15G30G25G21
  -8545093.10247  -6647986.10245  22130526.3754                   22130523.5704
   8948407.69946   6983238.09043  24598081.6414                   24598080.7934
 -14039788.50448 -10930572.53546  21224574.0234                   21224570.5354
 -13420267.64547 -10450590.34445  22856991.0234                   22856988.0044
 -20636146.15248 -16072776.30546  21222912.5864                   21222909.2974
 -21113185.31647 -16444577.12145  22387177.2344                   22387171.6134
  -2028237.44147  -1569838.47745  22881013.8984                   22881010.8594
  -9985067.86347  -7768699.22345  22406633.9454                   22406631.0084
 -13096690.38348 -10193287.83646  22038921.0784                   22038920.4844
   5337437.52346   4166571.93443  24621193.1564                   24621189.1134
 11  8 18  3 11 30.0000000  0 10G26G18G29G12G05G02G15G30G25G21
  -8641329.66847  -6722975.59045  22112213.1334                   22112210.6684
   8835865.58245   6895543.16442  24576665.7664                   24576663.6024
 -14128250.32448 -10999503.80146  21207740.5554                   21207737.2234
 -13353560.36747 -10398610.64845  22869684.6564                   22869682.0864
 -20593729.91847 -16039724.69146  21230984.0314                   21230980.9534
 -21089843.63747 -16426388.82445  22391618.3594                   22391613.2774
  -2144985.71547  -1660811.10245  22858797.4304                   22858794.3404
  -9943487.64147  -7736299.03545  22414546.0314                   22414543.6214
 -13070841.82448 -10173146.12146  22043840.0234                   22043839.7974
   5257348.12546   4104164.71143  24605951.3364                   24605948.3794
 11  8 18  3 12  0.0000000  0 10G26G18G29G12G05G02G15G30G25G21
  -8737160.40247  -6797648.85245  22093976.5554                   22093973.6994
   8723492.99645   6807980.39842  24555280.9614                   24555279.7704
 -14216428.18048 -11068213.81246  21190960.5864                   21190957.6374
 -13286697.71947 -10346509.88745  22882408.6174                   22882405.5744
 -20551002.37148 -16006430.50046  21239115.1484                   21239111.4964
 -21066403.83247 -16408124.05945  22396079.4924                   22396073.6294
  -2261592.21947  -1751673.26245  22836607.9224                   22836604.5234
  -9901564.01647  -7703631.28545  22422523.7194                   22422521.3674
 -13044565.07848 -10152670.76246  22048840.4844                   22048839.5944
   5177241.93846   4041744.40643  24590707.4304                   24590704.6684
 11  8 18  3 12 30.0000000  0 10G26G18G29G12G05G02G15G30G25G21
  -8832581.76247  -6872003.12545  22075818.8594                   22075816.2464
   8611291.09845   6720550.52742  24533929.7034                   24533927.1914
 -14304319.72348 -11136700.71546  21174235.2664                   21174232.0204
 -13219682.57847 -10294290.30945  22895161.4454                   22895158.1954
 -20507965.49248 -15972895.26646  21247304.7664                   21247301.1024
 -21042865.64847 -16389782.65245  22400558.2034                   22400552.9964
  -2378053.74247  -1842422.45745  22814446.1484                   22814442.5474
  -9859299.88747  -7670698.19545  22430566.7274                   22430563.8594
 -13017862.47748 -10131863.56646  22053921.8674                   22053920.8954
   5097118.71546   3979310.84043  24575459.8364                   24575457.1294
 11  8 18  3 13  0.0000000  0 10G26G18G29G12G05G02G15G30G25G21
  -8927589.81647  -6946035.34845  22057739.6884                   22057736.9264
   8499261.52045   6633254.88342  24512611.8284                   24512608.6764
 -14391921.86348 -11204962.11346  21157565.1884                   21157562.2114
 -13152517.73447 -10241954.08645  22907942.4384                   22907938.9304
 -20464621.09848 -15939120.41046  21255553.0004                   21255549.2464
 -21019227.96547 -16371363.69945  22405056.4144                   22405051.2544
  -2494366.99647  -1933056.12945  22792312.1094                   22792309.4384
  -9816697.80547  -7637501.77745  22438673.4304                   22438671.2304
 -12990736.10548 -10110726.14146  22059083.6804                   22059083.1764
   5016978.65246   3916864.12143  24560211.0634                   24560206.8054
 11  8 18  3 13 30.0000000  0 10G26G18G29G12G05G02G15G30G25G21
  -9022179.57847  -7019741.61345  22039739.9144                   22039736.7774
   8387407.13745   6546095.86342  24491326.1724                   24491322.8984
 -14479230.92648 -11272995.13746  21140950.9844                   21140947.2234
 -13085204.53947 -10189502.26645  22920751.3054                   22920748.0354
 -20420970.34848 -15905106.83646  21263859.5634                   21263855.7894
 -20995489.07447 -16352865.89145  22409573.7894                   22409568.2034
  -2610526.81647  -2023570.21145  22770207.5314                   22770204.8134
  -9773759.45747  -7604043.33645  22446844.4844                   22446841.8794
 -12963187.07048 -10089259.39146  22064326.6334                   22064325.5554
   4936822.02746   3854404.48443  24544956.4774                   24544953.0474
 11  8 18  3 14  0.0000000  0 10G26G18G29G12G05G02G15G30G25G21
  -9116346.57847  -7093118.46945  22021820.3594                   22021816.8524
   8275730.11746   6459075.02042  24470075.1804                   24470071.3444
 -14566243.54747 -11340797.16446  21124392.9144                   21124389.6844
 -13017745.30947 -10136936.64145  22933588.2734                   22933584.9344
 -20377014.82048 -15870855.77046  21272223.9384                   21272220.4844
 -20971647.56647 -16334288.12945  22414110.5234                   22414105.2424
  -2726529.49247  -2113961.87945  22748133.2664                   22748130.2584
  -9730486.83647  -7570324.42645  22455079.2734                   22455076.3674
 -12935216.90248 -10067464.47346  22069648.9304                   22069648.4494
   4856649.82446   3791932.73043  24529700.4384                   24529697.8714
 11  8 18  3 14 30.0000000  0 10G26G18G29G12G05G02G15G30G25G21
  -9210086.87547  -7166162.82845  22003981.7894                   22003979.0204
   8164232.23446   6372193.75043  24448857.8054                   24448854.0274
 -14652957.27348 -11408366.28546  21107891.9844                   21107888.4694
 -12950142.89847 -10084259.45345  22946452.5704                   22946449.4614
 -20332756.75448 -15836368.95746  21280645.8524                   21280642.2154
 -20947703.05147 -16315630.08645  22418667.1254                   22418661.8954
  -2842371.59847  -2204228.40645  22726088.5394                   22726085.2774
  -9686882.83247  -7536347.29745  22463376.4844                   22463374.2664
 -12906827.95348 -10045343.22346  22075051.2344                   22075050.1454
   4776461.96546   3729448.72743  24514441.6724                   24514437.9454
 11  8 18  3 15  0.0000000  0 10G26G18G29G12G05G02G15G30G25G21
  -9303398.81647  -7238873.40245  21986225.2504                   21986222.5394
   8052913.07046   6285451.72343  24427674.1174                   24427671.7424
 -14739370.87948 -11475701.55946  21091447.9064                   21091444.6174
 -12882401.77047 -10031474.19545  22959343.3524                   22959340.4844
 -20288199.85948 -15801649.29746  21289124.8134                   21289121.1334
 -20923656.48847 -16296892.53145  22423242.7114                   22423238.0234
  -2958051.39847  -2294368.47345  22704075.6884                   22704072.3594
  -9642952.03547  -7502115.53545  22471736.1644                   22471734.0474
 -12878024.23048 -10022898.77746  22080532.4064                   22080531.5594
   4696256.33646   3666950.90243  24499179.5314                   24499175.3954
 11  8 18  3 15 30.0000000  0 10G26G18G29G12G05G02G15G30G25G21
  -9396278.00447  -7311246.77745  21968551.0314                   21968548.5434
   7941774.89546   6198850.72743  24406524.9224                   24406522.4024
 -14825481.41448 -11542800.66446  21075061.4224                   21075058.3444
 -12814524.07847  -9978582.48845  22972259.9694                   22972256.6414
 -20243346.09848 -15766698.30946  21297659.8674                   21297656.8204
 -20899506.46547 -16278074.37945  22427839.1954                   22427833.7624
  -3073564.90647  -2384378.94145  22682094.4224                   22682091.4064
  -9598696.69547  -7467630.87945  22480157.8524                   22480155.4304
 -12848807.58248 -10000132.58246  22086091.7114                   22086091.1644
   4616033.17246   3604439.39543  24483913.3754                   24483909.2464
 11  8 18  3 16  0.0000000  0 10G26G18G29G12G05G02G15G30G25G21
  -9488722.61347  -7383281.50445  21950958.9844                   21950956.2774
   7830817.00846   6112390.21943  24385409.5704                   24385407.8324
 -14911288.03548 -11609662.94946  21058733.2194                   21058729.7384
 -12746514.43047  -9925588.00045  22985201.9144                   22985199.4774
 -20198199.42248 -15731519.08646  21306251.1954                   21306247.6524
 -20875254.27347 -16259176.57845  22432453.6724                   22432448.8284
  -3188910.82447  -2474258.83645  22660144.8674                   22660141.5354
  -9554121.66048  -7432897.09845  22488640.7734                   22488637.4734
 -12819182.29748  -9977047.96146  22091729.7974                   22091728.4574
   4535790.73847   3541912.85243  24468643.9924                   24468639.9804
 11  8 18  3 16 30.0000000  0 10G26G18G29G12G05G02G15G30G25G21
  -9580728.61347  -7454974.46545  21933450.8524                   21933448.5044
   7720041.72746   6026071.99643  24364330.4064                   24364327.3754
 -14996787.64148 -11676286.00046  21042462.9224                   21042459.6334
 -12678375.24247  -9872492.53945  22998168.5164                   22998165.6644
 -20152761.41448 -15696112.83646  21314897.7584                   21314894.1844
 -20850898.75847 -16240198.28145  22437088.1954                   22437083.8754
  -3304085.17247  -2564005.01245  22638227.6174                   22638225.0944
  -9509229.09447  -7397915.87145  22497183.0704                   22497179.9064
 -12789150.10248  -9953646.27346  22097444.3204                   22097444.0704
   4455529.13747   3479371.39843  24453370.8054                   24453366.0234
 11  8 18  3 17  0.0000000  0 10G26G18G29G12G05G02G15G30G25G21
  -9672291.01647  -7526321.76645  21916027.2504                   21916024.7194
   7609451.45346   5939897.96143  24343285.3834                   24343283.1334
 -15081976.46948 -11742666.88346  21026252.1644                   21026248.7854
 -12610108.32447  -9819297.55945  23011159.4534                   23011156.6764
 -20107033.41048 -15660480.62946  21323599.4224                   21323595.8714
 -20826438.32447 -16221138.24645  22441743.2974                   22441738.4924
  -3419083.46147  -2653614.01245  22616344.1484                   22616340.8874
  -9464020.89147  -7362688.71145  22505785.5634                   22505783.1724
 -12758712.41448  -9929928.61346  22103236.0784                   22103236.0744
   4375249.37947   3416815.75443  24438093.6484                   24438089.7624
 11  8 18  3 17 30.0000000  0 10G26G18G29G12G05G02G15G30G25G21
  -9763407.75047  -7597321.79745  21898688.2584                   21898685.9064
   7499046.58646   5853868.41043  24322275.9384                   24322273.0634
 -15166852.94548 -11808804.38346  21010100.6414                   21010097.5944
 -12541717.43447  -9766005.96945  23024173.5784                   23024170.9384
 -20061018.99648 -15624625.24246  21332355.7664                   21332352.0124
 -20801873.86747 -16201997.14545  22446418.3054                   22446413.0664
  -3533903.60547  -2743084.21145  22594494.9844                   22594491.3874
  -9418501.13347  -7327218.78945  22514447.9694                   22514445.4184
 -12727872.82048  -9905897.76646  22109104.9694                   22109104.8834
   4294949.71547   3354244.62944  24422813.0164                   24422808.9614
 11  8 18  3 18  0.0000000  0 10G26G18G29G12G05G02G15G30G25G21
  -9854076.23047  -7667972.53545  21881434.7424                   21881431.9384
   7388827.03146   5767983.24643  24301301.5554                   24301298.3594
 -15251415.76648 -11874697.46946  20994008.8984                   20994005.3594
 -12473206.86347  -9712621.12945  23037210.9924                   23037207.6094
 -20014721.16048 -15588549.00046  21341165.8914                   21341161.8674
 -20777205.26647 -16182774.88745  22451112.0554                   22451107.0784
  -3648543.14147  -2832413.68445  22572679.3754                   22572676.4574
  -9372673.79347  -7291509.18045  22523168.6484                   22523166.4184
 -12696634.86348  -9881556.51646  22115049.8674                   22115048.9064
   4214629.02747   3291657.15243  24407528.3594                   24407524.7854
